<?xml version="1.0" encoding="UTF-8" standalone="no" ?>
<gpx xmlns="http://www.topografix.com/GPX/1/1" xmlns:xsi="http://www.w3.org/2001/XMLSchema-instance" xsi:schemaLocation="http://www.topografix.com/GPX/1/1 http://www.topografix.com/GPX/1/1/gpx.xsd" version="1.1" creator="VisuGPX - https://www.visugpx.com">
  <metadata>
    <name>Cyclo - Tour Jura 4ème</name>
    <desc><![CDATA[superbe virée]]></desc>
  </metadata>
  <trk>
    <name><![CDATA[04-AOU-14 15:49:32]]></name>
    <trkseg>
      <trkpt lat="46.68529" lon="5.57013">
        <ele>221.24</ele>
        <time>2014-08-04T06:51:07Z</time>
      </trkpt>
      <trkpt lat="46.68529" lon="5.57014">
        <ele>225.09</ele>
        <time>2014-08-04T06:51:09Z</time>
      </trkpt>
      <trkpt lat="46.68529" lon="5.57015">
        <ele>227.97</ele>
        <time>2014-08-04T06:51:11Z</time>
      </trkpt>
      <trkpt lat="46.68529" lon="5.57017">
        <ele>229.41</ele>
        <time>2014-08-04T06:51:13Z</time>
      </trkpt>
      <trkpt lat="46.68529" lon="5.57017">
        <ele>232.78</ele>
        <time>2014-08-04T06:51:14Z</time>
      </trkpt>
      <trkpt lat="46.68529" lon="5.57017">
        <ele>237.1</ele>
        <time>2014-08-04T06:51:15Z</time>
      </trkpt>
      <trkpt lat="46.68529" lon="5.57017">
        <ele>236.14</ele>
        <time>2014-08-04T06:51:16Z</time>
      </trkpt>
      <trkpt lat="46.68533" lon="5.57">
        <ele>219.8</ele>
        <time>2014-08-04T07:03:39Z</time>
      </trkpt>
      <trkpt lat="46.68532" lon="5.56999">
        <ele>219.8</ele>
        <time>2014-08-04T07:03:40Z</time>
      </trkpt>
      <trkpt lat="46.68526" lon="5.57007">
        <ele>223.16</ele>
        <time>2014-08-04T07:03:46Z</time>
      </trkpt>
      <trkpt lat="46.68526" lon="5.57008">
        <ele>227.01</ele>
        <time>2014-08-04T07:03:48Z</time>
      </trkpt>
      <trkpt lat="46.68525" lon="5.57008">
        <ele>229.89</ele>
        <time>2014-08-04T07:03:50Z</time>
      </trkpt>
      <trkpt lat="46.68523" lon="5.57008">
        <ele>233.26</ele>
        <time>2014-08-04T07:03:52Z</time>
      </trkpt>
      <trkpt lat="46.68521" lon="5.57007">
        <ele>237.1</ele>
        <time>2014-08-04T07:03:55Z</time>
      </trkpt>
      <trkpt lat="46.68516" lon="5.57006">
        <ele>241.43</ele>
        <time>2014-08-04T07:03:59Z</time>
      </trkpt>
      <trkpt lat="46.68512" lon="5.57004">
        <ele>244.79</ele>
        <time>2014-08-04T07:04:02Z</time>
      </trkpt>
      <trkpt lat="46.6851" lon="5.57">
        <ele>249.12</ele>
        <time>2014-08-04T07:04:07Z</time>
      </trkpt>
      <trkpt lat="46.6851" lon="5.56991">
        <ele>252.48</ele>
        <time>2014-08-04T07:04:12Z</time>
      </trkpt>
      <trkpt lat="46.68512" lon="5.56975">
        <ele>255.85</ele>
        <time>2014-08-04T07:04:18Z</time>
      </trkpt>
      <trkpt lat="46.68512" lon="5.56966">
        <ele>257.77</ele>
        <time>2014-08-04T07:04:21Z</time>
      </trkpt>
      <trkpt lat="46.68516" lon="5.56945">
        <ele>260.65</ele>
        <time>2014-08-04T07:04:28Z</time>
      </trkpt>
      <trkpt lat="46.68525" lon="5.56905">
        <ele>264.02</ele>
        <time>2014-08-04T07:04:41Z</time>
      </trkpt>
      <trkpt lat="46.6853" lon="5.56866">
        <ele>264.02</ele>
        <time>2014-08-04T07:04:51Z</time>
      </trkpt>
      <trkpt lat="46.68515" lon="5.56856">
        <ele>264.98</ele>
        <time>2014-08-04T07:04:58Z</time>
      </trkpt>
      <trkpt lat="46.68508" lon="5.56857">
        <ele>265.94</ele>
        <time>2014-08-04T07:05:04Z</time>
      </trkpt>
      <trkpt lat="46.68492" lon="5.56863">
        <ele>268.35</ele>
        <time>2014-08-04T07:05:17Z</time>
      </trkpt>
      <trkpt lat="46.68489" lon="5.56864">
        <ele>268.83</ele>
        <time>2014-08-04T07:05:19Z</time>
      </trkpt>
      <trkpt lat="46.6847" lon="5.56878">
        <ele>269.79</ele>
        <time>2014-08-04T07:05:35Z</time>
      </trkpt>
      <trkpt lat="46.6847" lon="5.56878">
        <ele>269.79</ele>
        <time>2014-08-04T07:05:52Z</time>
      </trkpt>
      <trkpt lat="46.6847" lon="5.56878">
        <ele>269.79</ele>
        <time>2014-08-04T07:06:24Z</time>
      </trkpt>
      <trkpt lat="46.6847" lon="5.56879">
        <ele>269.79</ele>
        <time>2014-08-04T07:07:01Z</time>
      </trkpt>
      <trkpt lat="46.6847" lon="5.56879">
        <ele>269.79</ele>
        <time>2014-08-04T07:07:32Z</time>
      </trkpt>
      <trkpt lat="46.68469" lon="5.56879">
        <ele>269.79</ele>
        <time>2014-08-04T07:07:55Z</time>
      </trkpt>
      <trkpt lat="46.68469" lon="5.56879">
        <ele>269.79</ele>
        <time>2014-08-04T07:08:25Z</time>
      </trkpt>
      <trkpt lat="46.68467" lon="5.56879">
        <ele>270.27</ele>
        <time>2014-08-04T07:08:59Z</time>
      </trkpt>
      <trkpt lat="46.6847" lon="5.56881">
        <ele>269.79</ele>
        <time>2014-08-04T07:09:00Z</time>
      </trkpt>
      <trkpt lat="46.68466" lon="5.5688">
        <ele>269.79</ele>
        <time>2014-08-04T07:09:14Z</time>
      </trkpt>
      <trkpt lat="46.68456" lon="5.56866">
        <ele>271.23</ele>
        <time>2014-08-04T07:09:27Z</time>
      </trkpt>
      <trkpt lat="46.68432" lon="5.56844">
        <ele>273.63</ele>
        <time>2014-08-04T07:09:41Z</time>
      </trkpt>
      <trkpt lat="46.6842" lon="5.56821">
        <ele>274.59</ele>
        <time>2014-08-04T07:09:52Z</time>
      </trkpt>
      <trkpt lat="46.68418" lon="5.56812">
        <ele>274.59</ele>
        <time>2014-08-04T07:09:56Z</time>
      </trkpt>
      <trkpt lat="46.68432" lon="5.5679">
        <ele>274.59</ele>
        <time>2014-08-04T07:10:08Z</time>
      </trkpt>
      <trkpt lat="46.68435" lon="5.56788">
        <ele>274.59</ele>
        <time>2014-08-04T07:10:09Z</time>
      </trkpt>
      <trkpt lat="46.68455" lon="5.56737">
        <ele>274.59</ele>
        <time>2014-08-04T07:10:22Z</time>
      </trkpt>
      <trkpt lat="46.68491" lon="5.56675">
        <ele>273.63</ele>
        <time>2014-08-04T07:10:38Z</time>
      </trkpt>
      <trkpt lat="46.68555" lon="5.56606">
        <ele>270.75</ele>
        <time>2014-08-04T07:10:51Z</time>
      </trkpt>
      <trkpt lat="46.68633" lon="5.56524">
        <ele>268.83</ele>
        <time>2014-08-04T07:11:05Z</time>
      </trkpt>
      <trkpt lat="46.68693" lon="5.56472">
        <ele>269.31</ele>
        <time>2014-08-04T07:11:19Z</time>
      </trkpt>
      <trkpt lat="46.6876" lon="5.56442">
        <ele>270.27</ele>
        <time>2014-08-04T07:11:34Z</time>
      </trkpt>
      <trkpt lat="46.68812" lon="5.56409">
        <ele>271.23</ele>
        <time>2014-08-04T07:11:50Z</time>
      </trkpt>
      <trkpt lat="46.68813" lon="5.56402">
        <ele>271.23</ele>
        <time>2014-08-04T07:11:59Z</time>
      </trkpt>
      <trkpt lat="46.68813" lon="5.56399">
        <ele>271.23</ele>
        <time>2014-08-04T07:12:09Z</time>
      </trkpt>
      <trkpt lat="46.6882" lon="5.56354">
        <ele>271.71</ele>
        <time>2014-08-04T07:12:20Z</time>
      </trkpt>
      <trkpt lat="46.6885" lon="5.56303">
        <ele>272.67</ele>
        <time>2014-08-04T07:12:32Z</time>
      </trkpt>
      <trkpt lat="46.68857" lon="5.56298">
        <ele>272.67</ele>
        <time>2014-08-04T07:12:34Z</time>
      </trkpt>
      <trkpt lat="46.68935" lon="5.5628">
        <ele>274.11</ele>
        <time>2014-08-04T07:12:53Z</time>
      </trkpt>
      <trkpt lat="46.69022" lon="5.56273">
        <ele>276.04</ele>
        <time>2014-08-04T07:13:14Z</time>
      </trkpt>
      <trkpt lat="46.69105" lon="5.56287">
        <ele>277.48</ele>
        <time>2014-08-04T07:13:34Z</time>
      </trkpt>
      <trkpt lat="46.69171" lon="5.5631">
        <ele>279.4</ele>
        <time>2014-08-04T07:13:51Z</time>
      </trkpt>
      <trkpt lat="46.6922" lon="5.5633">
        <ele>281.32</ele>
        <time>2014-08-04T07:14:06Z</time>
      </trkpt>
      <trkpt lat="46.69273" lon="5.56356">
        <ele>284.69</ele>
        <time>2014-08-04T07:14:25Z</time>
      </trkpt>
      <trkpt lat="46.6932" lon="5.56378">
        <ele>287.57</ele>
        <time>2014-08-04T07:14:44Z</time>
      </trkpt>
      <trkpt lat="46.6936" lon="5.56396">
        <ele>289.97</ele>
        <time>2014-08-04T07:15:01Z</time>
      </trkpt>
      <trkpt lat="46.69398" lon="5.56412">
        <ele>292.86</ele>
        <time>2014-08-04T07:15:18Z</time>
      </trkpt>
      <trkpt lat="46.69433" lon="5.56427">
        <ele>295.74</ele>
        <time>2014-08-04T07:15:34Z</time>
      </trkpt>
      <trkpt lat="46.69467" lon="5.5644">
        <ele>299.11</ele>
        <time>2014-08-04T07:15:50Z</time>
      </trkpt>
      <trkpt lat="46.69504" lon="5.56454">
        <ele>301.99</ele>
        <time>2014-08-04T07:16:07Z</time>
      </trkpt>
      <trkpt lat="46.69538" lon="5.56468">
        <ele>305.36</ele>
        <time>2014-08-04T07:16:23Z</time>
      </trkpt>
      <trkpt lat="46.6958" lon="5.56485">
        <ele>308.72</ele>
        <time>2014-08-04T07:16:42Z</time>
      </trkpt>
      <trkpt lat="46.69617" lon="5.56501">
        <ele>311.6</ele>
        <time>2014-08-04T07:16:59Z</time>
      </trkpt>
      <trkpt lat="46.69657" lon="5.56523">
        <ele>314.49</ele>
        <time>2014-08-04T07:17:17Z</time>
      </trkpt>
      <trkpt lat="46.69699" lon="5.56552">
        <ele>317.37</ele>
        <time>2014-08-04T07:17:37Z</time>
      </trkpt>
      <trkpt lat="46.6974" lon="5.56588">
        <ele>319.78</ele>
        <time>2014-08-04T07:17:57Z</time>
      </trkpt>
      <trkpt lat="46.69781" lon="5.56629">
        <ele>322.66</ele>
        <time>2014-08-04T07:18:18Z</time>
      </trkpt>
      <trkpt lat="46.69812" lon="5.56662">
        <ele>324.58</ele>
        <time>2014-08-04T07:18:34Z</time>
      </trkpt>
      <trkpt lat="46.69852" lon="5.56698">
        <ele>326.5</ele>
        <time>2014-08-04T07:18:52Z</time>
      </trkpt>
      <trkpt lat="46.69889" lon="5.56725">
        <ele>327.95</ele>
        <time>2014-08-04T07:19:08Z</time>
      </trkpt>
      <trkpt lat="46.69932" lon="5.56752">
        <ele>329.39</ele>
        <time>2014-08-04T07:19:25Z</time>
      </trkpt>
      <trkpt lat="46.69972" lon="5.56769">
        <ele>330.35</ele>
        <time>2014-08-04T07:19:40Z</time>
      </trkpt>
      <trkpt lat="46.70024" lon="5.56786">
        <ele>331.31</ele>
        <time>2014-08-04T07:19:57Z</time>
      </trkpt>
      <trkpt lat="46.70083" lon="5.56799">
        <ele>332.75</ele>
        <time>2014-08-04T07:20:15Z</time>
      </trkpt>
      <trkpt lat="46.70148" lon="5.56816">
        <ele>333.71</ele>
        <time>2014-08-04T07:20:35Z</time>
      </trkpt>
      <trkpt lat="46.70208" lon="5.56841">
        <ele>335.16</ele>
        <time>2014-08-04T07:20:54Z</time>
      </trkpt>
      <trkpt lat="46.70267" lon="5.56873">
        <ele>336.6</ele>
        <time>2014-08-04T07:21:14Z</time>
      </trkpt>
      <trkpt lat="46.70273" lon="5.56876">
        <ele>337.08</ele>
        <time>2014-08-04T07:21:16Z</time>
      </trkpt>
      <trkpt lat="46.70294" lon="5.56889">
        <ele>337.08</ele>
        <time>2014-08-04T07:21:23Z</time>
      </trkpt>
      <trkpt lat="46.70316" lon="5.56905">
        <ele>338.04</ele>
        <time>2014-08-04T07:21:33Z</time>
      </trkpt>
      <trkpt lat="46.70343" lon="5.56932">
        <ele>338.52</ele>
        <time>2014-08-04T07:21:45Z</time>
      </trkpt>
      <trkpt lat="46.70368" lon="5.5696">
        <ele>339</ele>
        <time>2014-08-04T07:21:55Z</time>
      </trkpt>
      <trkpt lat="46.70419" lon="5.57033">
        <ele>340.92</ele>
        <time>2014-08-04T07:22:15Z</time>
      </trkpt>
      <trkpt lat="46.7046" lon="5.5713">
        <ele>342.37</ele>
        <time>2014-08-04T07:22:37Z</time>
      </trkpt>
      <trkpt lat="46.70485" lon="5.57235">
        <ele>344.29</ele>
        <time>2014-08-04T07:22:58Z</time>
      </trkpt>
      <trkpt lat="46.70496" lon="5.57321">
        <ele>345.73</ele>
        <time>2014-08-04T07:23:15Z</time>
      </trkpt>
      <trkpt lat="46.70517" lon="5.5743">
        <ele>347.17</ele>
        <time>2014-08-04T07:23:36Z</time>
      </trkpt>
      <trkpt lat="46.70544" lon="5.5751">
        <ele>347.17</ele>
        <time>2014-08-04T07:23:52Z</time>
      </trkpt>
      <trkpt lat="46.70561" lon="5.57544">
        <ele>347.65</ele>
        <time>2014-08-04T07:24:02Z</time>
      </trkpt>
      <trkpt lat="46.70562" lon="5.57546">
        <ele>347.65</ele>
        <time>2014-08-04T07:24:03Z</time>
      </trkpt>
      <trkpt lat="46.70567" lon="5.57544">
        <ele>347.17</ele>
        <time>2014-08-04T07:24:13Z</time>
      </trkpt>
      <trkpt lat="46.70565" lon="5.57553">
        <ele>347.17</ele>
        <time>2014-08-04T07:24:22Z</time>
      </trkpt>
      <trkpt lat="46.70569" lon="5.57561">
        <ele>347.65</ele>
        <time>2014-08-04T07:24:28Z</time>
      </trkpt>
      <trkpt lat="46.70569" lon="5.57557">
        <ele>347.65</ele>
        <time>2014-08-04T07:24:32Z</time>
      </trkpt>
      <trkpt lat="46.70565" lon="5.57554">
        <ele>347.65</ele>
        <time>2014-08-04T07:24:35Z</time>
      </trkpt>
      <trkpt lat="46.70561" lon="5.57543">
        <ele>347.17</ele>
        <time>2014-08-04T07:24:40Z</time>
      </trkpt>
      <trkpt lat="46.70559" lon="5.57542">
        <ele>347.65</ele>
        <time>2014-08-04T07:24:51Z</time>
      </trkpt>
      <trkpt lat="46.70559" lon="5.57542">
        <ele>347.65</ele>
        <time>2014-08-04T07:25:18Z</time>
      </trkpt>
      <trkpt lat="46.70559" lon="5.57542">
        <ele>347.65</ele>
        <time>2014-08-04T07:25:45Z</time>
      </trkpt>
      <trkpt lat="46.70559" lon="5.57542">
        <ele>347.65</ele>
        <time>2014-08-04T07:25:47Z</time>
      </trkpt>
      <trkpt lat="46.70566" lon="5.57556">
        <ele>347.65</ele>
        <time>2014-08-04T07:25:54Z</time>
      </trkpt>
      <trkpt lat="46.70568" lon="5.57547">
        <ele>347.65</ele>
        <time>2014-08-04T07:26:01Z</time>
      </trkpt>
      <trkpt lat="46.70569" lon="5.57563">
        <ele>347.65</ele>
        <time>2014-08-04T07:26:08Z</time>
      </trkpt>
      <trkpt lat="46.70606" lon="5.57641">
        <ele>347.17</ele>
        <time>2014-08-04T07:26:26Z</time>
      </trkpt>
      <trkpt lat="46.70642" lon="5.57748">
        <ele>346.21</ele>
        <time>2014-08-04T07:26:44Z</time>
      </trkpt>
      <trkpt lat="46.7066" lon="5.57802">
        <ele>345.25</ele>
        <time>2014-08-04T07:26:52Z</time>
      </trkpt>
      <trkpt lat="46.70731" lon="5.5793">
        <ele>342.85</ele>
        <time>2014-08-04T07:27:11Z</time>
      </trkpt>
      <trkpt lat="46.70818" lon="5.58028">
        <ele>339.48</ele>
        <time>2014-08-04T07:27:27Z</time>
      </trkpt>
      <trkpt lat="46.70892" lon="5.58099">
        <ele>336.12</ele>
        <time>2014-08-04T07:27:39Z</time>
      </trkpt>
      <trkpt lat="46.70899" lon="5.58104">
        <ele>336.12</ele>
        <time>2014-08-04T07:27:40Z</time>
      </trkpt>
      <trkpt lat="46.7096" lon="5.58146">
        <ele>332.27</ele>
        <time>2014-08-04T07:27:48Z</time>
      </trkpt>
      <trkpt lat="46.70969" lon="5.58152">
        <ele>332.27</ele>
        <time>2014-08-04T07:27:49Z</time>
      </trkpt>
      <trkpt lat="46.70993" lon="5.58168">
        <ele>330.83</ele>
        <time>2014-08-04T07:27:52Z</time>
      </trkpt>
      <trkpt lat="46.71044" lon="5.58202">
        <ele>327.47</ele>
        <time>2014-08-04T07:27:58Z</time>
      </trkpt>
      <trkpt lat="46.71121" lon="5.58257">
        <ele>324.1</ele>
        <time>2014-08-04T07:28:07Z</time>
      </trkpt>
      <trkpt lat="46.7122" lon="5.58337">
        <ele>323.62</ele>
        <time>2014-08-04T07:28:22Z</time>
      </trkpt>
      <trkpt lat="46.71348" lon="5.58425">
        <ele>321.22</ele>
        <time>2014-08-04T07:28:43Z</time>
      </trkpt>
      <trkpt lat="46.71424" lon="5.58475">
        <ele>318.33</ele>
        <time>2014-08-04T07:28:54Z</time>
      </trkpt>
      <trkpt lat="46.71485" lon="5.58516">
        <ele>314.97</ele>
        <time>2014-08-04T07:29:02Z</time>
      </trkpt>
      <trkpt lat="46.71522" lon="5.58542">
        <ele>314.49</ele>
        <time>2014-08-04T07:29:07Z</time>
      </trkpt>
      <trkpt lat="46.71629" lon="5.58584">
        <ele>314.97</ele>
        <time>2014-08-04T07:29:23Z</time>
      </trkpt>
      <trkpt lat="46.71712" lon="5.58657">
        <ele>314.01</ele>
        <time>2014-08-04T07:29:39Z</time>
      </trkpt>
      <trkpt lat="46.71785" lon="5.58684">
        <ele>311.12</ele>
        <time>2014-08-04T07:29:49Z</time>
      </trkpt>
      <trkpt lat="46.71847" lon="5.58703">
        <ele>307.76</ele>
        <time>2014-08-04T07:29:56Z</time>
      </trkpt>
      <trkpt lat="46.71874" lon="5.58714">
        <ele>306.32</ele>
        <time>2014-08-04T07:29:59Z</time>
      </trkpt>
      <trkpt lat="46.71902" lon="5.58727">
        <ele>305.36</ele>
        <time>2014-08-04T07:30:02Z</time>
      </trkpt>
      <trkpt lat="46.71968" lon="5.58758">
        <ele>301.51</ele>
        <time>2014-08-04T07:30:09Z</time>
      </trkpt>
      <trkpt lat="46.71987" lon="5.58765">
        <ele>301.03</ele>
        <time>2014-08-04T07:30:11Z</time>
      </trkpt>
      <trkpt lat="46.72072" lon="5.58799">
        <ele>297.67</ele>
        <time>2014-08-04T07:30:20Z</time>
      </trkpt>
      <trkpt lat="46.72193" lon="5.58847">
        <ele>296.7</ele>
        <time>2014-08-04T07:30:36Z</time>
      </trkpt>
      <trkpt lat="46.72307" lon="5.58893">
        <ele>296.22</ele>
        <time>2014-08-04T07:30:54Z</time>
      </trkpt>
      <trkpt lat="46.72429" lon="5.58936">
        <ele>293.82</ele>
        <time>2014-08-04T07:31:13Z</time>
      </trkpt>
      <trkpt lat="46.7251" lon="5.58959">
        <ele>290.94</ele>
        <time>2014-08-04T07:31:24Z</time>
      </trkpt>
      <trkpt lat="46.72581" lon="5.5898">
        <ele>287.57</ele>
        <time>2014-08-04T07:31:33Z</time>
      </trkpt>
      <trkpt lat="46.72668" lon="5.59006">
        <ele>284.69</ele>
        <time>2014-08-04T07:31:44Z</time>
      </trkpt>
      <trkpt lat="46.72754" lon="5.59031">
        <ele>281.32</ele>
        <time>2014-08-04T07:31:55Z</time>
      </trkpt>
      <trkpt lat="46.72848" lon="5.59084">
        <ele>279.4</ele>
        <time>2014-08-04T07:32:08Z</time>
      </trkpt>
      <trkpt lat="46.72918" lon="5.59133">
        <ele>281.8</ele>
        <time>2014-08-04T07:32:22Z</time>
      </trkpt>
      <trkpt lat="46.72926" lon="5.59138">
        <ele>281.8</ele>
        <time>2014-08-04T07:32:24Z</time>
      </trkpt>
      <trkpt lat="46.72997" lon="5.59189">
        <ele>284.21</ele>
        <time>2014-08-04T07:32:44Z</time>
      </trkpt>
      <trkpt lat="46.73059" lon="5.59235">
        <ele>287.09</ele>
        <time>2014-08-04T07:33:04Z</time>
      </trkpt>
      <trkpt lat="46.73124" lon="5.59283">
        <ele>288.53</ele>
        <time>2014-08-04T07:33:24Z</time>
      </trkpt>
      <trkpt lat="46.73186" lon="5.59322">
        <ele>289.49</ele>
        <time>2014-08-04T07:33:43Z</time>
      </trkpt>
      <trkpt lat="46.73227" lon="5.59344">
        <ele>291.42</ele>
        <time>2014-08-04T07:33:58Z</time>
      </trkpt>
      <trkpt lat="46.73252" lon="5.59359">
        <ele>292.38</ele>
        <time>2014-08-04T07:34:09Z</time>
      </trkpt>
      <trkpt lat="46.7329" lon="5.5938">
        <ele>294.78</ele>
        <time>2014-08-04T07:34:25Z</time>
      </trkpt>
      <trkpt lat="46.73322" lon="5.59402">
        <ele>296.22</ele>
        <time>2014-08-04T07:34:40Z</time>
      </trkpt>
      <trkpt lat="46.73325" lon="5.59403">
        <ele>296.22</ele>
        <time>2014-08-04T07:34:51Z</time>
      </trkpt>
      <trkpt lat="46.73325" lon="5.59403">
        <ele>296.22</ele>
        <time>2014-08-04T07:35:24Z</time>
      </trkpt>
      <trkpt lat="46.73325" lon="5.59402">
        <ele>296.22</ele>
        <time>2014-08-04T07:35:49Z</time>
      </trkpt>
      <trkpt lat="46.73325" lon="5.59402">
        <ele>296.22</ele>
        <time>2014-08-04T07:36:18Z</time>
      </trkpt>
      <trkpt lat="46.73325" lon="5.59403">
        <ele>296.22</ele>
        <time>2014-08-04T07:36:36Z</time>
      </trkpt>
      <trkpt lat="46.73326" lon="5.59403">
        <ele>296.22</ele>
        <time>2014-08-04T07:37:09Z</time>
      </trkpt>
      <trkpt lat="46.73328" lon="5.59401">
        <ele>296.22</ele>
        <time>2014-08-04T07:37:20Z</time>
      </trkpt>
      <trkpt lat="46.73349" lon="5.59409">
        <ele>297.18</ele>
        <time>2014-08-04T07:37:31Z</time>
      </trkpt>
      <trkpt lat="46.73374" lon="5.59426">
        <ele>298.15</ele>
        <time>2014-08-04T07:37:42Z</time>
      </trkpt>
      <trkpt lat="46.73415" lon="5.59452">
        <ele>300.07</ele>
        <time>2014-08-04T07:37:57Z</time>
      </trkpt>
      <trkpt lat="46.7347" lon="5.59481">
        <ele>301.99</ele>
        <time>2014-08-04T07:38:15Z</time>
      </trkpt>
      <trkpt lat="46.73536" lon="5.59519">
        <ele>303.43</ele>
        <time>2014-08-04T07:38:35Z</time>
      </trkpt>
      <trkpt lat="46.73608" lon="5.59567">
        <ele>304.88</ele>
        <time>2014-08-04T07:38:56Z</time>
      </trkpt>
      <trkpt lat="46.73688" lon="5.59619">
        <ele>305.84</ele>
        <time>2014-08-04T07:39:18Z</time>
      </trkpt>
      <trkpt lat="46.73747" lon="5.59657">
        <ele>305.36</ele>
        <time>2014-08-04T07:39:33Z</time>
      </trkpt>
      <trkpt lat="46.73827" lon="5.59714">
        <ele>304.39</ele>
        <time>2014-08-04T07:39:50Z</time>
      </trkpt>
      <trkpt lat="46.73934" lon="5.59791">
        <ele>301.51</ele>
        <time>2014-08-04T07:40:09Z</time>
      </trkpt>
      <trkpt lat="46.74005" lon="5.59845">
        <ele>298.15</ele>
        <time>2014-08-04T07:40:20Z</time>
      </trkpt>
      <trkpt lat="46.74088" lon="5.59919">
        <ele>294.78</ele>
        <time>2014-08-04T07:40:32Z</time>
      </trkpt>
      <trkpt lat="46.74205" lon="5.60022">
        <ele>292.38</ele>
        <time>2014-08-04T07:40:50Z</time>
      </trkpt>
      <trkpt lat="46.74315" lon="5.60125">
        <ele>290.94</ele>
        <time>2014-08-04T07:41:10Z</time>
      </trkpt>
      <trkpt lat="46.74407" lon="5.60229">
        <ele>289.97</ele>
        <time>2014-08-04T07:41:29Z</time>
      </trkpt>
      <trkpt lat="46.7451" lon="5.60349">
        <ele>288.05</ele>
        <time>2014-08-04T07:41:50Z</time>
      </trkpt>
      <trkpt lat="46.74598" lon="5.60456">
        <ele>285.65</ele>
        <time>2014-08-04T07:42:07Z</time>
      </trkpt>
      <trkpt lat="46.74701" lon="5.60546">
        <ele>282.28</ele>
        <time>2014-08-04T07:42:24Z</time>
      </trkpt>
      <trkpt lat="46.74802" lon="5.60619">
        <ele>278.92</ele>
        <time>2014-08-04T07:42:39Z</time>
      </trkpt>
      <trkpt lat="46.74865" lon="5.60665">
        <ele>276.04</ele>
        <time>2014-08-04T07:42:48Z</time>
      </trkpt>
      <trkpt lat="46.74987" lon="5.60756">
        <ele>272.67</ele>
        <time>2014-08-04T07:43:06Z</time>
      </trkpt>
      <trkpt lat="46.75092" lon="5.60835">
        <ele>271.71</ele>
        <time>2014-08-04T07:43:24Z</time>
      </trkpt>
      <trkpt lat="46.7518" lon="5.609">
        <ele>271.23</ele>
        <time>2014-08-04T07:43:40Z</time>
      </trkpt>
      <trkpt lat="46.7526" lon="5.60964">
        <ele>269.79</ele>
        <time>2014-08-04T07:43:57Z</time>
      </trkpt>
      <trkpt lat="46.75274" lon="5.6099">
        <ele>268.83</ele>
        <time>2014-08-04T07:44:07Z</time>
      </trkpt>
      <trkpt lat="46.75274" lon="5.6099">
        <ele>268.83</ele>
        <time>2014-08-04T07:44:31Z</time>
      </trkpt>
      <trkpt lat="46.75275" lon="5.60991">
        <ele>268.83</ele>
        <time>2014-08-04T07:44:57Z</time>
      </trkpt>
      <trkpt lat="46.75274" lon="5.60992">
        <ele>268.35</ele>
        <time>2014-08-04T07:45:06Z</time>
      </trkpt>
      <trkpt lat="46.75272" lon="5.60995">
        <ele>268.83</ele>
        <time>2014-08-04T07:45:15Z</time>
      </trkpt>
      <trkpt lat="46.7527" lon="5.60997">
        <ele>268.83</ele>
        <time>2014-08-04T07:45:17Z</time>
      </trkpt>
      <trkpt lat="46.75266" lon="5.61004">
        <ele>269.31</ele>
        <time>2014-08-04T07:45:21Z</time>
      </trkpt>
      <trkpt lat="46.75247" lon="5.61027">
        <ele>269.79</ele>
        <time>2014-08-04T07:45:33Z</time>
      </trkpt>
      <trkpt lat="46.75222" lon="5.61052">
        <ele>270.75</ele>
        <time>2014-08-04T07:45:44Z</time>
      </trkpt>
      <trkpt lat="46.75211" lon="5.61067">
        <ele>269.79</ele>
        <time>2014-08-04T07:45:48Z</time>
      </trkpt>
      <trkpt lat="46.752" lon="5.61101">
        <ele>268.35</ele>
        <time>2014-08-04T07:45:53Z</time>
      </trkpt>
      <trkpt lat="46.7517" lon="5.61175">
        <ele>265.94</ele>
        <time>2014-08-04T07:46:02Z</time>
      </trkpt>
      <trkpt lat="46.75137" lon="5.61252">
        <ele>265.94</ele>
        <time>2014-08-04T07:46:14Z</time>
      </trkpt>
      <trkpt lat="46.75106" lon="5.61329">
        <ele>265.46</ele>
        <time>2014-08-04T07:46:28Z</time>
      </trkpt>
      <trkpt lat="46.75111" lon="5.61336">
        <ele>264.5</ele>
        <time>2014-08-04T07:46:36Z</time>
      </trkpt>
      <trkpt lat="46.75111" lon="5.61335">
        <ele>264.5</ele>
        <time>2014-08-04T07:46:37Z</time>
      </trkpt>
      <trkpt lat="46.75127" lon="5.61307">
        <ele>264.02</ele>
        <time>2014-08-04T07:46:47Z</time>
      </trkpt>
      <trkpt lat="46.75153" lon="5.6127">
        <ele>262.1</ele>
        <time>2014-08-04T07:46:55Z</time>
      </trkpt>
      <trkpt lat="46.75171" lon="5.61259">
        <ele>261.14</ele>
        <time>2014-08-04T07:46:59Z</time>
      </trkpt>
      <trkpt lat="46.75189" lon="5.61256">
        <ele>261.14</ele>
        <time>2014-08-04T07:47:03Z</time>
      </trkpt>
      <trkpt lat="46.75211" lon="5.61247">
        <ele>261.14</ele>
        <time>2014-08-04T07:47:08Z</time>
      </trkpt>
      <trkpt lat="46.75247" lon="5.6121">
        <ele>260.65</ele>
        <time>2014-08-04T07:47:18Z</time>
      </trkpt>
      <trkpt lat="46.75253" lon="5.61199">
        <ele>260.65</ele>
        <time>2014-08-04T07:47:20Z</time>
      </trkpt>
      <trkpt lat="46.75273" lon="5.61161">
        <ele>259.69</ele>
        <time>2014-08-04T07:47:27Z</time>
      </trkpt>
      <trkpt lat="46.75312" lon="5.61144">
        <ele>259.69</ele>
        <time>2014-08-04T07:47:38Z</time>
      </trkpt>
      <trkpt lat="46.75352" lon="5.61166">
        <ele>259.69</ele>
        <time>2014-08-04T07:47:46Z</time>
      </trkpt>
      <trkpt lat="46.75366" lon="5.61175">
        <ele>259.69</ele>
        <time>2014-08-04T07:47:49Z</time>
      </trkpt>
      <trkpt lat="46.7541" lon="5.61246">
        <ele>260.17</ele>
        <time>2014-08-04T07:48:04Z</time>
      </trkpt>
      <trkpt lat="46.75422" lon="5.61263">
        <ele>259.69</ele>
        <time>2014-08-04T07:48:10Z</time>
      </trkpt>
      <trkpt lat="46.75457" lon="5.61242">
        <ele>259.69</ele>
        <time>2014-08-04T07:48:21Z</time>
      </trkpt>
      <trkpt lat="46.75489" lon="5.61202">
        <ele>258.73</ele>
        <time>2014-08-04T07:48:31Z</time>
      </trkpt>
      <trkpt lat="46.75534" lon="5.61173">
        <ele>258.73</ele>
        <time>2014-08-04T07:48:44Z</time>
      </trkpt>
      <trkpt lat="46.7555" lon="5.6119">
        <ele>258.25</ele>
        <time>2014-08-04T07:48:49Z</time>
      </trkpt>
      <trkpt lat="46.7556" lon="5.61209">
        <ele>257.77</ele>
        <time>2014-08-04T07:48:53Z</time>
      </trkpt>
      <trkpt lat="46.75578" lon="5.61229">
        <ele>257.77</ele>
        <time>2014-08-04T07:48:58Z</time>
      </trkpt>
      <trkpt lat="46.75588" lon="5.61242">
        <ele>257.77</ele>
        <time>2014-08-04T07:49:01Z</time>
      </trkpt>
      <trkpt lat="46.75599" lon="5.61266">
        <ele>257.29</ele>
        <time>2014-08-04T07:49:06Z</time>
      </trkpt>
      <trkpt lat="46.75629" lon="5.61286">
        <ele>257.29</ele>
        <time>2014-08-04T07:49:12Z</time>
      </trkpt>
      <trkpt lat="46.75658" lon="5.61334">
        <ele>256.81</ele>
        <time>2014-08-04T07:49:21Z</time>
      </trkpt>
      <trkpt lat="46.75675" lon="5.61359">
        <ele>256.81</ele>
        <time>2014-08-04T07:49:26Z</time>
      </trkpt>
      <trkpt lat="46.75727" lon="5.6146">
        <ele>255.85</ele>
        <time>2014-08-04T07:49:43Z</time>
      </trkpt>
      <trkpt lat="46.75743" lon="5.61488">
        <ele>256.33</ele>
        <time>2014-08-04T07:49:48Z</time>
      </trkpt>
      <trkpt lat="46.75762" lon="5.61516">
        <ele>256.81</ele>
        <time>2014-08-04T07:49:54Z</time>
      </trkpt>
      <trkpt lat="46.75788" lon="5.61558">
        <ele>256.33</ele>
        <time>2014-08-04T07:50:04Z</time>
      </trkpt>
      <trkpt lat="46.75814" lon="5.61584">
        <ele>255.85</ele>
        <time>2014-08-04T07:50:11Z</time>
      </trkpt>
      <trkpt lat="46.75829" lon="5.61601">
        <ele>255.85</ele>
        <time>2014-08-04T07:50:15Z</time>
      </trkpt>
      <trkpt lat="46.75858" lon="5.61661">
        <ele>257.29</ele>
        <time>2014-08-04T07:50:29Z</time>
      </trkpt>
      <trkpt lat="46.75877" lon="5.61703">
        <ele>259.69</ele>
        <time>2014-08-04T07:50:43Z</time>
      </trkpt>
      <trkpt lat="46.7589" lon="5.61743">
        <ele>262.1</ele>
        <time>2014-08-04T07:50:58Z</time>
      </trkpt>
      <trkpt lat="46.75888" lon="5.6179">
        <ele>264.5</ele>
        <time>2014-08-04T07:51:15Z</time>
      </trkpt>
      <trkpt lat="46.75867" lon="5.61804">
        <ele>265.94</ele>
        <time>2014-08-04T07:51:27Z</time>
      </trkpt>
      <trkpt lat="46.75837" lon="5.61809">
        <ele>267.38</ele>
        <time>2014-08-04T07:51:40Z</time>
      </trkpt>
      <trkpt lat="46.75811" lon="5.6181">
        <ele>269.31</ele>
        <time>2014-08-04T07:51:53Z</time>
      </trkpt>
      <trkpt lat="46.75783" lon="5.61812">
        <ele>270.75</ele>
        <time>2014-08-04T07:52:06Z</time>
      </trkpt>
      <trkpt lat="46.75754" lon="5.61809">
        <ele>272.19</ele>
        <time>2014-08-04T07:52:19Z</time>
      </trkpt>
      <trkpt lat="46.75716" lon="5.61807">
        <ele>274.11</ele>
        <time>2014-08-04T07:52:36Z</time>
      </trkpt>
      <trkpt lat="46.75683" lon="5.61807">
        <ele>276.04</ele>
        <time>2014-08-04T07:52:51Z</time>
      </trkpt>
      <trkpt lat="46.75638" lon="5.61817">
        <ele>277.48</ele>
        <time>2014-08-04T07:53:09Z</time>
      </trkpt>
      <trkpt lat="46.75596" lon="5.61827">
        <ele>279.4</ele>
        <time>2014-08-04T07:53:27Z</time>
      </trkpt>
      <trkpt lat="46.75581" lon="5.61861">
        <ele>280.84</ele>
        <time>2014-08-04T07:53:41Z</time>
      </trkpt>
      <trkpt lat="46.75609" lon="5.61867">
        <ele>281.8</ele>
        <time>2014-08-04T07:53:54Z</time>
      </trkpt>
      <trkpt lat="46.75652" lon="5.61852">
        <ele>283.25</ele>
        <time>2014-08-04T07:54:12Z</time>
      </trkpt>
      <trkpt lat="46.757" lon="5.61856">
        <ele>285.65</ele>
        <time>2014-08-04T07:54:32Z</time>
      </trkpt>
      <trkpt lat="46.75732" lon="5.61889">
        <ele>287.57</ele>
        <time>2014-08-04T07:54:48Z</time>
      </trkpt>
      <trkpt lat="46.75766" lon="5.61929">
        <ele>289.97</ele>
        <time>2014-08-04T07:55:07Z</time>
      </trkpt>
      <trkpt lat="46.75795" lon="5.61985">
        <ele>292.38</ele>
        <time>2014-08-04T07:55:28Z</time>
      </trkpt>
      <trkpt lat="46.75815" lon="5.62044">
        <ele>294.78</ele>
        <time>2014-08-04T07:55:48Z</time>
      </trkpt>
      <trkpt lat="46.75829" lon="5.62102">
        <ele>296.7</ele>
        <time>2014-08-04T07:56:07Z</time>
      </trkpt>
      <trkpt lat="46.75843" lon="5.62156">
        <ele>298.63</ele>
        <time>2014-08-04T07:56:25Z</time>
      </trkpt>
      <trkpt lat="46.75857" lon="5.62208">
        <ele>300.55</ele>
        <time>2014-08-04T07:56:43Z</time>
      </trkpt>
      <trkpt lat="46.75867" lon="5.62233">
        <ele>301.99</ele>
        <time>2014-08-04T07:56:56Z</time>
      </trkpt>
      <trkpt lat="46.75867" lon="5.62233">
        <ele>301.99</ele>
        <time>2014-08-04T07:57:20Z</time>
      </trkpt>
      <trkpt lat="46.75867" lon="5.62233">
        <ele>301.99</ele>
        <time>2014-08-04T07:57:49Z</time>
      </trkpt>
      <trkpt lat="46.75867" lon="5.62238">
        <ele>302.47</ele>
        <time>2014-08-04T07:58:08Z</time>
      </trkpt>
      <trkpt lat="46.75875" lon="5.62292">
        <ele>304.39</ele>
        <time>2014-08-04T07:58:24Z</time>
      </trkpt>
      <trkpt lat="46.75886" lon="5.62361">
        <ele>307.28</ele>
        <time>2014-08-04T07:58:43Z</time>
      </trkpt>
      <trkpt lat="46.75895" lon="5.62438">
        <ele>310.16</ele>
        <time>2014-08-04T07:59:04Z</time>
      </trkpt>
      <trkpt lat="46.75901" lon="5.62516">
        <ele>313.05</ele>
        <time>2014-08-04T07:59:24Z</time>
      </trkpt>
      <trkpt lat="46.75906" lon="5.62564">
        <ele>314.49</ele>
        <time>2014-08-04T07:59:37Z</time>
      </trkpt>
      <trkpt lat="46.75912" lon="5.62621">
        <ele>317.37</ele>
        <time>2014-08-04T07:59:53Z</time>
      </trkpt>
      <trkpt lat="46.75916" lon="5.6267">
        <ele>319.3</ele>
        <time>2014-08-04T08:00:06Z</time>
      </trkpt>
      <trkpt lat="46.75923" lon="5.6272">
        <ele>321.22</ele>
        <time>2014-08-04T08:00:20Z</time>
      </trkpt>
      <trkpt lat="46.75936" lon="5.62782">
        <ele>323.62</ele>
        <time>2014-08-04T08:00:37Z</time>
      </trkpt>
      <trkpt lat="46.75959" lon="5.62832">
        <ele>326.02</ele>
        <time>2014-08-04T08:00:52Z</time>
      </trkpt>
      <trkpt lat="46.75985" lon="5.62893">
        <ele>328.91</ele>
        <time>2014-08-04T08:01:11Z</time>
      </trkpt>
      <trkpt lat="46.75991" lon="5.62949">
        <ele>330.83</ele>
        <time>2014-08-04T08:01:26Z</time>
      </trkpt>
      <trkpt lat="46.76002" lon="5.63006">
        <ele>333.23</ele>
        <time>2014-08-04T08:01:42Z</time>
      </trkpt>
      <trkpt lat="46.76022" lon="5.63064">
        <ele>335.64</ele>
        <time>2014-08-04T08:02:00Z</time>
      </trkpt>
      <trkpt lat="46.76051" lon="5.63113">
        <ele>337.56</ele>
        <time>2014-08-04T08:02:17Z</time>
      </trkpt>
      <trkpt lat="46.76082" lon="5.63169">
        <ele>339</ele>
        <time>2014-08-04T08:02:35Z</time>
      </trkpt>
      <trkpt lat="46.76091" lon="5.63229">
        <ele>341.41</ele>
        <time>2014-08-04T08:02:51Z</time>
      </trkpt>
      <trkpt lat="46.7612" lon="5.6327">
        <ele>342.37</ele>
        <time>2014-08-04T08:03:06Z</time>
      </trkpt>
      <trkpt lat="46.76162" lon="5.63298">
        <ele>344.29</ele>
        <time>2014-08-04T08:03:23Z</time>
      </trkpt>
      <trkpt lat="46.76211" lon="5.63326">
        <ele>346.21</ele>
        <time>2014-08-04T08:03:42Z</time>
      </trkpt>
      <trkpt lat="46.76241" lon="5.63367">
        <ele>348.62</ele>
        <time>2014-08-04T08:03:58Z</time>
      </trkpt>
      <trkpt lat="46.76277" lon="5.63406">
        <ele>350.06</ele>
        <time>2014-08-04T08:04:16Z</time>
      </trkpt>
      <trkpt lat="46.76303" lon="5.63469">
        <ele>351.5</ele>
        <time>2014-08-04T08:04:33Z</time>
      </trkpt>
      <trkpt lat="46.76325" lon="5.63519">
        <ele>352.94</ele>
        <time>2014-08-04T08:04:48Z</time>
      </trkpt>
      <trkpt lat="46.76339" lon="5.63556">
        <ele>354.86</ele>
        <time>2014-08-04T08:05:01Z</time>
      </trkpt>
      <trkpt lat="46.7636" lon="5.63597">
        <ele>356.79</ele>
        <time>2014-08-04T08:05:15Z</time>
      </trkpt>
      <trkpt lat="46.76397" lon="5.63616">
        <ele>358.71</ele>
        <time>2014-08-04T08:05:30Z</time>
      </trkpt>
      <trkpt lat="46.76424" lon="5.63618">
        <ele>359.67</ele>
        <time>2014-08-04T08:05:40Z</time>
      </trkpt>
      <trkpt lat="46.76468" lon="5.63624">
        <ele>361.59</ele>
        <time>2014-08-04T08:05:57Z</time>
      </trkpt>
      <trkpt lat="46.76502" lon="5.6363">
        <ele>363.04</ele>
        <time>2014-08-04T08:06:12Z</time>
      </trkpt>
      <trkpt lat="46.76521" lon="5.63662">
        <ele>364.96</ele>
        <time>2014-08-04T08:06:25Z</time>
      </trkpt>
      <trkpt lat="46.76503" lon="5.63686">
        <ele>366.4</ele>
        <time>2014-08-04T08:06:36Z</time>
      </trkpt>
      <trkpt lat="46.76477" lon="5.63692">
        <ele>367.36</ele>
        <time>2014-08-04T08:06:47Z</time>
      </trkpt>
      <trkpt lat="46.76446" lon="5.63702">
        <ele>369.28</ele>
        <time>2014-08-04T08:07:01Z</time>
      </trkpt>
      <trkpt lat="46.76421" lon="5.637">
        <ele>370.73</ele>
        <time>2014-08-04T08:07:13Z</time>
      </trkpt>
      <trkpt lat="46.76393" lon="5.63684">
        <ele>372.65</ele>
        <time>2014-08-04T08:07:26Z</time>
      </trkpt>
      <trkpt lat="46.7637" lon="5.63661">
        <ele>374.09</ele>
        <time>2014-08-04T08:07:38Z</time>
      </trkpt>
      <trkpt lat="46.76343" lon="5.63629">
        <ele>376.49</ele>
        <time>2014-08-04T08:07:54Z</time>
      </trkpt>
      <trkpt lat="46.76315" lon="5.63611">
        <ele>377.94</ele>
        <time>2014-08-04T08:08:08Z</time>
      </trkpt>
      <trkpt lat="46.76313" lon="5.63609">
        <ele>378.42</ele>
        <time>2014-08-04T08:08:10Z</time>
      </trkpt>
      <trkpt lat="46.76301" lon="5.63604">
        <ele>378.9</ele>
        <time>2014-08-04T08:08:17Z</time>
      </trkpt>
      <trkpt lat="46.76294" lon="5.636">
        <ele>379.86</ele>
        <time>2014-08-04T08:08:22Z</time>
      </trkpt>
      <trkpt lat="46.76274" lon="5.63585">
        <ele>381.78</ele>
        <time>2014-08-04T08:08:36Z</time>
      </trkpt>
      <trkpt lat="46.7625" lon="5.63562">
        <ele>382.74</ele>
        <time>2014-08-04T08:08:47Z</time>
      </trkpt>
      <trkpt lat="46.76214" lon="5.63521">
        <ele>384.66</ele>
        <time>2014-08-04T08:09:00Z</time>
      </trkpt>
      <trkpt lat="46.76184" lon="5.63477">
        <ele>386.11</ele>
        <time>2014-08-04T08:09:17Z</time>
      </trkpt>
      <trkpt lat="46.76136" lon="5.6345">
        <ele>387.07</ele>
        <time>2014-08-04T08:09:34Z</time>
      </trkpt>
      <trkpt lat="46.76094" lon="5.63429">
        <ele>388.51</ele>
        <time>2014-08-04T08:09:49Z</time>
      </trkpt>
      <trkpt lat="46.76054" lon="5.6342">
        <ele>390.91</ele>
        <time>2014-08-04T08:10:04Z</time>
      </trkpt>
      <trkpt lat="46.76004" lon="5.63418">
        <ele>392.36</ele>
        <time>2014-08-04T08:10:22Z</time>
      </trkpt>
      <trkpt lat="46.75972" lon="5.63407">
        <ele>393.8</ele>
        <time>2014-08-04T08:10:34Z</time>
      </trkpt>
      <trkpt lat="46.7593" lon="5.63367">
        <ele>396.68</ele>
        <time>2014-08-04T08:10:51Z</time>
      </trkpt>
      <trkpt lat="46.75903" lon="5.63339">
        <ele>398.6</ele>
        <time>2014-08-04T08:11:04Z</time>
      </trkpt>
      <trkpt lat="46.75867" lon="5.63305">
        <ele>401.49</ele>
        <time>2014-08-04T08:11:20Z</time>
      </trkpt>
      <trkpt lat="46.75837" lon="5.63279">
        <ele>403.89</ele>
        <time>2014-08-04T08:11:35Z</time>
      </trkpt>
      <trkpt lat="46.75811" lon="5.63256">
        <ele>405.81</ele>
        <time>2014-08-04T08:11:48Z</time>
      </trkpt>
      <trkpt lat="46.75783" lon="5.63242">
        <ele>407.74</ele>
        <time>2014-08-04T08:12:02Z</time>
      </trkpt>
      <trkpt lat="46.75764" lon="5.6323">
        <ele>409.18</ele>
        <time>2014-08-04T08:12:14Z</time>
      </trkpt>
      <trkpt lat="46.75742" lon="5.63207">
        <ele>410.62</ele>
        <time>2014-08-04T08:12:26Z</time>
      </trkpt>
      <trkpt lat="46.75708" lon="5.63173">
        <ele>413.02</ele>
        <time>2014-08-04T08:12:39Z</time>
      </trkpt>
      <trkpt lat="46.75685" lon="5.63134">
        <ele>415.43</ele>
        <time>2014-08-04T08:12:53Z</time>
      </trkpt>
      <trkpt lat="46.75668" lon="5.63097">
        <ele>417.35</ele>
        <time>2014-08-04T08:13:04Z</time>
      </trkpt>
      <trkpt lat="46.75651" lon="5.63045">
        <ele>417.83</ele>
        <time>2014-08-04T08:13:17Z</time>
      </trkpt>
      <trkpt lat="46.75633" lon="5.62999">
        <ele>419.75</ele>
        <time>2014-08-04T08:13:31Z</time>
      </trkpt>
      <trkpt lat="46.75616" lon="5.62967">
        <ele>421.68</ele>
        <time>2014-08-04T08:13:43Z</time>
      </trkpt>
      <trkpt lat="46.75596" lon="5.62925">
        <ele>423.6</ele>
        <time>2014-08-04T08:13:57Z</time>
      </trkpt>
      <trkpt lat="46.75585" lon="5.6289">
        <ele>425.04</ele>
        <time>2014-08-04T08:14:07Z</time>
      </trkpt>
      <trkpt lat="46.7558" lon="5.62846">
        <ele>427.44</ele>
        <time>2014-08-04T08:14:19Z</time>
      </trkpt>
      <trkpt lat="46.75582" lon="5.62786">
        <ele>429.37</ele>
        <time>2014-08-04T08:14:33Z</time>
      </trkpt>
      <trkpt lat="46.75593" lon="5.62733">
        <ele>432.25</ele>
        <time>2014-08-04T08:14:48Z</time>
      </trkpt>
      <trkpt lat="46.75612" lon="5.62705">
        <ele>434.17</ele>
        <time>2014-08-04T08:15:00Z</time>
      </trkpt>
      <trkpt lat="46.75647" lon="5.62706">
        <ele>436.58</ele>
        <time>2014-08-04T08:15:14Z</time>
      </trkpt>
      <trkpt lat="46.75693" lon="5.62713">
        <ele>438.5</ele>
        <time>2014-08-04T08:15:31Z</time>
      </trkpt>
      <trkpt lat="46.75724" lon="5.62702">
        <ele>440.9</ele>
        <time>2014-08-04T08:15:44Z</time>
      </trkpt>
      <trkpt lat="46.75736" lon="5.62685">
        <ele>441.38</ele>
        <time>2014-08-04T08:15:56Z</time>
      </trkpt>
      <trkpt lat="46.75736" lon="5.62685">
        <ele>441.38</ele>
        <time>2014-08-04T08:16:24Z</time>
      </trkpt>
      <trkpt lat="46.75736" lon="5.62685">
        <ele>441.38</ele>
        <time>2014-08-04T08:17:01Z</time>
      </trkpt>
      <trkpt lat="46.75736" lon="5.62685">
        <ele>441.38</ele>
        <time>2014-08-04T08:17:25Z</time>
      </trkpt>
      <trkpt lat="46.75735" lon="5.62685">
        <ele>441.86</ele>
        <time>2014-08-04T08:17:40Z</time>
      </trkpt>
      <trkpt lat="46.75734" lon="5.62685">
        <ele>441.86</ele>
        <time>2014-08-04T08:17:48Z</time>
      </trkpt>
      <trkpt lat="46.75721" lon="5.62678">
        <ele>442.34</ele>
        <time>2014-08-04T08:17:56Z</time>
      </trkpt>
      <trkpt lat="46.75686" lon="5.62661">
        <ele>444.27</ele>
        <time>2014-08-04T08:18:13Z</time>
      </trkpt>
      <trkpt lat="46.75659" lon="5.62629">
        <ele>445.71</ele>
        <time>2014-08-04T08:18:27Z</time>
      </trkpt>
      <trkpt lat="46.75625" lon="5.62593">
        <ele>447.15</ele>
        <time>2014-08-04T08:18:45Z</time>
      </trkpt>
      <trkpt lat="46.75592" lon="5.62566">
        <ele>446.67</ele>
        <time>2014-08-04T08:18:57Z</time>
      </trkpt>
      <trkpt lat="46.75557" lon="5.62575">
        <ele>447.63</ele>
        <time>2014-08-04T08:19:09Z</time>
      </trkpt>
      <trkpt lat="46.75524" lon="5.62588">
        <ele>449.07</ele>
        <time>2014-08-04T08:19:24Z</time>
      </trkpt>
      <trkpt lat="46.75495" lon="5.62604">
        <ele>451.48</ele>
        <time>2014-08-04T08:19:40Z</time>
      </trkpt>
      <trkpt lat="46.7547" lon="5.62629">
        <ele>453.88</ele>
        <time>2014-08-04T08:19:56Z</time>
      </trkpt>
      <trkpt lat="46.75443" lon="5.6265">
        <ele>455.32</ele>
        <time>2014-08-04T08:20:11Z</time>
      </trkpt>
      <trkpt lat="46.75427" lon="5.62661">
        <ele>456.28</ele>
        <time>2014-08-04T08:20:22Z</time>
      </trkpt>
      <trkpt lat="46.75425" lon="5.62659">
        <ele>456.28</ele>
        <time>2014-08-04T08:20:38Z</time>
      </trkpt>
      <trkpt lat="46.75425" lon="5.62659">
        <ele>456.76</ele>
        <time>2014-08-04T08:21:01Z</time>
      </trkpt>
      <trkpt lat="46.75425" lon="5.62659">
        <ele>456.28</ele>
        <time>2014-08-04T08:21:24Z</time>
      </trkpt>
      <trkpt lat="46.75426" lon="5.62659">
        <ele>456.28</ele>
        <time>2014-08-04T08:21:46Z</time>
      </trkpt>
      <trkpt lat="46.75426" lon="5.62663">
        <ele>456.76</ele>
        <time>2014-08-04T08:21:57Z</time>
      </trkpt>
      <trkpt lat="46.75426" lon="5.62663">
        <ele>456.76</ele>
        <time>2014-08-04T08:22:20Z</time>
      </trkpt>
      <trkpt lat="46.75407" lon="5.62676">
        <ele>458.21</ele>
        <time>2014-08-04T08:22:32Z</time>
      </trkpt>
      <trkpt lat="46.75383" lon="5.627">
        <ele>460.13</ele>
        <time>2014-08-04T08:22:47Z</time>
      </trkpt>
      <trkpt lat="46.75367" lon="5.62734">
        <ele>461.57</ele>
        <time>2014-08-04T08:23:00Z</time>
      </trkpt>
      <trkpt lat="46.75371" lon="5.62784">
        <ele>462.53</ele>
        <time>2014-08-04T08:23:13Z</time>
      </trkpt>
      <trkpt lat="46.75384" lon="5.62834">
        <ele>463.49</ele>
        <time>2014-08-04T08:23:27Z</time>
      </trkpt>
      <trkpt lat="46.75402" lon="5.62877">
        <ele>463.49</ele>
        <time>2014-08-04T08:23:38Z</time>
      </trkpt>
      <trkpt lat="46.75416" lon="5.62952">
        <ele>462.53</ele>
        <time>2014-08-04T08:23:52Z</time>
      </trkpt>
      <trkpt lat="46.75421" lon="5.62976">
        <ele>462.53</ele>
        <time>2014-08-04T08:23:56Z</time>
      </trkpt>
      <trkpt lat="46.75456" lon="5.6306">
        <ele>462.53</ele>
        <time>2014-08-04T08:24:13Z</time>
      </trkpt>
      <trkpt lat="46.75482" lon="5.63111">
        <ele>463.49</ele>
        <time>2014-08-04T08:24:26Z</time>
      </trkpt>
      <trkpt lat="46.75495" lon="5.63153">
        <ele>464.93</ele>
        <time>2014-08-04T08:24:38Z</time>
      </trkpt>
      <trkpt lat="46.75496" lon="5.63156">
        <ele>464.93</ele>
        <time>2014-08-04T08:24:39Z</time>
      </trkpt>
      <trkpt lat="46.75497" lon="5.63169">
        <ele>465.9</ele>
        <time>2014-08-04T08:24:44Z</time>
      </trkpt>
      <trkpt lat="46.75499" lon="5.63182">
        <ele>465.9</ele>
        <time>2014-08-04T08:24:57Z</time>
      </trkpt>
      <trkpt lat="46.75501" lon="5.63185">
        <ele>465.9</ele>
        <time>2014-08-04T08:25:13Z</time>
      </trkpt>
      <trkpt lat="46.75503" lon="5.63195">
        <ele>466.38</ele>
        <time>2014-08-04T08:25:18Z</time>
      </trkpt>
      <trkpt lat="46.75512" lon="5.63236">
        <ele>467.34</ele>
        <time>2014-08-04T08:25:32Z</time>
      </trkpt>
      <trkpt lat="46.75518" lon="5.63291">
        <ele>467.82</ele>
        <time>2014-08-04T08:25:46Z</time>
      </trkpt>
      <trkpt lat="46.75519" lon="5.63358">
        <ele>468.78</ele>
        <time>2014-08-04T08:26:01Z</time>
      </trkpt>
      <trkpt lat="46.7552" lon="5.63425">
        <ele>469.74</ele>
        <time>2014-08-04T08:26:16Z</time>
      </trkpt>
      <trkpt lat="46.75531" lon="5.63537">
        <ele>468.78</ele>
        <time>2014-08-04T08:26:36Z</time>
      </trkpt>
      <trkpt lat="46.75541" lon="5.63636">
        <ele>468.78</ele>
        <time>2014-08-04T08:26:52Z</time>
      </trkpt>
      <trkpt lat="46.75543" lon="5.63654">
        <ele>468.78</ele>
        <time>2014-08-04T08:26:55Z</time>
      </trkpt>
      <trkpt lat="46.75565" lon="5.63774">
        <ele>469.26</ele>
        <time>2014-08-04T08:27:15Z</time>
      </trkpt>
      <trkpt lat="46.75583" lon="5.63883">
        <ele>471.66</ele>
        <time>2014-08-04T08:27:36Z</time>
      </trkpt>
      <trkpt lat="46.75606" lon="5.63935">
        <ele>473.59</ele>
        <time>2014-08-04T08:27:50Z</time>
      </trkpt>
      <trkpt lat="46.75647" lon="5.63982">
        <ele>475.99</ele>
        <time>2014-08-04T08:28:07Z</time>
      </trkpt>
      <trkpt lat="46.75689" lon="5.64019">
        <ele>477.91</ele>
        <time>2014-08-04T08:28:23Z</time>
      </trkpt>
      <trkpt lat="46.75725" lon="5.64054">
        <ele>478.87</ele>
        <time>2014-08-04T08:28:38Z</time>
      </trkpt>
      <trkpt lat="46.75768" lon="5.641">
        <ele>479.35</ele>
        <time>2014-08-04T08:28:55Z</time>
      </trkpt>
      <trkpt lat="46.75804" lon="5.64158">
        <ele>480.32</ele>
        <time>2014-08-04T08:29:11Z</time>
      </trkpt>
      <trkpt lat="46.75833" lon="5.64225">
        <ele>482.24</ele>
        <time>2014-08-04T08:29:27Z</time>
      </trkpt>
      <trkpt lat="46.75852" lon="5.64264">
        <ele>481.76</ele>
        <time>2014-08-04T08:29:40Z</time>
      </trkpt>
      <trkpt lat="46.75852" lon="5.64264">
        <ele>481.76</ele>
        <time>2014-08-04T08:30:03Z</time>
      </trkpt>
      <trkpt lat="46.75852" lon="5.64265">
        <ele>481.76</ele>
        <time>2014-08-04T08:30:28Z</time>
      </trkpt>
      <trkpt lat="46.75852" lon="5.64265">
        <ele>481.76</ele>
        <time>2014-08-04T08:30:50Z</time>
      </trkpt>
      <trkpt lat="46.75852" lon="5.64265">
        <ele>481.76</ele>
        <time>2014-08-04T08:31:21Z</time>
      </trkpt>
      <trkpt lat="46.75854" lon="5.64268">
        <ele>481.76</ele>
        <time>2014-08-04T08:31:50Z</time>
      </trkpt>
      <trkpt lat="46.75877" lon="5.64308">
        <ele>481.28</ele>
        <time>2014-08-04T08:32:02Z</time>
      </trkpt>
      <trkpt lat="46.75923" lon="5.64396">
        <ele>479.35</ele>
        <time>2014-08-04T08:32:16Z</time>
      </trkpt>
      <trkpt lat="46.75974" lon="5.64528">
        <ele>478.87</ele>
        <time>2014-08-04T08:32:34Z</time>
      </trkpt>
      <trkpt lat="46.75979" lon="5.64544">
        <ele>478.87</ele>
        <time>2014-08-04T08:32:37Z</time>
      </trkpt>
      <trkpt lat="46.75991" lon="5.64614">
        <ele>478.87</ele>
        <time>2014-08-04T08:32:50Z</time>
      </trkpt>
      <trkpt lat="46.76016" lon="5.64745">
        <ele>479.35</ele>
        <time>2014-08-04T08:33:11Z</time>
      </trkpt>
      <trkpt lat="46.76038" lon="5.64847">
        <ele>481.28</ele>
        <time>2014-08-04T08:33:29Z</time>
      </trkpt>
      <trkpt lat="46.76058" lon="5.64927">
        <ele>483.68</ele>
        <time>2014-08-04T08:33:47Z</time>
      </trkpt>
      <trkpt lat="46.76068" lon="5.65014">
        <ele>486.08</ele>
        <time>2014-08-04T08:34:06Z</time>
      </trkpt>
      <trkpt lat="46.7606" lon="5.65091">
        <ele>488.01</ele>
        <time>2014-08-04T08:34:23Z</time>
      </trkpt>
      <trkpt lat="46.76051" lon="5.6518">
        <ele>490.41</ele>
        <time>2014-08-04T08:34:44Z</time>
      </trkpt>
      <trkpt lat="46.76046" lon="5.6525">
        <ele>492.81</ele>
        <time>2014-08-04T08:35:01Z</time>
      </trkpt>
      <trkpt lat="46.76044" lon="5.65326">
        <ele>495.22</ele>
        <time>2014-08-04T08:35:20Z</time>
      </trkpt>
      <trkpt lat="46.7604" lon="5.65435">
        <ele>497.62</ele>
        <time>2014-08-04T08:35:45Z</time>
      </trkpt>
      <trkpt lat="46.7604" lon="5.6551">
        <ele>498.58</ele>
        <time>2014-08-04T08:36:01Z</time>
      </trkpt>
      <trkpt lat="46.76038" lon="5.65579">
        <ele>500.98</ele>
        <time>2014-08-04T08:36:17Z</time>
      </trkpt>
      <trkpt lat="46.76039" lon="5.65628">
        <ele>503.39</ele>
        <time>2014-08-04T08:36:31Z</time>
      </trkpt>
      <trkpt lat="46.7605" lon="5.65662">
        <ele>504.83</ele>
        <time>2014-08-04T08:36:43Z</time>
      </trkpt>
      <trkpt lat="46.76068" lon="5.65694">
        <ele>506.75</ele>
        <time>2014-08-04T08:36:56Z</time>
      </trkpt>
      <trkpt lat="46.76094" lon="5.65726">
        <ele>508.67</ele>
        <time>2014-08-04T08:37:10Z</time>
      </trkpt>
      <trkpt lat="46.76125" lon="5.65758">
        <ele>510.6</ele>
        <time>2014-08-04T08:37:25Z</time>
      </trkpt>
      <trkpt lat="46.76146" lon="5.65777">
        <ele>512.52</ele>
        <time>2014-08-04T08:37:37Z</time>
      </trkpt>
      <trkpt lat="46.76174" lon="5.65793">
        <ele>513.48</ele>
        <time>2014-08-04T08:37:49Z</time>
      </trkpt>
      <trkpt lat="46.76197" lon="5.6581">
        <ele>515.4</ele>
        <time>2014-08-04T08:38:00Z</time>
      </trkpt>
      <trkpt lat="46.76225" lon="5.65832">
        <ele>516.85</ele>
        <time>2014-08-04T08:38:13Z</time>
      </trkpt>
      <trkpt lat="46.76243" lon="5.65851">
        <ele>518.29</ele>
        <time>2014-08-04T08:38:22Z</time>
      </trkpt>
      <trkpt lat="46.76251" lon="5.65863">
        <ele>519.25</ele>
        <time>2014-08-04T08:38:28Z</time>
      </trkpt>
      <trkpt lat="46.76267" lon="5.6589">
        <ele>520.69</ele>
        <time>2014-08-04T08:38:39Z</time>
      </trkpt>
      <trkpt lat="46.7628" lon="5.65906">
        <ele>521.65</ele>
        <time>2014-08-04T08:38:47Z</time>
      </trkpt>
      <trkpt lat="46.76305" lon="5.65935">
        <ele>523.09</ele>
        <time>2014-08-04T08:38:59Z</time>
      </trkpt>
      <trkpt lat="46.76319" lon="5.65956">
        <ele>524.54</ele>
        <time>2014-08-04T08:39:08Z</time>
      </trkpt>
      <trkpt lat="46.76339" lon="5.65988">
        <ele>526.46</ele>
        <time>2014-08-04T08:39:22Z</time>
      </trkpt>
      <trkpt lat="46.7636" lon="5.6601">
        <ele>528.38</ele>
        <time>2014-08-04T08:39:34Z</time>
      </trkpt>
      <trkpt lat="46.76376" lon="5.66031">
        <ele>529.82</ele>
        <time>2014-08-04T08:39:43Z</time>
      </trkpt>
      <trkpt lat="46.76395" lon="5.6606">
        <ele>531.27</ele>
        <time>2014-08-04T08:39:54Z</time>
      </trkpt>
      <trkpt lat="46.7642" lon="5.66098">
        <ele>533.19</ele>
        <time>2014-08-04T08:40:08Z</time>
      </trkpt>
      <trkpt lat="46.76435" lon="5.66123">
        <ele>534.63</ele>
        <time>2014-08-04T08:40:18Z</time>
      </trkpt>
      <trkpt lat="46.76441" lon="5.66132">
        <ele>535.11</ele>
        <time>2014-08-04T08:40:22Z</time>
      </trkpt>
      <trkpt lat="46.7645" lon="5.66141">
        <ele>535.59</ele>
        <time>2014-08-04T08:40:26Z</time>
      </trkpt>
      <trkpt lat="46.76458" lon="5.6615">
        <ele>536.55</ele>
        <time>2014-08-04T08:40:30Z</time>
      </trkpt>
      <trkpt lat="46.76476" lon="5.66174">
        <ele>537.99</ele>
        <time>2014-08-04T08:40:41Z</time>
      </trkpt>
      <trkpt lat="46.76495" lon="5.66199">
        <ele>539.44</ele>
        <time>2014-08-04T08:40:52Z</time>
      </trkpt>
      <trkpt lat="46.76513" lon="5.66234">
        <ele>541.36</ele>
        <time>2014-08-04T08:41:05Z</time>
      </trkpt>
      <trkpt lat="46.76525" lon="5.6626">
        <ele>543.28</ele>
        <time>2014-08-04T08:41:15Z</time>
      </trkpt>
      <trkpt lat="46.76539" lon="5.66286">
        <ele>544.72</ele>
        <time>2014-08-04T08:41:25Z</time>
      </trkpt>
      <trkpt lat="46.76555" lon="5.66323">
        <ele>546.17</ele>
        <time>2014-08-04T08:41:37Z</time>
      </trkpt>
      <trkpt lat="46.76565" lon="5.6634">
        <ele>547.61</ele>
        <time>2014-08-04T08:41:44Z</time>
      </trkpt>
      <trkpt lat="46.76571" lon="5.66347">
        <ele>548.09</ele>
        <time>2014-08-04T08:41:47Z</time>
      </trkpt>
      <trkpt lat="46.76584" lon="5.66373">
        <ele>549.53</ele>
        <time>2014-08-04T08:41:57Z</time>
      </trkpt>
      <trkpt lat="46.76586" lon="5.66376">
        <ele>549.53</ele>
        <time>2014-08-04T08:41:58Z</time>
      </trkpt>
      <trkpt lat="46.76595" lon="5.66385">
        <ele>550.01</ele>
        <time>2014-08-04T08:42:02Z</time>
      </trkpt>
      <trkpt lat="46.76618" lon="5.66408">
        <ele>551.93</ele>
        <time>2014-08-04T08:42:13Z</time>
      </trkpt>
      <trkpt lat="46.7663" lon="5.66421">
        <ele>552.9</ele>
        <time>2014-08-04T08:42:20Z</time>
      </trkpt>
      <trkpt lat="46.76637" lon="5.66436">
        <ele>553.86</ele>
        <time>2014-08-04T08:42:25Z</time>
      </trkpt>
      <trkpt lat="46.7664" lon="5.66455">
        <ele>554.34</ele>
        <time>2014-08-04T08:42:30Z</time>
      </trkpt>
      <trkpt lat="46.76642" lon="5.66475">
        <ele>555.3</ele>
        <time>2014-08-04T08:42:35Z</time>
      </trkpt>
      <trkpt lat="46.76639" lon="5.66497">
        <ele>556.26</ele>
        <time>2014-08-04T08:42:42Z</time>
      </trkpt>
      <trkpt lat="46.76613" lon="5.66549">
        <ele>558.18</ele>
        <time>2014-08-04T08:42:55Z</time>
      </trkpt>
      <trkpt lat="46.766" lon="5.66567">
        <ele>560.11</ele>
        <time>2014-08-04T08:43:04Z</time>
      </trkpt>
      <trkpt lat="46.76589" lon="5.66602">
        <ele>561.07</ele>
        <time>2014-08-04T08:43:15Z</time>
      </trkpt>
      <trkpt lat="46.76577" lon="5.66619">
        <ele>561.55</ele>
        <time>2014-08-04T08:43:27Z</time>
      </trkpt>
      <trkpt lat="46.76577" lon="5.66621">
        <ele>561.55</ele>
        <time>2014-08-04T08:43:48Z</time>
      </trkpt>
      <trkpt lat="46.76577" lon="5.66621">
        <ele>561.07</ele>
        <time>2014-08-04T08:44:03Z</time>
      </trkpt>
      <trkpt lat="46.76559" lon="5.66645">
        <ele>561.55</ele>
        <time>2014-08-04T08:47:43Z</time>
      </trkpt>
      <trkpt lat="46.76563" lon="5.66647">
        <ele>561.55</ele>
        <time>2014-08-04T08:47:44Z</time>
      </trkpt>
      <trkpt lat="46.76569" lon="5.66636">
        <ele>565.39</ele>
        <time>2014-08-04T08:47:58Z</time>
      </trkpt>
      <trkpt lat="46.76568" lon="5.66638">
        <ele>568.76</ele>
        <time>2014-08-04T08:48:02Z</time>
      </trkpt>
      <trkpt lat="46.76566" lon="5.66643">
        <ele>571.64</ele>
        <time>2014-08-04T08:48:06Z</time>
      </trkpt>
      <trkpt lat="46.76555" lon="5.66647">
        <ele>575.01</ele>
        <time>2014-08-04T08:48:15Z</time>
      </trkpt>
      <trkpt lat="46.76521" lon="5.66667">
        <ele>575.97</ele>
        <time>2014-08-04T08:48:27Z</time>
      </trkpt>
      <trkpt lat="46.76472" lon="5.66709">
        <ele>574.53</ele>
        <time>2014-08-04T08:48:37Z</time>
      </trkpt>
      <trkpt lat="46.76456" lon="5.6675">
        <ele>573.08</ele>
        <time>2014-08-04T08:48:42Z</time>
      </trkpt>
      <trkpt lat="46.76458" lon="5.66866">
        <ele>569.72</ele>
        <time>2014-08-04T08:48:53Z</time>
      </trkpt>
      <trkpt lat="46.76462" lon="5.66899">
        <ele>568.76</ele>
        <time>2014-08-04T08:48:56Z</time>
      </trkpt>
      <trkpt lat="46.76468" lon="5.66951">
        <ele>568.76</ele>
        <time>2014-08-04T08:49:01Z</time>
      </trkpt>
      <trkpt lat="46.76476" lon="5.66999">
        <ele>568.28</ele>
        <time>2014-08-04T08:49:07Z</time>
      </trkpt>
      <trkpt lat="46.76481" lon="5.67027">
        <ele>568.28</ele>
        <time>2014-08-04T08:49:11Z</time>
      </trkpt>
      <trkpt lat="46.7649" lon="5.67084">
        <ele>567.32</ele>
        <time>2014-08-04T08:49:19Z</time>
      </trkpt>
      <trkpt lat="46.765" lon="5.67132">
        <ele>566.35</ele>
        <time>2014-08-04T08:49:25Z</time>
      </trkpt>
      <trkpt lat="46.7652" lon="5.67246">
        <ele>564.91</ele>
        <time>2014-08-04T08:49:39Z</time>
      </trkpt>
      <trkpt lat="46.76523" lon="5.67271">
        <ele>563.95</ele>
        <time>2014-08-04T08:49:42Z</time>
      </trkpt>
      <trkpt lat="46.76525" lon="5.67296">
        <ele>563.95</ele>
        <time>2014-08-04T08:49:45Z</time>
      </trkpt>
      <trkpt lat="46.76541" lon="5.67436">
        <ele>561.55</ele>
        <time>2014-08-04T08:50:00Z</time>
      </trkpt>
      <trkpt lat="46.76553" lon="5.67522">
        <ele>563.47</ele>
        <time>2014-08-04T08:50:12Z</time>
      </trkpt>
      <trkpt lat="46.76573" lon="5.67616">
        <ele>562.51</ele>
        <time>2014-08-04T08:50:28Z</time>
      </trkpt>
      <trkpt lat="46.76595" lon="5.67734">
        <ele>559.62</ele>
        <time>2014-08-04T08:50:41Z</time>
      </trkpt>
      <trkpt lat="46.76606" lon="5.6783">
        <ele>556.26</ele>
        <time>2014-08-04T08:50:50Z</time>
      </trkpt>
      <trkpt lat="46.76622" lon="5.67988">
        <ele>555.78</ele>
        <time>2014-08-04T08:51:06Z</time>
      </trkpt>
      <trkpt lat="46.76621" lon="5.68111">
        <ele>555.78</ele>
        <time>2014-08-04T08:51:22Z</time>
      </trkpt>
      <trkpt lat="46.7662" lon="5.68129">
        <ele>555.3</ele>
        <time>2014-08-04T08:51:25Z</time>
      </trkpt>
      <trkpt lat="46.76623" lon="5.68234">
        <ele>554.82</ele>
        <time>2014-08-04T08:51:41Z</time>
      </trkpt>
      <trkpt lat="46.76625" lon="5.68248">
        <ele>554.34</ele>
        <time>2014-08-04T08:51:43Z</time>
      </trkpt>
      <trkpt lat="46.76641" lon="5.68349">
        <ele>550.97</ele>
        <time>2014-08-04T08:51:54Z</time>
      </trkpt>
      <trkpt lat="46.76642" lon="5.6837">
        <ele>550.49</ele>
        <time>2014-08-04T08:51:56Z</time>
      </trkpt>
      <trkpt lat="46.76643" lon="5.68493">
        <ele>550.01</ele>
        <time>2014-08-04T08:52:09Z</time>
      </trkpt>
      <trkpt lat="46.76642" lon="5.68574">
        <ele>550.49</ele>
        <time>2014-08-04T08:52:20Z</time>
      </trkpt>
      <trkpt lat="46.76642" lon="5.68609">
        <ele>550.97</ele>
        <time>2014-08-04T08:52:25Z</time>
      </trkpt>
      <trkpt lat="46.76642" lon="5.68683">
        <ele>551.93</ele>
        <time>2014-08-04T08:52:37Z</time>
      </trkpt>
      <trkpt lat="46.76642" lon="5.68792">
        <ele>553.38</ele>
        <time>2014-08-04T08:52:55Z</time>
      </trkpt>
      <trkpt lat="46.76642" lon="5.68816">
        <ele>553.86</ele>
        <time>2014-08-04T08:52:59Z</time>
      </trkpt>
      <trkpt lat="46.76642" lon="5.68871">
        <ele>554.82</ele>
        <time>2014-08-04T08:53:08Z</time>
      </trkpt>
      <trkpt lat="46.76642" lon="5.68978">
        <ele>556.74</ele>
        <time>2014-08-04T08:53:27Z</time>
      </trkpt>
      <trkpt lat="46.76651" lon="5.69068">
        <ele>558.18</ele>
        <time>2014-08-04T08:53:43Z</time>
      </trkpt>
      <trkpt lat="46.76665" lon="5.69179">
        <ele>559.62</ele>
        <time>2014-08-04T08:54:03Z</time>
      </trkpt>
      <trkpt lat="46.76676" lon="5.69261">
        <ele>559.62</ele>
        <time>2014-08-04T08:54:17Z</time>
      </trkpt>
      <trkpt lat="46.76696" lon="5.6935">
        <ele>557.22</ele>
        <time>2014-08-04T08:54:29Z</time>
      </trkpt>
      <trkpt lat="46.76684" lon="5.69391">
        <ele>555.3</ele>
        <time>2014-08-04T08:54:34Z</time>
      </trkpt>
      <trkpt lat="46.76678" lon="5.69395">
        <ele>554.82</ele>
        <time>2014-08-04T08:54:35Z</time>
      </trkpt>
      <trkpt lat="46.76643" lon="5.69413">
        <ele>553.38</ele>
        <time>2014-08-04T08:54:40Z</time>
      </trkpt>
      <trkpt lat="46.76626" lon="5.6941">
        <ele>551.93</ele>
        <time>2014-08-04T08:54:44Z</time>
      </trkpt>
      <trkpt lat="46.76617" lon="5.69405">
        <ele>551.45</ele>
        <time>2014-08-04T08:54:54Z</time>
      </trkpt>
      <trkpt lat="46.76618" lon="5.69405">
        <ele>550.49</ele>
        <time>2014-08-04T08:55:01Z</time>
      </trkpt>
      <trkpt lat="46.76619" lon="5.69403">
        <ele>551.45</ele>
        <time>2014-08-04T09:01:31Z</time>
      </trkpt>
      <trkpt lat="46.76619" lon="5.69403">
        <ele>550.97</ele>
        <time>2014-08-04T09:01:32Z</time>
      </trkpt>
      <trkpt lat="46.76617" lon="5.69402">
        <ele>548.09</ele>
        <time>2014-08-04T09:01:42Z</time>
      </trkpt>
      <trkpt lat="46.76617" lon="5.69402">
        <ele>545.69</ele>
        <time>2014-08-04T09:01:48Z</time>
      </trkpt>
      <trkpt lat="46.76623" lon="5.69402">
        <ele>542.8</ele>
        <time>2014-08-04T09:01:59Z</time>
      </trkpt>
      <trkpt lat="46.76648" lon="5.69413">
        <ele>541.84</ele>
        <time>2014-08-04T09:02:12Z</time>
      </trkpt>
      <trkpt lat="46.76681" lon="5.69394">
        <ele>542.32</ele>
        <time>2014-08-04T09:02:26Z</time>
      </trkpt>
      <trkpt lat="46.76689" lon="5.69391">
        <ele>542.32</ele>
        <time>2014-08-04T09:02:29Z</time>
      </trkpt>
      <trkpt lat="46.76706" lon="5.69384">
        <ele>542.8</ele>
        <time>2014-08-04T09:02:37Z</time>
      </trkpt>
      <trkpt lat="46.7671" lon="5.6938">
        <ele>542.8</ele>
        <time>2014-08-04T09:02:39Z</time>
      </trkpt>
      <trkpt lat="46.76712" lon="5.69386">
        <ele>542.32</ele>
        <time>2014-08-04T09:02:44Z</time>
      </trkpt>
      <trkpt lat="46.76709" lon="5.69389">
        <ele>542.8</ele>
        <time>2014-08-04T09:02:47Z</time>
      </trkpt>
      <trkpt lat="46.7671" lon="5.6939">
        <ele>542.32</ele>
        <time>2014-08-04T09:02:57Z</time>
      </trkpt>
      <trkpt lat="46.7671" lon="5.6939">
        <ele>542.32</ele>
        <time>2014-08-04T09:03:20Z</time>
      </trkpt>
      <trkpt lat="46.7671" lon="5.6939">
        <ele>542.32</ele>
        <time>2014-08-04T09:03:32Z</time>
      </trkpt>
      <trkpt lat="46.76718" lon="5.69381">
        <ele>542.32</ele>
        <time>2014-08-04T09:03:38Z</time>
      </trkpt>
      <trkpt lat="46.76783" lon="5.69352">
        <ele>540.4</ele>
        <time>2014-08-04T09:03:52Z</time>
      </trkpt>
      <trkpt lat="46.76876" lon="5.69319">
        <ele>540.4</ele>
        <time>2014-08-04T09:04:09Z</time>
      </trkpt>
      <trkpt lat="46.76981" lon="5.69298">
        <ele>539.92</ele>
        <time>2014-08-04T09:04:27Z</time>
      </trkpt>
      <trkpt lat="46.77087" lon="5.69292">
        <ele>539.44</ele>
        <time>2014-08-04T09:04:45Z</time>
      </trkpt>
      <trkpt lat="46.77193" lon="5.69291">
        <ele>541.36</ele>
        <time>2014-08-04T09:05:05Z</time>
      </trkpt>
      <trkpt lat="46.77281" lon="5.69301">
        <ele>543.76</ele>
        <time>2014-08-04T09:05:23Z</time>
      </trkpt>
      <trkpt lat="46.77342" lon="5.69332">
        <ele>544.72</ele>
        <time>2014-08-04T09:05:37Z</time>
      </trkpt>
      <trkpt lat="46.77373" lon="5.69331">
        <ele>542.8</ele>
        <time>2014-08-04T09:05:42Z</time>
      </trkpt>
      <trkpt lat="46.77463" lon="5.69283">
        <ele>539.92</ele>
        <time>2014-08-04T09:05:54Z</time>
      </trkpt>
      <trkpt lat="46.77539" lon="5.69241">
        <ele>540.88</ele>
        <time>2014-08-04T09:06:06Z</time>
      </trkpt>
      <trkpt lat="46.77596" lon="5.69232">
        <ele>544.24</ele>
        <time>2014-08-04T09:06:19Z</time>
      </trkpt>
      <trkpt lat="46.77604" lon="5.69234">
        <ele>544.24</ele>
        <time>2014-08-04T09:06:21Z</time>
      </trkpt>
      <trkpt lat="46.77613" lon="5.69238">
        <ele>543.76</ele>
        <time>2014-08-04T09:06:23Z</time>
      </trkpt>
      <trkpt lat="46.77635" lon="5.69263">
        <ele>543.28</ele>
        <time>2014-08-04T09:06:28Z</time>
      </trkpt>
      <trkpt lat="46.77643" lon="5.69276">
        <ele>543.28</ele>
        <time>2014-08-04T09:06:30Z</time>
      </trkpt>
      <trkpt lat="46.77663" lon="5.69297">
        <ele>542.8</ele>
        <time>2014-08-04T09:06:34Z</time>
      </trkpt>
      <trkpt lat="46.77685" lon="5.69308">
        <ele>542.8</ele>
        <time>2014-08-04T09:06:38Z</time>
      </trkpt>
      <trkpt lat="46.77708" lon="5.69313">
        <ele>543.28</ele>
        <time>2014-08-04T09:06:42Z</time>
      </trkpt>
      <trkpt lat="46.77799" lon="5.69294">
        <ele>542.32</ele>
        <time>2014-08-04T09:06:56Z</time>
      </trkpt>
      <trkpt lat="46.77816" lon="5.69285">
        <ele>542.32</ele>
        <time>2014-08-04T09:06:59Z</time>
      </trkpt>
      <trkpt lat="46.77853" lon="5.69257">
        <ele>542.32</ele>
        <time>2014-08-04T09:07:06Z</time>
      </trkpt>
      <trkpt lat="46.77885" lon="5.69247">
        <ele>541.36</ele>
        <time>2014-08-04T09:07:11Z</time>
      </trkpt>
      <trkpt lat="46.77963" lon="5.69254">
        <ele>540.88</ele>
        <time>2014-08-04T09:07:22Z</time>
      </trkpt>
      <trkpt lat="46.78053" lon="5.69235">
        <ele>539.92</ele>
        <time>2014-08-04T09:07:36Z</time>
      </trkpt>
      <trkpt lat="46.78149" lon="5.69191">
        <ele>539.44</ele>
        <time>2014-08-04T09:07:50Z</time>
      </trkpt>
      <trkpt lat="46.78243" lon="5.6916">
        <ele>537.51</ele>
        <time>2014-08-04T09:08:03Z</time>
      </trkpt>
      <trkpt lat="46.78269" lon="5.69153">
        <ele>538.48</ele>
        <time>2014-08-04T09:08:07Z</time>
      </trkpt>
      <trkpt lat="46.78317" lon="5.69146">
        <ele>541.84</ele>
        <time>2014-08-04T09:08:19Z</time>
      </trkpt>
      <trkpt lat="46.78349" lon="5.69133">
        <ele>544.24</ele>
        <time>2014-08-04T09:08:31Z</time>
      </trkpt>
      <trkpt lat="46.78382" lon="5.69106">
        <ele>546.17</ele>
        <time>2014-08-04T09:08:44Z</time>
      </trkpt>
      <trkpt lat="46.78415" lon="5.69066">
        <ele>547.13</ele>
        <time>2014-08-04T09:08:56Z</time>
      </trkpt>
      <trkpt lat="46.7845" lon="5.69024">
        <ele>545.2</ele>
        <time>2014-08-04T09:09:04Z</time>
      </trkpt>
      <trkpt lat="46.78461" lon="5.69014">
        <ele>544.72</ele>
        <time>2014-08-04T09:09:06Z</time>
      </trkpt>
      <trkpt lat="46.78514" lon="5.6901">
        <ele>544.24</ele>
        <time>2014-08-04T09:09:14Z</time>
      </trkpt>
      <trkpt lat="46.78623" lon="5.6905">
        <ele>543.76</ele>
        <time>2014-08-04T09:09:31Z</time>
      </trkpt>
      <trkpt lat="46.78707" lon="5.69035">
        <ele>543.28</ele>
        <time>2014-08-04T09:09:45Z</time>
      </trkpt>
      <trkpt lat="46.78809" lon="5.68984">
        <ele>543.76</ele>
        <time>2014-08-04T09:10:03Z</time>
      </trkpt>
      <trkpt lat="46.7889" lon="5.68955">
        <ele>543.76</ele>
        <time>2014-08-04T09:10:18Z</time>
      </trkpt>
      <trkpt lat="46.789" lon="5.6895">
        <ele>544.24</ele>
        <time>2014-08-04T09:10:20Z</time>
      </trkpt>
      <trkpt lat="46.79" lon="5.68933">
        <ele>543.76</ele>
        <time>2014-08-04T09:10:38Z</time>
      </trkpt>
      <trkpt lat="46.79046" lon="5.68925">
        <ele>543.76</ele>
        <time>2014-08-04T09:10:46Z</time>
      </trkpt>
      <trkpt lat="46.79077" lon="5.68926">
        <ele>545.2</ele>
        <time>2014-08-04T09:10:55Z</time>
      </trkpt>
      <trkpt lat="46.79095" lon="5.68926">
        <ele>546.17</ele>
        <time>2014-08-04T09:11:01Z</time>
      </trkpt>
      <trkpt lat="46.79107" lon="5.68928">
        <ele>546.65</ele>
        <time>2014-08-04T09:11:05Z</time>
      </trkpt>
      <trkpt lat="46.79116" lon="5.68927">
        <ele>547.13</ele>
        <time>2014-08-04T09:11:16Z</time>
      </trkpt>
      <trkpt lat="46.79116" lon="5.68927">
        <ele>547.13</ele>
        <time>2014-08-04T09:11:42Z</time>
      </trkpt>
      <trkpt lat="46.79116" lon="5.68927">
        <ele>547.13</ele>
        <time>2014-08-04T09:11:47Z</time>
      </trkpt>
      <trkpt lat="46.79131" lon="5.68921">
        <ele>547.13</ele>
        <time>2014-08-04T09:11:53Z</time>
      </trkpt>
      <trkpt lat="46.79206" lon="5.68891">
        <ele>547.13</ele>
        <time>2014-08-04T09:12:12Z</time>
      </trkpt>
      <trkpt lat="46.79262" lon="5.68861">
        <ele>547.61</ele>
        <time>2014-08-04T09:12:27Z</time>
      </trkpt>
      <trkpt lat="46.79315" lon="5.68841">
        <ele>550.01</ele>
        <time>2014-08-04T09:12:42Z</time>
      </trkpt>
      <trkpt lat="46.79365" lon="5.6882">
        <ele>550.97</ele>
        <time>2014-08-04T09:12:58Z</time>
      </trkpt>
      <trkpt lat="46.79406" lon="5.68797">
        <ele>552.41</ele>
        <time>2014-08-04T09:13:11Z</time>
      </trkpt>
      <trkpt lat="46.79467" lon="5.68782">
        <ele>554.34</ele>
        <time>2014-08-04T09:13:29Z</time>
      </trkpt>
      <trkpt lat="46.79485" lon="5.68787">
        <ele>554.34</ele>
        <time>2014-08-04T09:13:34Z</time>
      </trkpt>
      <trkpt lat="46.79509" lon="5.68804">
        <ele>554.82</ele>
        <time>2014-08-04T09:13:40Z</time>
      </trkpt>
      <trkpt lat="46.7956" lon="5.68847">
        <ele>556.74</ele>
        <time>2014-08-04T09:13:57Z</time>
      </trkpt>
      <trkpt lat="46.79596" lon="5.68817">
        <ele>558.66</ele>
        <time>2014-08-04T09:14:13Z</time>
      </trkpt>
      <trkpt lat="46.79633" lon="5.6878">
        <ele>561.55</ele>
        <time>2014-08-04T09:14:29Z</time>
      </trkpt>
      <trkpt lat="46.79661" lon="5.6874">
        <ele>563.95</ele>
        <time>2014-08-04T09:14:45Z</time>
      </trkpt>
      <trkpt lat="46.79691" lon="5.68709">
        <ele>566.35</ele>
        <time>2014-08-04T09:15:00Z</time>
      </trkpt>
      <trkpt lat="46.79728" lon="5.68682">
        <ele>567.8</ele>
        <time>2014-08-04T09:15:16Z</time>
      </trkpt>
      <trkpt lat="46.79765" lon="5.68661">
        <ele>569.72</ele>
        <time>2014-08-04T09:15:32Z</time>
      </trkpt>
      <trkpt lat="46.79796" lon="5.68645">
        <ele>572.6</ele>
        <time>2014-08-04T09:15:48Z</time>
      </trkpt>
      <trkpt lat="46.79825" lon="5.68633">
        <ele>575.49</ele>
        <time>2014-08-04T09:16:05Z</time>
      </trkpt>
      <trkpt lat="46.79852" lon="5.68618">
        <ele>576.93</ele>
        <time>2014-08-04T09:16:19Z</time>
      </trkpt>
      <trkpt lat="46.79884" lon="5.68602">
        <ele>578.37</ele>
        <time>2014-08-04T09:16:34Z</time>
      </trkpt>
      <trkpt lat="46.79907" lon="5.6859">
        <ele>579.33</ele>
        <time>2014-08-04T09:16:45Z</time>
      </trkpt>
      <trkpt lat="46.79933" lon="5.68578">
        <ele>580.77</ele>
        <time>2014-08-04T09:16:57Z</time>
      </trkpt>
      <trkpt lat="46.79962" lon="5.68557">
        <ele>582.7</ele>
        <time>2014-08-04T09:17:11Z</time>
      </trkpt>
      <trkpt lat="46.79974" lon="5.68544">
        <ele>583.18</ele>
        <time>2014-08-04T09:17:18Z</time>
      </trkpt>
      <trkpt lat="46.79997" lon="5.68553">
        <ele>583.66</ele>
        <time>2014-08-04T09:17:28Z</time>
      </trkpt>
      <trkpt lat="46.80028" lon="5.68592">
        <ele>584.14</ele>
        <time>2014-08-04T09:17:39Z</time>
      </trkpt>
      <trkpt lat="46.80058" lon="5.68623">
        <ele>585.1</ele>
        <time>2014-08-04T09:17:51Z</time>
      </trkpt>
      <trkpt lat="46.80071" lon="5.68633">
        <ele>585.1</ele>
        <time>2014-08-04T09:17:57Z</time>
      </trkpt>
      <trkpt lat="46.80081" lon="5.68628">
        <ele>585.1</ele>
        <time>2014-08-04T09:18:02Z</time>
      </trkpt>
      <trkpt lat="46.80086" lon="5.68616">
        <ele>585.1</ele>
        <time>2014-08-04T09:18:14Z</time>
      </trkpt>
      <trkpt lat="46.80088" lon="5.68611">
        <ele>585.58</ele>
        <time>2014-08-04T09:18:17Z</time>
      </trkpt>
      <trkpt lat="46.80078" lon="5.68608">
        <ele>585.58</ele>
        <time>2014-08-04T09:18:23Z</time>
      </trkpt>
      <trkpt lat="46.80076" lon="5.6861">
        <ele>585.1</ele>
        <time>2014-08-04T09:18:36Z</time>
      </trkpt>
      <trkpt lat="46.80076" lon="5.6861">
        <ele>585.1</ele>
        <time>2014-08-04T09:18:47Z</time>
      </trkpt>
      <trkpt lat="46.8007" lon="5.68615">
        <ele>585.1</ele>
        <time>2014-08-04T09:19:00Z</time>
      </trkpt>
      <trkpt lat="46.8007" lon="5.68615">
        <ele>585.1</ele>
        <time>2014-08-04T09:19:23Z</time>
      </trkpt>
      <trkpt lat="46.8007" lon="5.68615">
        <ele>585.1</ele>
        <time>2014-08-04T09:19:25Z</time>
      </trkpt>
      <trkpt lat="46.80071" lon="5.68619">
        <ele>585.1</ele>
        <time>2014-08-04T09:19:28Z</time>
      </trkpt>
      <trkpt lat="46.80075" lon="5.68619">
        <ele>585.1</ele>
        <time>2014-08-04T09:19:30Z</time>
      </trkpt>
      <trkpt lat="46.80106" lon="5.68586">
        <ele>585.1</ele>
        <time>2014-08-04T09:19:42Z</time>
      </trkpt>
      <trkpt lat="46.80165" lon="5.68529">
        <ele>582.22</ele>
        <time>2014-08-04T09:19:55Z</time>
      </trkpt>
      <trkpt lat="46.80205" lon="5.68493">
        <ele>578.85</ele>
        <time>2014-08-04T09:20:01Z</time>
      </trkpt>
      <trkpt lat="46.80249" lon="5.68468">
        <ele>575.49</ele>
        <time>2014-08-04T09:20:06Z</time>
      </trkpt>
      <trkpt lat="46.80285" lon="5.68449">
        <ele>572.12</ele>
        <time>2014-08-04T09:20:10Z</time>
      </trkpt>
      <trkpt lat="46.80351" lon="5.68423">
        <ele>568.28</ele>
        <time>2014-08-04T09:20:17Z</time>
      </trkpt>
      <trkpt lat="46.80393" lon="5.68389">
        <ele>565.87</ele>
        <time>2014-08-04T09:20:22Z</time>
      </trkpt>
      <trkpt lat="46.8042" lon="5.68378">
        <ele>564.43</ele>
        <time>2014-08-04T09:20:25Z</time>
      </trkpt>
      <trkpt lat="46.80494" lon="5.68396">
        <ele>560.11</ele>
        <time>2014-08-04T09:20:33Z</time>
      </trkpt>
      <trkpt lat="46.80503" lon="5.68398">
        <ele>560.11</ele>
        <time>2014-08-04T09:20:34Z</time>
      </trkpt>
      <trkpt lat="46.80601" lon="5.6841">
        <ele>556.74</ele>
        <time>2014-08-04T09:20:45Z</time>
      </trkpt>
      <trkpt lat="46.80713" lon="5.68417">
        <ele>553.86</ele>
        <time>2014-08-04T09:20:58Z</time>
      </trkpt>
      <trkpt lat="46.80781" lon="5.68433">
        <ele>550.01</ele>
        <time>2014-08-04T09:21:06Z</time>
      </trkpt>
      <trkpt lat="46.80827" lon="5.68458">
        <ele>546.65</ele>
        <time>2014-08-04T09:21:11Z</time>
      </trkpt>
      <trkpt lat="46.80871" lon="5.6849">
        <ele>543.28</ele>
        <time>2014-08-04T09:21:16Z</time>
      </trkpt>
      <trkpt lat="46.80914" lon="5.68528">
        <ele>540.4</ele>
        <time>2014-08-04T09:21:21Z</time>
      </trkpt>
      <trkpt lat="46.80945" lon="5.6856">
        <ele>537.51</ele>
        <time>2014-08-04T09:21:25Z</time>
      </trkpt>
      <trkpt lat="46.81022" lon="5.68629">
        <ele>534.15</ele>
        <time>2014-08-04T09:21:35Z</time>
      </trkpt>
      <trkpt lat="46.81082" lon="5.6867">
        <ele>531.27</ele>
        <time>2014-08-04T09:21:43Z</time>
      </trkpt>
      <trkpt lat="46.81136" lon="5.68695">
        <ele>527.42</ele>
        <time>2014-08-04T09:21:50Z</time>
      </trkpt>
      <trkpt lat="46.81176" lon="5.68716">
        <ele>525.02</ele>
        <time>2014-08-04T09:21:55Z</time>
      </trkpt>
      <trkpt lat="46.81193" lon="5.68727">
        <ele>524.06</ele>
        <time>2014-08-04T09:21:57Z</time>
      </trkpt>
      <trkpt lat="46.81244" lon="5.68754">
        <ele>520.69</ele>
        <time>2014-08-04T09:22:03Z</time>
      </trkpt>
      <trkpt lat="46.81253" lon="5.68758">
        <ele>520.69</ele>
        <time>2014-08-04T09:22:04Z</time>
      </trkpt>
      <trkpt lat="46.8131" lon="5.68789">
        <ele>517.33</ele>
        <time>2014-08-04T09:22:11Z</time>
      </trkpt>
      <trkpt lat="46.8135" lon="5.6881">
        <ele>513.96</ele>
        <time>2014-08-04T09:22:16Z</time>
      </trkpt>
      <trkpt lat="46.81367" lon="5.68819">
        <ele>513</ele>
        <time>2014-08-04T09:22:18Z</time>
      </trkpt>
      <trkpt lat="46.81418" lon="5.68851">
        <ele>510.12</ele>
        <time>2014-08-04T09:22:24Z</time>
      </trkpt>
      <trkpt lat="46.8147" lon="5.68882">
        <ele>506.75</ele>
        <time>2014-08-04T09:22:30Z</time>
      </trkpt>
      <trkpt lat="46.81521" lon="5.68921">
        <ele>503.87</ele>
        <time>2014-08-04T09:22:36Z</time>
      </trkpt>
      <trkpt lat="46.81537" lon="5.68936">
        <ele>502.43</ele>
        <time>2014-08-04T09:22:38Z</time>
      </trkpt>
      <trkpt lat="46.81585" lon="5.68983">
        <ele>499.54</ele>
        <time>2014-08-04T09:22:44Z</time>
      </trkpt>
      <trkpt lat="46.81621" lon="5.69031">
        <ele>496.18</ele>
        <time>2014-08-04T09:22:49Z</time>
      </trkpt>
      <trkpt lat="46.81657" lon="5.69084">
        <ele>493.29</ele>
        <time>2014-08-04T09:22:54Z</time>
      </trkpt>
      <trkpt lat="46.81694" lon="5.69136">
        <ele>489.93</ele>
        <time>2014-08-04T09:22:59Z</time>
      </trkpt>
      <trkpt lat="46.81721" lon="5.69162">
        <ele>487.05</ele>
        <time>2014-08-04T09:23:02Z</time>
      </trkpt>
      <trkpt lat="46.8176" lon="5.69194">
        <ele>483.68</ele>
        <time>2014-08-04T09:23:06Z</time>
      </trkpt>
      <trkpt lat="46.81808" lon="5.69233">
        <ele>479.84</ele>
        <time>2014-08-04T09:23:11Z</time>
      </trkpt>
      <trkpt lat="46.81846" lon="5.69266">
        <ele>476.95</ele>
        <time>2014-08-04T09:23:15Z</time>
      </trkpt>
      <trkpt lat="46.81885" lon="5.69301">
        <ele>473.11</ele>
        <time>2014-08-04T09:23:19Z</time>
      </trkpt>
      <trkpt lat="46.8193" lon="5.69354">
        <ele>469.74</ele>
        <time>2014-08-04T09:23:24Z</time>
      </trkpt>
      <trkpt lat="46.81954" lon="5.6939">
        <ele>466.38</ele>
        <time>2014-08-04T09:23:27Z</time>
      </trkpt>
      <trkpt lat="46.81985" lon="5.69438">
        <ele>463.01</ele>
        <time>2014-08-04T09:23:31Z</time>
      </trkpt>
      <trkpt lat="46.82025" lon="5.69504">
        <ele>459.65</ele>
        <time>2014-08-04T09:23:36Z</time>
      </trkpt>
      <trkpt lat="46.82051" lon="5.69565">
        <ele>456.28</ele>
        <time>2014-08-04T09:23:40Z</time>
      </trkpt>
      <trkpt lat="46.82077" lon="5.69624">
        <ele>452.92</ele>
        <time>2014-08-04T09:23:44Z</time>
      </trkpt>
      <trkpt lat="46.82105" lon="5.69696">
        <ele>449.55</ele>
        <time>2014-08-04T09:23:49Z</time>
      </trkpt>
      <trkpt lat="46.82121" lon="5.69741">
        <ele>446.67</ele>
        <time>2014-08-04T09:23:52Z</time>
      </trkpt>
      <trkpt lat="46.82136" lon="5.69786">
        <ele>443.31</ele>
        <time>2014-08-04T09:23:55Z</time>
      </trkpt>
      <trkpt lat="46.82153" lon="5.69843">
        <ele>440.42</ele>
        <time>2014-08-04T09:23:59Z</time>
      </trkpt>
      <trkpt lat="46.82199" lon="5.69898">
        <ele>436.1</ele>
        <time>2014-08-04T09:24:05Z</time>
      </trkpt>
      <trkpt lat="46.82229" lon="5.6991">
        <ele>434.17</ele>
        <time>2014-08-04T09:24:08Z</time>
      </trkpt>
      <trkpt lat="46.82278" lon="5.6996">
        <ele>429.85</ele>
        <time>2014-08-04T09:24:13Z</time>
      </trkpt>
      <trkpt lat="46.823" lon="5.69989">
        <ele>428.4</ele>
        <time>2014-08-04T09:24:16Z</time>
      </trkpt>
      <trkpt lat="46.82337" lon="5.70014">
        <ele>424.56</ele>
        <time>2014-08-04T09:24:21Z</time>
      </trkpt>
      <trkpt lat="46.82362" lon="5.70025">
        <ele>422.64</ele>
        <time>2014-08-04T09:24:23Z</time>
      </trkpt>
      <trkpt lat="46.82408" lon="5.70046">
        <ele>419.27</ele>
        <time>2014-08-04T09:24:27Z</time>
      </trkpt>
      <trkpt lat="46.82469" lon="5.70071">
        <ele>414.95</ele>
        <time>2014-08-04T09:24:32Z</time>
      </trkpt>
      <trkpt lat="46.82482" lon="5.70076">
        <ele>414.47</ele>
        <time>2014-08-04T09:24:33Z</time>
      </trkpt>
      <trkpt lat="46.8254" lon="5.70075">
        <ele>410.14</ele>
        <time>2014-08-04T09:24:38Z</time>
      </trkpt>
      <trkpt lat="46.82585" lon="5.7007">
        <ele>405.81</ele>
        <time>2014-08-04T09:24:42Z</time>
      </trkpt>
      <trkpt lat="46.82619" lon="5.70068">
        <ele>403.41</ele>
        <time>2014-08-04T09:24:45Z</time>
      </trkpt>
      <trkpt lat="46.82688" lon="5.70081">
        <ele>399.57</ele>
        <time>2014-08-04T09:24:51Z</time>
      </trkpt>
      <trkpt lat="46.82723" lon="5.70094">
        <ele>396.68</ele>
        <time>2014-08-04T09:24:54Z</time>
      </trkpt>
      <trkpt lat="46.82775" lon="5.70136">
        <ele>392.84</ele>
        <time>2014-08-04T09:24:59Z</time>
      </trkpt>
      <trkpt lat="46.82813" lon="5.70178">
        <ele>389.47</ele>
        <time>2014-08-04T09:25:03Z</time>
      </trkpt>
      <trkpt lat="46.82849" lon="5.70223">
        <ele>385.63</ele>
        <time>2014-08-04T09:25:07Z</time>
      </trkpt>
      <trkpt lat="46.82902" lon="5.70264">
        <ele>381.3</ele>
        <time>2014-08-04T09:25:12Z</time>
      </trkpt>
      <trkpt lat="46.82954" lon="5.70332">
        <ele>376.97</ele>
        <time>2014-08-04T09:25:18Z</time>
      </trkpt>
      <trkpt lat="46.82985" lon="5.70379">
        <ele>373.61</ele>
        <time>2014-08-04T09:25:22Z</time>
      </trkpt>
      <trkpt lat="46.8302" lon="5.70443">
        <ele>370.24</ele>
        <time>2014-08-04T09:25:27Z</time>
      </trkpt>
      <trkpt lat="46.83045" lon="5.70495">
        <ele>366.88</ele>
        <time>2014-08-04T09:25:31Z</time>
      </trkpt>
      <trkpt lat="46.83071" lon="5.70546">
        <ele>363.52</ele>
        <time>2014-08-04T09:25:35Z</time>
      </trkpt>
      <trkpt lat="46.83094" lon="5.706">
        <ele>360.15</ele>
        <time>2014-08-04T09:25:39Z</time>
      </trkpt>
      <trkpt lat="46.83105" lon="5.70628">
        <ele>359.19</ele>
        <time>2014-08-04T09:25:41Z</time>
      </trkpt>
      <trkpt lat="46.83113" lon="5.70658">
        <ele>357.27</ele>
        <time>2014-08-04T09:25:43Z</time>
      </trkpt>
      <trkpt lat="46.83115" lon="5.70674">
        <ele>356.79</ele>
        <time>2014-08-04T09:25:44Z</time>
      </trkpt>
      <trkpt lat="46.83116" lon="5.70689">
        <ele>355.83</ele>
        <time>2014-08-04T09:25:45Z</time>
      </trkpt>
      <trkpt lat="46.83116" lon="5.70705">
        <ele>354.86</ele>
        <time>2014-08-04T09:25:46Z</time>
      </trkpt>
      <trkpt lat="46.83116" lon="5.70721">
        <ele>354.86</ele>
        <time>2014-08-04T09:25:47Z</time>
      </trkpt>
      <trkpt lat="46.83115" lon="5.70753">
        <ele>352.94</ele>
        <time>2014-08-04T09:25:49Z</time>
      </trkpt>
      <trkpt lat="46.83116" lon="5.70767">
        <ele>352.46</ele>
        <time>2014-08-04T09:25:50Z</time>
      </trkpt>
      <trkpt lat="46.83118" lon="5.7078">
        <ele>351.98</ele>
        <time>2014-08-04T09:25:51Z</time>
      </trkpt>
      <trkpt lat="46.83123" lon="5.70792">
        <ele>351.5</ele>
        <time>2014-08-04T09:25:52Z</time>
      </trkpt>
      <trkpt lat="46.83127" lon="5.70802">
        <ele>351.02</ele>
        <time>2014-08-04T09:25:53Z</time>
      </trkpt>
      <trkpt lat="46.83145" lon="5.70815">
        <ele>349.1</ele>
        <time>2014-08-04T09:25:56Z</time>
      </trkpt>
      <trkpt lat="46.83153" lon="5.70814">
        <ele>349.1</ele>
        <time>2014-08-04T09:25:57Z</time>
      </trkpt>
      <trkpt lat="46.83246" lon="5.70773">
        <ele>346.21</ele>
        <time>2014-08-04T09:26:11Z</time>
      </trkpt>
      <trkpt lat="46.83303" lon="5.70747">
        <ele>345.73</ele>
        <time>2014-08-04T09:26:24Z</time>
      </trkpt>
      <trkpt lat="46.83314" lon="5.70738">
        <ele>345.25</ele>
        <time>2014-08-04T09:26:30Z</time>
      </trkpt>
      <trkpt lat="46.83318" lon="5.70739">
        <ele>345.25</ele>
        <time>2014-08-04T09:26:43Z</time>
      </trkpt>
      <trkpt lat="46.83319" lon="5.70739">
        <ele>344.77</ele>
        <time>2014-08-04T09:27:05Z</time>
      </trkpt>
      <trkpt lat="46.8334" lon="5.70726">
        <ele>344.29</ele>
        <time>2014-08-04T09:27:15Z</time>
      </trkpt>
      <trkpt lat="46.83361" lon="5.70715">
        <ele>343.33</ele>
        <time>2014-08-04T09:27:21Z</time>
      </trkpt>
      <trkpt lat="46.83392" lon="5.70705">
        <ele>342.37</ele>
        <time>2014-08-04T09:27:29Z</time>
      </trkpt>
      <trkpt lat="46.834" lon="5.70702">
        <ele>342.37</ele>
        <time>2014-08-04T09:27:31Z</time>
      </trkpt>
      <trkpt lat="46.83419" lon="5.70699">
        <ele>341.41</ele>
        <time>2014-08-04T09:27:38Z</time>
      </trkpt>
      <trkpt lat="46.83433" lon="5.70725">
        <ele>341.41</ele>
        <time>2014-08-04T09:27:49Z</time>
      </trkpt>
      <trkpt lat="46.83452" lon="5.70767">
        <ele>341.41</ele>
        <time>2014-08-04T09:28:02Z</time>
      </trkpt>
      <trkpt lat="46.83458" lon="5.708">
        <ele>341.89</ele>
        <time>2014-08-04T09:28:11Z</time>
      </trkpt>
      <trkpt lat="46.8346" lon="5.70807">
        <ele>341.89</ele>
        <time>2014-08-04T09:28:14Z</time>
      </trkpt>
      <trkpt lat="46.8346" lon="5.70809">
        <ele>342.37</ele>
        <time>2014-08-04T09:28:15Z</time>
      </trkpt>
      <trkpt lat="46.83459" lon="5.70834">
        <ele>342.37</ele>
        <time>2014-08-04T09:28:27Z</time>
      </trkpt>
      <trkpt lat="46.83458" lon="5.70841">
        <ele>342.37</ele>
        <time>2014-08-04T09:28:40Z</time>
      </trkpt>
      <trkpt lat="46.83458" lon="5.70841">
        <ele>342.85</ele>
        <time>2014-08-04T09:28:56Z</time>
      </trkpt>
      <trkpt lat="46.83458" lon="5.70841">
        <ele>342.85</ele>
        <time>2014-08-04T09:29:07Z</time>
      </trkpt>
      <trkpt lat="46.83456" lon="5.70845">
        <ele>342.85</ele>
        <time>2014-08-04T09:29:18Z</time>
      </trkpt>
      <trkpt lat="46.83449" lon="5.70866">
        <ele>342.85</ele>
        <time>2014-08-04T09:29:31Z</time>
      </trkpt>
      <trkpt lat="46.83448" lon="5.70867">
        <ele>342.85</ele>
        <time>2014-08-04T09:29:43Z</time>
      </trkpt>
      <trkpt lat="46.83448" lon="5.70867">
        <ele>341.41</ele>
        <time>2014-08-04T09:29:51Z</time>
      </trkpt>
      <trkpt lat="46.83447" lon="5.70875">
        <ele>342.85</ele>
        <time>2014-08-04T10:04:45Z</time>
      </trkpt>
      <trkpt lat="46.83448" lon="5.70874">
        <ele>342.85</ele>
        <time>2014-08-04T10:04:46Z</time>
      </trkpt>
      <trkpt lat="46.83448" lon="5.70867">
        <ele>339.96</ele>
        <time>2014-08-04T10:04:59Z</time>
      </trkpt>
      <trkpt lat="46.83447" lon="5.70865">
        <ele>339</ele>
        <time>2014-08-04T10:05:03Z</time>
      </trkpt>
      <trkpt lat="46.83445" lon="5.70864">
        <ele>338.52</ele>
        <time>2014-08-04T10:05:05Z</time>
      </trkpt>
      <trkpt lat="46.83436" lon="5.70865">
        <ele>337.56</ele>
        <time>2014-08-04T10:05:10Z</time>
      </trkpt>
      <trkpt lat="46.83404" lon="5.70886">
        <ele>336.6</ele>
        <time>2014-08-04T10:05:24Z</time>
      </trkpt>
      <trkpt lat="46.83379" lon="5.70926">
        <ele>337.08</ele>
        <time>2014-08-04T10:05:38Z</time>
      </trkpt>
      <trkpt lat="46.83356" lon="5.70969">
        <ele>338.04</ele>
        <time>2014-08-04T10:05:51Z</time>
      </trkpt>
      <trkpt lat="46.83332" lon="5.71015">
        <ele>339</ele>
        <time>2014-08-04T10:06:05Z</time>
      </trkpt>
      <trkpt lat="46.83308" lon="5.7106">
        <ele>340.92</ele>
        <time>2014-08-04T10:06:20Z</time>
      </trkpt>
      <trkpt lat="46.83287" lon="5.71104">
        <ele>342.37</ele>
        <time>2014-08-04T10:06:35Z</time>
      </trkpt>
      <trkpt lat="46.83266" lon="5.71147">
        <ele>344.29</ele>
        <time>2014-08-04T10:06:50Z</time>
      </trkpt>
      <trkpt lat="46.83262" lon="5.71155">
        <ele>344.77</ele>
        <time>2014-08-04T10:06:54Z</time>
      </trkpt>
      <trkpt lat="46.83263" lon="5.71176">
        <ele>345.73</ele>
        <time>2014-08-04T10:07:00Z</time>
      </trkpt>
      <trkpt lat="46.83266" lon="5.71236">
        <ele>347.65</ele>
        <time>2014-08-04T10:07:18Z</time>
      </trkpt>
      <trkpt lat="46.83269" lon="5.71283">
        <ele>350.06</ele>
        <time>2014-08-04T10:07:32Z</time>
      </trkpt>
      <trkpt lat="46.83268" lon="5.71326">
        <ele>351.5</ele>
        <time>2014-08-04T10:07:46Z</time>
      </trkpt>
      <trkpt lat="46.83262" lon="5.71384">
        <ele>353.9</ele>
        <time>2014-08-04T10:08:04Z</time>
      </trkpt>
      <trkpt lat="46.83238" lon="5.71422">
        <ele>355.83</ele>
        <time>2014-08-04T10:08:20Z</time>
      </trkpt>
      <trkpt lat="46.83207" lon="5.71454">
        <ele>357.75</ele>
        <time>2014-08-04T10:08:38Z</time>
      </trkpt>
      <trkpt lat="46.83181" lon="5.71481">
        <ele>359.67</ele>
        <time>2014-08-04T10:08:53Z</time>
      </trkpt>
      <trkpt lat="46.83145" lon="5.715">
        <ele>362.07</ele>
        <time>2014-08-04T10:09:10Z</time>
      </trkpt>
      <trkpt lat="46.83112" lon="5.71525">
        <ele>364</ele>
        <time>2014-08-04T10:09:27Z</time>
      </trkpt>
      <trkpt lat="46.83087" lon="5.71574">
        <ele>366.4</ele>
        <time>2014-08-04T10:09:46Z</time>
      </trkpt>
      <trkpt lat="46.83075" lon="5.71617">
        <ele>368.32</ele>
        <time>2014-08-04T10:10:01Z</time>
      </trkpt>
      <trkpt lat="46.83071" lon="5.71628">
        <ele>368.8</ele>
        <time>2014-08-04T10:10:05Z</time>
      </trkpt>
      <trkpt lat="46.83059" lon="5.71676">
        <ele>370.73</ele>
        <time>2014-08-04T10:10:21Z</time>
      </trkpt>
      <trkpt lat="46.83045" lon="5.71712">
        <ele>372.17</ele>
        <time>2014-08-04T10:10:34Z</time>
      </trkpt>
      <trkpt lat="46.83014" lon="5.71754">
        <ele>374.09</ele>
        <time>2014-08-04T10:10:52Z</time>
      </trkpt>
      <trkpt lat="46.82975" lon="5.71777">
        <ele>376.01</ele>
        <time>2014-08-04T10:11:08Z</time>
      </trkpt>
      <trkpt lat="46.82924" lon="5.71795">
        <ele>377.45</ele>
        <time>2014-08-04T10:11:27Z</time>
      </trkpt>
      <trkpt lat="46.82897" lon="5.71831">
        <ele>378.42</ele>
        <time>2014-08-04T10:11:39Z</time>
      </trkpt>
      <trkpt lat="46.82875" lon="5.71871">
        <ele>379.38</ele>
        <time>2014-08-04T10:11:51Z</time>
      </trkpt>
      <trkpt lat="46.8286" lon="5.71913">
        <ele>380.34</ele>
        <time>2014-08-04T10:12:05Z</time>
      </trkpt>
      <trkpt lat="46.8286" lon="5.71915">
        <ele>380.34</ele>
        <time>2014-08-04T10:12:06Z</time>
      </trkpt>
      <trkpt lat="46.8286" lon="5.71918">
        <ele>380.34</ele>
        <time>2014-08-04T10:12:07Z</time>
      </trkpt>
      <trkpt lat="46.82845" lon="5.71944">
        <ele>380.82</ele>
        <time>2014-08-04T10:12:19Z</time>
      </trkpt>
      <trkpt lat="46.82844" lon="5.71944">
        <ele>380.82</ele>
        <time>2014-08-04T10:12:40Z</time>
      </trkpt>
      <trkpt lat="46.82843" lon="5.71946">
        <ele>380.82</ele>
        <time>2014-08-04T10:12:45Z</time>
      </trkpt>
      <trkpt lat="46.82845" lon="5.71965">
        <ele>380.82</ele>
        <time>2014-08-04T10:12:52Z</time>
      </trkpt>
      <trkpt lat="46.82846" lon="5.7198">
        <ele>381.78</ele>
        <time>2014-08-04T10:12:56Z</time>
      </trkpt>
      <trkpt lat="46.82842" lon="5.71991">
        <ele>381.78</ele>
        <time>2014-08-04T10:13:01Z</time>
      </trkpt>
      <trkpt lat="46.82854" lon="5.72018">
        <ele>383.7</ele>
        <time>2014-08-04T10:13:15Z</time>
      </trkpt>
      <trkpt lat="46.82867" lon="5.72023">
        <ele>384.66</ele>
        <time>2014-08-04T10:13:23Z</time>
      </trkpt>
      <trkpt lat="46.82889" lon="5.72018">
        <ele>386.11</ele>
        <time>2014-08-04T10:13:35Z</time>
      </trkpt>
      <trkpt lat="46.82916" lon="5.71987">
        <ele>387.07</ele>
        <time>2014-08-04T10:13:48Z</time>
      </trkpt>
      <trkpt lat="46.82939" lon="5.71972">
        <ele>388.03</ele>
        <time>2014-08-04T10:13:59Z</time>
      </trkpt>
      <trkpt lat="46.82965" lon="5.71968">
        <ele>388.99</ele>
        <time>2014-08-04T10:14:10Z</time>
      </trkpt>
      <trkpt lat="46.82997" lon="5.71974">
        <ele>390.91</ele>
        <time>2014-08-04T10:14:24Z</time>
      </trkpt>
      <trkpt lat="46.83035" lon="5.71983">
        <ele>392.36</ele>
        <time>2014-08-04T10:14:40Z</time>
      </trkpt>
      <trkpt lat="46.83071" lon="5.71987">
        <ele>394.28</ele>
        <time>2014-08-04T10:14:55Z</time>
      </trkpt>
      <trkpt lat="46.83103" lon="5.71962">
        <ele>395.72</ele>
        <time>2014-08-04T10:15:10Z</time>
      </trkpt>
      <trkpt lat="46.83134" lon="5.71928">
        <ele>397.64</ele>
        <time>2014-08-04T10:15:26Z</time>
      </trkpt>
      <trkpt lat="46.83163" lon="5.71912">
        <ele>398.6</ele>
        <time>2014-08-04T10:15:39Z</time>
      </trkpt>
      <trkpt lat="46.83198" lon="5.71906">
        <ele>400.05</ele>
        <time>2014-08-04T10:15:54Z</time>
      </trkpt>
      <trkpt lat="46.83235" lon="5.71917">
        <ele>402.45</ele>
        <time>2014-08-04T10:16:10Z</time>
      </trkpt>
      <trkpt lat="46.83268" lon="5.71931">
        <ele>403.89</ele>
        <time>2014-08-04T10:16:25Z</time>
      </trkpt>
      <trkpt lat="46.83299" lon="5.71927">
        <ele>405.81</ele>
        <time>2014-08-04T10:16:39Z</time>
      </trkpt>
      <trkpt lat="46.83311" lon="5.71902">
        <ele>407.26</ele>
        <time>2014-08-04T10:16:50Z</time>
      </trkpt>
      <trkpt lat="46.8331" lon="5.7189">
        <ele>407.26</ele>
        <time>2014-08-04T10:16:54Z</time>
      </trkpt>
      <trkpt lat="46.83301" lon="5.71848">
        <ele>408.7</ele>
        <time>2014-08-04T10:17:07Z</time>
      </trkpt>
      <trkpt lat="46.83311" lon="5.71805">
        <ele>410.14</ele>
        <time>2014-08-04T10:17:18Z</time>
      </trkpt>
      <trkpt lat="46.83345" lon="5.71757">
        <ele>411.58</ele>
        <time>2014-08-04T10:17:34Z</time>
      </trkpt>
      <trkpt lat="46.83374" lon="5.71717">
        <ele>413.5</ele>
        <time>2014-08-04T10:17:50Z</time>
      </trkpt>
      <trkpt lat="46.83401" lon="5.71676">
        <ele>415.43</ele>
        <time>2014-08-04T10:18:06Z</time>
      </trkpt>
      <trkpt lat="46.83437" lon="5.71627">
        <ele>417.83</ele>
        <time>2014-08-04T10:18:26Z</time>
      </trkpt>
      <trkpt lat="46.83465" lon="5.71585">
        <ele>419.27</ele>
        <time>2014-08-04T10:18:42Z</time>
      </trkpt>
      <trkpt lat="46.83473" lon="5.7153">
        <ele>421.19</ele>
        <time>2014-08-04T10:18:57Z</time>
      </trkpt>
      <trkpt lat="46.83465" lon="5.71476">
        <ele>422.64</ele>
        <time>2014-08-04T10:19:12Z</time>
      </trkpt>
      <trkpt lat="46.83458" lon="5.71422">
        <ele>424.08</ele>
        <time>2014-08-04T10:19:27Z</time>
      </trkpt>
      <trkpt lat="46.83464" lon="5.71366">
        <ele>425.52</ele>
        <time>2014-08-04T10:19:42Z</time>
      </trkpt>
      <trkpt lat="46.83489" lon="5.71328">
        <ele>427.44</ele>
        <time>2014-08-04T10:19:57Z</time>
      </trkpt>
      <trkpt lat="46.83522" lon="5.71336">
        <ele>428.89</ele>
        <time>2014-08-04T10:20:10Z</time>
      </trkpt>
      <trkpt lat="46.83558" lon="5.71357">
        <ele>430.81</ele>
        <time>2014-08-04T10:20:26Z</time>
      </trkpt>
      <trkpt lat="46.83583" lon="5.71374">
        <ele>431.77</ele>
        <time>2014-08-04T10:20:37Z</time>
      </trkpt>
      <trkpt lat="46.83612" lon="5.71395">
        <ele>433.21</ele>
        <time>2014-08-04T10:20:50Z</time>
      </trkpt>
      <trkpt lat="46.83629" lon="5.71429">
        <ele>434.65</ele>
        <time>2014-08-04T10:21:01Z</time>
      </trkpt>
      <trkpt lat="46.83631" lon="5.71475">
        <ele>436.58</ele>
        <time>2014-08-04T10:21:14Z</time>
      </trkpt>
      <trkpt lat="46.83649" lon="5.71498">
        <ele>438.5</ele>
        <time>2014-08-04T10:21:25Z</time>
      </trkpt>
      <trkpt lat="46.8368" lon="5.71494">
        <ele>439.94</ele>
        <time>2014-08-04T10:21:40Z</time>
      </trkpt>
      <trkpt lat="46.8371" lon="5.7148">
        <ele>441.86</ele>
        <time>2014-08-04T10:21:53Z</time>
      </trkpt>
      <trkpt lat="46.8373" lon="5.71473">
        <ele>442.82</ele>
        <time>2014-08-04T10:22:02Z</time>
      </trkpt>
      <trkpt lat="46.83735" lon="5.71478">
        <ele>443.79</ele>
        <time>2014-08-04T10:22:12Z</time>
      </trkpt>
      <trkpt lat="46.83735" lon="5.71478">
        <ele>443.79</ele>
        <time>2014-08-04T10:22:38Z</time>
      </trkpt>
      <trkpt lat="46.83735" lon="5.71478">
        <ele>443.79</ele>
        <time>2014-08-04T10:22:44Z</time>
      </trkpt>
      <trkpt lat="46.83736" lon="5.7148">
        <ele>443.79</ele>
        <time>2014-08-04T10:22:46Z</time>
      </trkpt>
      <trkpt lat="46.8374" lon="5.71494">
        <ele>444.27</ele>
        <time>2014-08-04T10:22:52Z</time>
      </trkpt>
      <trkpt lat="46.8373" lon="5.71509">
        <ele>445.23</ele>
        <time>2014-08-04T10:23:01Z</time>
      </trkpt>
      <trkpt lat="46.83718" lon="5.71506">
        <ele>446.19</ele>
        <time>2014-08-04T10:23:06Z</time>
      </trkpt>
      <trkpt lat="46.83694" lon="5.71511">
        <ele>447.63</ele>
        <time>2014-08-04T10:23:17Z</time>
      </trkpt>
      <trkpt lat="46.83666" lon="5.71534">
        <ele>449.55</ele>
        <time>2014-08-04T10:23:31Z</time>
      </trkpt>
      <trkpt lat="46.83644" lon="5.71547">
        <ele>451</ele>
        <time>2014-08-04T10:23:41Z</time>
      </trkpt>
      <trkpt lat="46.83611" lon="5.7155">
        <ele>452.92</ele>
        <time>2014-08-04T10:23:55Z</time>
      </trkpt>
      <trkpt lat="46.83582" lon="5.71571">
        <ele>454.84</ele>
        <time>2014-08-04T10:24:08Z</time>
      </trkpt>
      <trkpt lat="46.83561" lon="5.71615">
        <ele>457.24</ele>
        <time>2014-08-04T10:24:24Z</time>
      </trkpt>
      <trkpt lat="46.83538" lon="5.71666">
        <ele>459.65</ele>
        <time>2014-08-04T10:24:42Z</time>
      </trkpt>
      <trkpt lat="46.83513" lon="5.71709">
        <ele>462.05</ele>
        <time>2014-08-04T10:24:59Z</time>
      </trkpt>
      <trkpt lat="46.83485" lon="5.71739">
        <ele>463.97</ele>
        <time>2014-08-04T10:25:14Z</time>
      </trkpt>
      <trkpt lat="46.83461" lon="5.71769">
        <ele>465.9</ele>
        <time>2014-08-04T10:25:27Z</time>
      </trkpt>
      <trkpt lat="46.83433" lon="5.71801">
        <ele>467.82</ele>
        <time>2014-08-04T10:25:42Z</time>
      </trkpt>
      <trkpt lat="46.83445" lon="5.71824">
        <ele>469.26</ele>
        <time>2014-08-04T10:25:52Z</time>
      </trkpt>
      <trkpt lat="46.83461" lon="5.71798">
        <ele>470.22</ele>
        <time>2014-08-04T10:26:03Z</time>
      </trkpt>
      <trkpt lat="46.8348" lon="5.71766">
        <ele>472.14</ele>
        <time>2014-08-04T10:26:15Z</time>
      </trkpt>
      <trkpt lat="46.83507" lon="5.71744">
        <ele>473.59</ele>
        <time>2014-08-04T10:26:28Z</time>
      </trkpt>
      <trkpt lat="46.83538" lon="5.71728">
        <ele>475.99</ele>
        <time>2014-08-04T10:26:42Z</time>
      </trkpt>
      <trkpt lat="46.83564" lon="5.71712">
        <ele>477.91</ele>
        <time>2014-08-04T10:26:54Z</time>
      </trkpt>
      <trkpt lat="46.83577" lon="5.71701">
        <ele>478.87</ele>
        <time>2014-08-04T10:27:01Z</time>
      </trkpt>
      <trkpt lat="46.83605" lon="5.71684">
        <ele>480.8</ele>
        <time>2014-08-04T10:27:14Z</time>
      </trkpt>
      <trkpt lat="46.83631" lon="5.71661">
        <ele>482.72</ele>
        <time>2014-08-04T10:27:27Z</time>
      </trkpt>
      <trkpt lat="46.8364" lon="5.71653">
        <ele>482.72</ele>
        <time>2014-08-04T10:27:38Z</time>
      </trkpt>
      <trkpt lat="46.8364" lon="5.71653">
        <ele>482.72</ele>
        <time>2014-08-04T10:28:01Z</time>
      </trkpt>
      <trkpt lat="46.83648" lon="5.71646">
        <ele>483.68</ele>
        <time>2014-08-04T10:28:18Z</time>
      </trkpt>
      <trkpt lat="46.83663" lon="5.71665">
        <ele>484.64</ele>
        <time>2014-08-04T10:28:30Z</time>
      </trkpt>
      <trkpt lat="46.83662" lon="5.71667">
        <ele>485.12</ele>
        <time>2014-08-04T10:28:32Z</time>
      </trkpt>
      <trkpt lat="46.83636" lon="5.71681">
        <ele>486.08</ele>
        <time>2014-08-04T10:28:44Z</time>
      </trkpt>
      <trkpt lat="46.83634" lon="5.71682">
        <ele>486.08</ele>
        <time>2014-08-04T10:28:45Z</time>
      </trkpt>
      <trkpt lat="46.83625" lon="5.71694">
        <ele>486.56</ele>
        <time>2014-08-04T10:28:50Z</time>
      </trkpt>
      <trkpt lat="46.83602" lon="5.71719">
        <ele>488.97</ele>
        <time>2014-08-04T10:29:05Z</time>
      </trkpt>
      <trkpt lat="46.83573" lon="5.71752">
        <ele>491.37</ele>
        <time>2014-08-04T10:29:19Z</time>
      </trkpt>
      <trkpt lat="46.83546" lon="5.71781">
        <ele>493.29</ele>
        <time>2014-08-04T10:29:33Z</time>
      </trkpt>
      <trkpt lat="46.83526" lon="5.71805">
        <ele>496.66</ele>
        <time>2014-08-04T10:29:44Z</time>
      </trkpt>
      <trkpt lat="46.83503" lon="5.71828">
        <ele>497.62</ele>
        <time>2014-08-04T10:29:56Z</time>
      </trkpt>
      <trkpt lat="46.83478" lon="5.71859">
        <ele>499.54</ele>
        <time>2014-08-04T10:30:10Z</time>
      </trkpt>
      <trkpt lat="46.83457" lon="5.71899">
        <ele>502.43</ele>
        <time>2014-08-04T10:30:25Z</time>
      </trkpt>
      <trkpt lat="46.83454" lon="5.7191">
        <ele>502.91</ele>
        <time>2014-08-04T10:30:30Z</time>
      </trkpt>
      <trkpt lat="46.83454" lon="5.71899">
        <ele>502.43</ele>
        <time>2014-08-04T10:30:39Z</time>
      </trkpt>
      <trkpt lat="46.83454" lon="5.71899">
        <ele>502.43</ele>
        <time>2014-08-04T10:31:00Z</time>
      </trkpt>
      <trkpt lat="46.83454" lon="5.71899">
        <ele>502.43</ele>
        <time>2014-08-04T10:31:22Z</time>
      </trkpt>
      <trkpt lat="46.83455" lon="5.71899">
        <ele>502.43</ele>
        <time>2014-08-04T10:31:25Z</time>
      </trkpt>
      <trkpt lat="46.83457" lon="5.71899">
        <ele>502.43</ele>
        <time>2014-08-04T10:31:28Z</time>
      </trkpt>
      <trkpt lat="46.83453" lon="5.7191">
        <ele>502.91</ele>
        <time>2014-08-04T10:31:33Z</time>
      </trkpt>
      <trkpt lat="46.83454" lon="5.71955">
        <ele>505.31</ele>
        <time>2014-08-04T10:31:48Z</time>
      </trkpt>
      <trkpt lat="46.83469" lon="5.71997">
        <ele>507.23</ele>
        <time>2014-08-04T10:32:03Z</time>
      </trkpt>
      <trkpt lat="46.83474" lon="5.72007">
        <ele>507.23</ele>
        <time>2014-08-04T10:32:07Z</time>
      </trkpt>
      <trkpt lat="46.83491" lon="5.72055">
        <ele>509.64</ele>
        <time>2014-08-04T10:32:23Z</time>
      </trkpt>
      <trkpt lat="46.83511" lon="5.72085">
        <ele>511.56</ele>
        <time>2014-08-04T10:32:37Z</time>
      </trkpt>
      <trkpt lat="46.83537" lon="5.7211">
        <ele>512.52</ele>
        <time>2014-08-04T10:32:50Z</time>
      </trkpt>
      <trkpt lat="46.83551" lon="5.72131">
        <ele>513.96</ele>
        <time>2014-08-04T10:32:59Z</time>
      </trkpt>
      <trkpt lat="46.83571" lon="5.72172">
        <ele>515.4</ele>
        <time>2014-08-04T10:33:12Z</time>
      </trkpt>
      <trkpt lat="46.83596" lon="5.72211">
        <ele>517.81</ele>
        <time>2014-08-04T10:33:27Z</time>
      </trkpt>
      <trkpt lat="46.83622" lon="5.72233">
        <ele>519.25</ele>
        <time>2014-08-04T10:33:39Z</time>
      </trkpt>
      <trkpt lat="46.83627" lon="5.72262">
        <ele>520.21</ele>
        <time>2014-08-04T10:33:47Z</time>
      </trkpt>
      <trkpt lat="46.83643" lon="5.72272">
        <ele>521.17</ele>
        <time>2014-08-04T10:33:55Z</time>
      </trkpt>
      <trkpt lat="46.83665" lon="5.72285">
        <ele>523.09</ele>
        <time>2014-08-04T10:34:06Z</time>
      </trkpt>
      <trkpt lat="46.8367" lon="5.72291">
        <ele>523.58</ele>
        <time>2014-08-04T10:34:09Z</time>
      </trkpt>
      <trkpt lat="46.8367" lon="5.72307">
        <ele>524.06</ele>
        <time>2014-08-04T10:34:14Z</time>
      </trkpt>
      <trkpt lat="46.83682" lon="5.7232">
        <ele>525.5</ele>
        <time>2014-08-04T10:34:20Z</time>
      </trkpt>
      <trkpt lat="46.8371" lon="5.72328">
        <ele>526.94</ele>
        <time>2014-08-04T10:34:32Z</time>
      </trkpt>
      <trkpt lat="46.83729" lon="5.7233">
        <ele>528.38</ele>
        <time>2014-08-04T10:34:40Z</time>
      </trkpt>
      <trkpt lat="46.83741" lon="5.7234">
        <ele>529.34</ele>
        <time>2014-08-04T10:34:45Z</time>
      </trkpt>
      <trkpt lat="46.83742" lon="5.72422">
        <ele>531.27</ele>
        <time>2014-08-04T10:34:59Z</time>
      </trkpt>
      <trkpt lat="46.83769" lon="5.72451">
        <ele>533.19</ele>
        <time>2014-08-04T10:35:13Z</time>
      </trkpt>
      <trkpt lat="46.838" lon="5.72477">
        <ele>536.07</ele>
        <time>2014-08-04T10:35:28Z</time>
      </trkpt>
      <trkpt lat="46.83843" lon="5.72499">
        <ele>538.48</ele>
        <time>2014-08-04T10:35:47Z</time>
      </trkpt>
      <trkpt lat="46.83877" lon="5.72512">
        <ele>539.92</ele>
        <time>2014-08-04T10:36:01Z</time>
      </trkpt>
      <trkpt lat="46.83923" lon="5.72557">
        <ele>541.36</ele>
        <time>2014-08-04T10:36:19Z</time>
      </trkpt>
      <trkpt lat="46.83951" lon="5.72591">
        <ele>543.28</ele>
        <time>2014-08-04T10:36:32Z</time>
      </trkpt>
      <trkpt lat="46.83989" lon="5.72625">
        <ele>543.28</ele>
        <time>2014-08-04T10:36:45Z</time>
      </trkpt>
      <trkpt lat="46.84042" lon="5.72689">
        <ele>544.24</ele>
        <time>2014-08-04T10:37:03Z</time>
      </trkpt>
      <trkpt lat="46.84071" lon="5.72723">
        <ele>545.2</ele>
        <time>2014-08-04T10:37:12Z</time>
      </trkpt>
      <trkpt lat="46.8413" lon="5.7279">
        <ele>546.17</ele>
        <time>2014-08-04T10:37:30Z</time>
      </trkpt>
      <trkpt lat="46.84134" lon="5.72797">
        <ele>546.17</ele>
        <time>2014-08-04T10:37:32Z</time>
      </trkpt>
      <trkpt lat="46.84143" lon="5.72796">
        <ele>546.65</ele>
        <time>2014-08-04T10:37:38Z</time>
      </trkpt>
      <trkpt lat="46.84148" lon="5.72788">
        <ele>546.65</ele>
        <time>2014-08-04T10:37:42Z</time>
      </trkpt>
      <trkpt lat="46.84155" lon="5.72785">
        <ele>546.65</ele>
        <time>2014-08-04T10:37:54Z</time>
      </trkpt>
      <trkpt lat="46.84155" lon="5.72785">
        <ele>546.65</ele>
        <time>2014-08-04T10:38:02Z</time>
      </trkpt>
      <trkpt lat="46.84155" lon="5.72777">
        <ele>544.72</ele>
        <time>2014-08-04T11:24:09Z</time>
      </trkpt>
      <trkpt lat="46.84152" lon="5.7278">
        <ele>544.72</ele>
        <time>2014-08-04T11:24:10Z</time>
      </trkpt>
      <trkpt lat="46.84153" lon="5.72775">
        <ele>544.72</ele>
        <time>2014-08-04T11:24:26Z</time>
      </trkpt>
      <trkpt lat="46.84158" lon="5.72758">
        <ele>545.2</ele>
        <time>2014-08-04T11:24:33Z</time>
      </trkpt>
      <trkpt lat="46.84157" lon="5.72718">
        <ele>545.69</ele>
        <time>2014-08-04T11:24:44Z</time>
      </trkpt>
      <trkpt lat="46.84154" lon="5.72684">
        <ele>546.65</ele>
        <time>2014-08-04T11:24:55Z</time>
      </trkpt>
      <trkpt lat="46.84172" lon="5.72604">
        <ele>546.17</ele>
        <time>2014-08-04T11:25:09Z</time>
      </trkpt>
      <trkpt lat="46.84187" lon="5.72566">
        <ele>547.61</ele>
        <time>2014-08-04T11:25:19Z</time>
      </trkpt>
      <trkpt lat="46.84208" lon="5.72516">
        <ele>547.13</ele>
        <time>2014-08-04T11:25:31Z</time>
      </trkpt>
      <trkpt lat="46.8421" lon="5.72512">
        <ele>547.13</ele>
        <time>2014-08-04T11:25:32Z</time>
      </trkpt>
      <trkpt lat="46.84234" lon="5.7247">
        <ele>548.09</ele>
        <time>2014-08-04T11:25:44Z</time>
      </trkpt>
      <trkpt lat="46.84265" lon="5.72442">
        <ele>549.05</ele>
        <time>2014-08-04T11:25:56Z</time>
      </trkpt>
      <trkpt lat="46.84309" lon="5.72425">
        <ele>549.53</ele>
        <time>2014-08-04T11:26:10Z</time>
      </trkpt>
      <trkpt lat="46.84338" lon="5.72431">
        <ele>549.53</ele>
        <time>2014-08-04T11:26:19Z</time>
      </trkpt>
      <trkpt lat="46.84365" lon="5.72443">
        <ele>549.05</ele>
        <time>2014-08-04T11:26:26Z</time>
      </trkpt>
      <trkpt lat="46.84383" lon="5.72451">
        <ele>548.57</ele>
        <time>2014-08-04T11:26:30Z</time>
      </trkpt>
      <trkpt lat="46.84397" lon="5.72458">
        <ele>548.57</ele>
        <time>2014-08-04T11:26:33Z</time>
      </trkpt>
      <trkpt lat="46.84426" lon="5.72467">
        <ele>548.09</ele>
        <time>2014-08-04T11:26:40Z</time>
      </trkpt>
      <trkpt lat="46.84475" lon="5.72463">
        <ele>546.17</ele>
        <time>2014-08-04T11:26:49Z</time>
      </trkpt>
      <trkpt lat="46.84501" lon="5.7246">
        <ele>544.72</ele>
        <time>2014-08-04T11:26:53Z</time>
      </trkpt>
      <trkpt lat="46.84548" lon="5.72474">
        <ele>541.84</ele>
        <time>2014-08-04T11:26:59Z</time>
      </trkpt>
      <trkpt lat="46.84606" lon="5.72519">
        <ele>537.99</ele>
        <time>2014-08-04T11:27:07Z</time>
      </trkpt>
      <trkpt lat="46.84667" lon="5.72534">
        <ele>534.15</ele>
        <time>2014-08-04T11:27:14Z</time>
      </trkpt>
      <trkpt lat="46.84715" lon="5.7255">
        <ele>531.27</ele>
        <time>2014-08-04T11:27:19Z</time>
      </trkpt>
      <trkpt lat="46.84757" lon="5.72569">
        <ele>526.94</ele>
        <time>2014-08-04T11:27:23Z</time>
      </trkpt>
      <trkpt lat="46.84804" lon="5.72601">
        <ele>523.58</ele>
        <time>2014-08-04T11:27:28Z</time>
      </trkpt>
      <trkpt lat="46.84814" lon="5.72608">
        <ele>523.09</ele>
        <time>2014-08-04T11:27:29Z</time>
      </trkpt>
      <trkpt lat="46.84852" lon="5.72634">
        <ele>520.69</ele>
        <time>2014-08-04T11:27:33Z</time>
      </trkpt>
      <trkpt lat="46.84903" lon="5.72667">
        <ele>517.81</ele>
        <time>2014-08-04T11:27:38Z</time>
      </trkpt>
      <trkpt lat="46.84956" lon="5.72706">
        <ele>514.44</ele>
        <time>2014-08-04T11:27:44Z</time>
      </trkpt>
      <trkpt lat="46.84998" lon="5.72735">
        <ele>513</ele>
        <time>2014-08-04T11:27:49Z</time>
      </trkpt>
      <trkpt lat="46.85008" lon="5.72745">
        <ele>512.52</ele>
        <time>2014-08-04T11:27:50Z</time>
      </trkpt>
      <trkpt lat="46.85052" lon="5.72788">
        <ele>509.64</ele>
        <time>2014-08-04T11:27:56Z</time>
      </trkpt>
      <trkpt lat="46.85058" lon="5.72795">
        <ele>509.16</ele>
        <time>2014-08-04T11:27:57Z</time>
      </trkpt>
      <trkpt lat="46.85073" lon="5.7282">
        <ele>508.67</ele>
        <time>2014-08-04T11:27:59Z</time>
      </trkpt>
      <trkpt lat="46.85125" lon="5.72884">
        <ele>506.75</ele>
        <time>2014-08-04T11:28:07Z</time>
      </trkpt>
      <trkpt lat="46.85128" lon="5.72894">
        <ele>506.75</ele>
        <time>2014-08-04T11:28:08Z</time>
      </trkpt>
      <trkpt lat="46.85161" lon="5.72958">
        <ele>507.71</ele>
        <time>2014-08-04T11:28:15Z</time>
      </trkpt>
      <trkpt lat="46.85176" lon="5.72975">
        <ele>508.19</ele>
        <time>2014-08-04T11:28:19Z</time>
      </trkpt>
      <trkpt lat="46.85203" lon="5.72999">
        <ele>507.23</ele>
        <time>2014-08-04T11:28:27Z</time>
      </trkpt>
      <trkpt lat="46.85226" lon="5.73014">
        <ele>506.27</ele>
        <time>2014-08-04T11:28:32Z</time>
      </trkpt>
      <trkpt lat="46.8524" lon="5.7302">
        <ele>505.79</ele>
        <time>2014-08-04T11:28:34Z</time>
      </trkpt>
      <trkpt lat="46.85288" lon="5.73019">
        <ele>501.95</ele>
        <time>2014-08-04T11:28:39Z</time>
      </trkpt>
      <trkpt lat="46.85299" lon="5.73015">
        <ele>500.98</ele>
        <time>2014-08-04T11:28:40Z</time>
      </trkpt>
      <trkpt lat="46.85334" lon="5.72976">
        <ele>497.14</ele>
        <time>2014-08-04T11:28:45Z</time>
      </trkpt>
      <trkpt lat="46.85338" lon="5.72965">
        <ele>495.7</ele>
        <time>2014-08-04T11:28:47Z</time>
      </trkpt>
      <trkpt lat="46.8534" lon="5.72936">
        <ele>492.81</ele>
        <time>2014-08-04T11:28:51Z</time>
      </trkpt>
      <trkpt lat="46.85344" lon="5.72934">
        <ele>491.85</ele>
        <time>2014-08-04T11:28:52Z</time>
      </trkpt>
      <trkpt lat="46.8536" lon="5.72929">
        <ele>488.49</ele>
        <time>2014-08-04T11:28:56Z</time>
      </trkpt>
      <trkpt lat="46.85386" lon="5.72928">
        <ele>484.16</ele>
        <time>2014-08-04T11:29:01Z</time>
      </trkpt>
      <trkpt lat="46.85396" lon="5.72929">
        <ele>482.24</ele>
        <time>2014-08-04T11:29:03Z</time>
      </trkpt>
      <trkpt lat="46.85424" lon="5.72939">
        <ele>477.91</ele>
        <time>2014-08-04T11:29:08Z</time>
      </trkpt>
      <trkpt lat="46.85429" lon="5.72943">
        <ele>476.95</ele>
        <time>2014-08-04T11:29:09Z</time>
      </trkpt>
      <trkpt lat="46.85435" lon="5.72948">
        <ele>475.99</ele>
        <time>2014-08-04T11:29:10Z</time>
      </trkpt>
      <trkpt lat="46.85455" lon="5.72968">
        <ele>472.63</ele>
        <time>2014-08-04T11:29:13Z</time>
      </trkpt>
      <trkpt lat="46.85465" lon="5.72976">
        <ele>470.22</ele>
        <time>2014-08-04T11:29:14Z</time>
      </trkpt>
      <trkpt lat="46.85481" lon="5.72977">
        <ele>467.82</ele>
        <time>2014-08-04T11:29:16Z</time>
      </trkpt>
      <trkpt lat="46.85487" lon="5.72975">
        <ele>466.86</ele>
        <time>2014-08-04T11:29:17Z</time>
      </trkpt>
      <trkpt lat="46.85493" lon="5.72969">
        <ele>466.38</ele>
        <time>2014-08-04T11:29:18Z</time>
      </trkpt>
      <trkpt lat="46.85511" lon="5.72924">
        <ele>462.53</ele>
        <time>2014-08-04T11:29:23Z</time>
      </trkpt>
      <trkpt lat="46.85524" lon="5.72913">
        <ele>460.13</ele>
        <time>2014-08-04T11:29:25Z</time>
      </trkpt>
      <trkpt lat="46.85575" lon="5.72886">
        <ele>452.92</ele>
        <time>2014-08-04T11:29:30Z</time>
      </trkpt>
      <trkpt lat="46.85609" lon="5.72846">
        <ele>448.59</ele>
        <time>2014-08-04T11:29:34Z</time>
      </trkpt>
      <trkpt lat="46.85627" lon="5.72828">
        <ele>447.15</ele>
        <time>2014-08-04T11:29:36Z</time>
      </trkpt>
      <trkpt lat="46.85646" lon="5.72814">
        <ele>446.19</ele>
        <time>2014-08-04T11:29:38Z</time>
      </trkpt>
      <trkpt lat="46.85655" lon="5.72809">
        <ele>445.71</ele>
        <time>2014-08-04T11:29:39Z</time>
      </trkpt>
      <trkpt lat="46.85694" lon="5.72771">
        <ele>443.79</ele>
        <time>2014-08-04T11:29:44Z</time>
      </trkpt>
      <trkpt lat="46.85751" lon="5.72734">
        <ele>438.98</ele>
        <time>2014-08-04T11:29:50Z</time>
      </trkpt>
      <trkpt lat="46.85812" lon="5.72704">
        <ele>436.1</ele>
        <time>2014-08-04T11:29:56Z</time>
      </trkpt>
      <trkpt lat="46.85915" lon="5.72625">
        <ele>433.69</ele>
        <time>2014-08-04T11:30:09Z</time>
      </trkpt>
      <trkpt lat="46.85955" lon="5.7258">
        <ele>430.33</ele>
        <time>2014-08-04T11:30:15Z</time>
      </trkpt>
      <trkpt lat="46.86001" lon="5.72552">
        <ele>427.44</ele>
        <time>2014-08-04T11:30:20Z</time>
      </trkpt>
      <trkpt lat="46.86057" lon="5.72523">
        <ele>424.08</ele>
        <time>2014-08-04T11:30:26Z</time>
      </trkpt>
      <trkpt lat="46.86107" lon="5.72499">
        <ele>421.19</ele>
        <time>2014-08-04T11:30:31Z</time>
      </trkpt>
      <trkpt lat="46.86155" lon="5.72475">
        <ele>418.31</ele>
        <time>2014-08-04T11:30:36Z</time>
      </trkpt>
      <trkpt lat="46.86218" lon="5.72438">
        <ele>414.95</ele>
        <time>2014-08-04T11:30:43Z</time>
      </trkpt>
      <trkpt lat="46.86246" lon="5.72421">
        <ele>412.54</ele>
        <time>2014-08-04T11:30:46Z</time>
      </trkpt>
      <trkpt lat="46.8629" lon="5.72415">
        <ele>408.7</ele>
        <time>2014-08-04T11:30:50Z</time>
      </trkpt>
      <trkpt lat="46.86313" lon="5.72419">
        <ele>407.74</ele>
        <time>2014-08-04T11:30:52Z</time>
      </trkpt>
      <trkpt lat="46.86378" lon="5.72398">
        <ele>404.37</ele>
        <time>2014-08-04T11:30:58Z</time>
      </trkpt>
      <trkpt lat="46.86451" lon="5.7236">
        <ele>401.01</ele>
        <time>2014-08-04T11:31:06Z</time>
      </trkpt>
      <trkpt lat="46.86492" lon="5.72338">
        <ele>399.57</ele>
        <time>2014-08-04T11:31:11Z</time>
      </trkpt>
      <trkpt lat="46.86566" lon="5.72273">
        <ele>396.2</ele>
        <time>2014-08-04T11:31:22Z</time>
      </trkpt>
      <trkpt lat="46.86593" lon="5.72253">
        <ele>393.32</ele>
        <time>2014-08-04T11:31:26Z</time>
      </trkpt>
      <trkpt lat="46.86617" lon="5.72225">
        <ele>389.47</ele>
        <time>2014-08-04T11:31:31Z</time>
      </trkpt>
      <trkpt lat="46.86627" lon="5.72191">
        <ele>387.55</ele>
        <time>2014-08-04T11:31:41Z</time>
      </trkpt>
      <trkpt lat="46.86627" lon="5.72191">
        <ele>387.55</ele>
        <time>2014-08-04T11:32:02Z</time>
      </trkpt>
      <trkpt lat="46.86627" lon="5.72192">
        <ele>387.55</ele>
        <time>2014-08-04T11:32:28Z</time>
      </trkpt>
      <trkpt lat="46.86627" lon="5.72192">
        <ele>387.55</ele>
        <time>2014-08-04T11:32:52Z</time>
      </trkpt>
      <trkpt lat="46.86627" lon="5.72192">
        <ele>387.55</ele>
        <time>2014-08-04T11:33:19Z</time>
      </trkpt>
      <trkpt lat="46.86628" lon="5.72191">
        <ele>387.55</ele>
        <time>2014-08-04T11:33:30Z</time>
      </trkpt>
      <trkpt lat="46.86627" lon="5.72192">
        <ele>388.03</ele>
        <time>2014-08-04T11:33:37Z</time>
      </trkpt>
      <trkpt lat="46.86624" lon="5.72194">
        <ele>387.55</ele>
        <time>2014-08-04T11:33:44Z</time>
      </trkpt>
      <trkpt lat="46.8662" lon="5.7221">
        <ele>388.03</ele>
        <time>2014-08-04T11:33:49Z</time>
      </trkpt>
      <trkpt lat="46.86603" lon="5.72279">
        <ele>388.99</ele>
        <time>2014-08-04T11:34:05Z</time>
      </trkpt>
      <trkpt lat="46.86578" lon="5.72344">
        <ele>389.47</ele>
        <time>2014-08-04T11:34:18Z</time>
      </trkpt>
      <trkpt lat="46.86543" lon="5.72414">
        <ele>390.43</ele>
        <time>2014-08-04T11:34:33Z</time>
      </trkpt>
      <trkpt lat="46.86536" lon="5.72436">
        <ele>390.43</ele>
        <time>2014-08-04T11:34:37Z</time>
      </trkpt>
      <trkpt lat="46.86526" lon="5.7253">
        <ele>392.36</ele>
        <time>2014-08-04T11:34:55Z</time>
      </trkpt>
      <trkpt lat="46.86525" lon="5.7258">
        <ele>395.24</ele>
        <time>2014-08-04T11:35:11Z</time>
      </trkpt>
      <trkpt lat="46.86523" lon="5.72622">
        <ele>397.64</ele>
        <time>2014-08-04T11:35:27Z</time>
      </trkpt>
      <trkpt lat="46.86523" lon="5.72667">
        <ele>401.01</ele>
        <time>2014-08-04T11:35:46Z</time>
      </trkpt>
      <trkpt lat="46.86523" lon="5.72712">
        <ele>404.37</ele>
        <time>2014-08-04T11:36:05Z</time>
      </trkpt>
      <trkpt lat="46.86519" lon="5.72751">
        <ele>406.77</ele>
        <time>2014-08-04T11:36:21Z</time>
      </trkpt>
      <trkpt lat="46.86518" lon="5.72801">
        <ele>409.18</ele>
        <time>2014-08-04T11:36:41Z</time>
      </trkpt>
      <trkpt lat="46.86517" lon="5.72838">
        <ele>411.58</ele>
        <time>2014-08-04T11:36:56Z</time>
      </trkpt>
      <trkpt lat="46.86517" lon="5.72841">
        <ele>411.58</ele>
        <time>2014-08-04T11:36:57Z</time>
      </trkpt>
      <trkpt lat="46.86516" lon="5.72851">
        <ele>412.54</ele>
        <time>2014-08-04T11:37:01Z</time>
      </trkpt>
      <trkpt lat="46.86514" lon="5.72895">
        <ele>414.95</ele>
        <time>2014-08-04T11:37:19Z</time>
      </trkpt>
      <trkpt lat="46.86514" lon="5.7294">
        <ele>417.83</ele>
        <time>2014-08-04T11:37:38Z</time>
      </trkpt>
      <trkpt lat="46.86512" lon="5.72983">
        <ele>420.71</ele>
        <time>2014-08-04T11:37:56Z</time>
      </trkpt>
      <trkpt lat="46.86511" lon="5.73017">
        <ele>423.12</ele>
        <time>2014-08-04T11:38:10Z</time>
      </trkpt>
      <trkpt lat="46.86508" lon="5.7306">
        <ele>426</ele>
        <time>2014-08-04T11:38:27Z</time>
      </trkpt>
      <trkpt lat="46.865" lon="5.73099">
        <ele>428.4</ele>
        <time>2014-08-04T11:38:43Z</time>
      </trkpt>
      <trkpt lat="46.86478" lon="5.73136">
        <ele>430.81</ele>
        <time>2014-08-04T11:39:01Z</time>
      </trkpt>
      <trkpt lat="46.86453" lon="5.73175">
        <ele>433.21</ele>
        <time>2014-08-04T11:39:21Z</time>
      </trkpt>
      <trkpt lat="46.86433" lon="5.73205">
        <ele>435.61</ele>
        <time>2014-08-04T11:39:38Z</time>
      </trkpt>
      <trkpt lat="46.86417" lon="5.7323">
        <ele>438.02</ele>
        <time>2014-08-04T11:39:52Z</time>
      </trkpt>
      <trkpt lat="46.86394" lon="5.73263">
        <ele>440.9</ele>
        <time>2014-08-04T11:40:11Z</time>
      </trkpt>
      <trkpt lat="46.86375" lon="5.7329">
        <ele>443.31</ele>
        <time>2014-08-04T11:40:27Z</time>
      </trkpt>
      <trkpt lat="46.8636" lon="5.73311">
        <ele>445.71</ele>
        <time>2014-08-04T11:40:41Z</time>
      </trkpt>
      <trkpt lat="46.86343" lon="5.73336">
        <ele>448.11</ele>
        <time>2014-08-04T11:40:56Z</time>
      </trkpt>
      <trkpt lat="46.86314" lon="5.73349">
        <ele>451.48</ele>
        <time>2014-08-04T11:41:13Z</time>
      </trkpt>
      <trkpt lat="46.86293" lon="5.73356">
        <ele>453.88</ele>
        <time>2014-08-04T11:41:27Z</time>
      </trkpt>
      <trkpt lat="46.86285" lon="5.73358">
        <ele>454.36</ele>
        <time>2014-08-04T11:41:32Z</time>
      </trkpt>
      <trkpt lat="46.86266" lon="5.73364">
        <ele>457.24</ele>
        <time>2014-08-04T11:41:46Z</time>
      </trkpt>
      <trkpt lat="46.86262" lon="5.73367">
        <ele>458.21</ele>
        <time>2014-08-04T11:41:50Z</time>
      </trkpt>
      <trkpt lat="46.86258" lon="5.73372">
        <ele>459.17</ele>
        <time>2014-08-04T11:41:55Z</time>
      </trkpt>
      <trkpt lat="46.86256" lon="5.73375">
        <ele>459.65</ele>
        <time>2014-08-04T11:41:57Z</time>
      </trkpt>
      <trkpt lat="46.86253" lon="5.73382">
        <ele>461.09</ele>
        <time>2014-08-04T11:42:02Z</time>
      </trkpt>
      <trkpt lat="46.86253" lon="5.7339">
        <ele>462.05</ele>
        <time>2014-08-04T11:42:07Z</time>
      </trkpt>
      <trkpt lat="46.86246" lon="5.73409">
        <ele>463.97</ele>
        <time>2014-08-04T11:42:16Z</time>
      </trkpt>
      <trkpt lat="46.86245" lon="5.73418">
        <ele>464.93</ele>
        <time>2014-08-04T11:42:20Z</time>
      </trkpt>
      <trkpt lat="46.86251" lon="5.73454">
        <ele>466.38</ele>
        <time>2014-08-04T11:42:34Z</time>
      </trkpt>
      <trkpt lat="46.86264" lon="5.73493">
        <ele>466.86</ele>
        <time>2014-08-04T11:42:46Z</time>
      </trkpt>
      <trkpt lat="46.86266" lon="5.73502">
        <ele>466.86</ele>
        <time>2014-08-04T11:42:50Z</time>
      </trkpt>
      <trkpt lat="46.86301" lon="5.73546">
        <ele>466.38</ele>
        <time>2014-08-04T11:43:03Z</time>
      </trkpt>
      <trkpt lat="46.86348" lon="5.73601">
        <ele>466.86</ele>
        <time>2014-08-04T11:43:15Z</time>
      </trkpt>
      <trkpt lat="46.86367" lon="5.73623">
        <ele>466.86</ele>
        <time>2014-08-04T11:43:20Z</time>
      </trkpt>
      <trkpt lat="46.86399" lon="5.73659">
        <ele>469.26</ele>
        <time>2014-08-04T11:43:31Z</time>
      </trkpt>
      <trkpt lat="46.86404" lon="5.7367">
        <ele>470.22</ele>
        <time>2014-08-04T11:43:35Z</time>
      </trkpt>
      <trkpt lat="46.86425" lon="5.737">
        <ele>471.66</ele>
        <time>2014-08-04T11:43:47Z</time>
      </trkpt>
      <trkpt lat="46.86452" lon="5.73744">
        <ele>472.63</ele>
        <time>2014-08-04T11:44:04Z</time>
      </trkpt>
      <trkpt lat="46.86478" lon="5.73784">
        <ele>475.51</ele>
        <time>2014-08-04T11:44:21Z</time>
      </trkpt>
      <trkpt lat="46.86494" lon="5.73807">
        <ele>478.39</ele>
        <time>2014-08-04T11:44:32Z</time>
      </trkpt>
      <trkpt lat="46.86515" lon="5.7383">
        <ele>480.8</ele>
        <time>2014-08-04T11:44:44Z</time>
      </trkpt>
      <trkpt lat="46.86536" lon="5.7386">
        <ele>483.2</ele>
        <time>2014-08-04T11:44:58Z</time>
      </trkpt>
      <trkpt lat="46.86558" lon="5.73886">
        <ele>484.64</ele>
        <time>2014-08-04T11:45:10Z</time>
      </trkpt>
      <trkpt lat="46.86584" lon="5.73923">
        <ele>486.08</ele>
        <time>2014-08-04T11:45:24Z</time>
      </trkpt>
      <trkpt lat="46.86623" lon="5.73978">
        <ele>487.53</ele>
        <time>2014-08-04T11:45:41Z</time>
      </trkpt>
      <trkpt lat="46.86673" lon="5.74054">
        <ele>487.05</ele>
        <time>2014-08-04T11:45:59Z</time>
      </trkpt>
      <trkpt lat="46.8674" lon="5.74153">
        <ele>485.12</ele>
        <time>2014-08-04T11:46:13Z</time>
      </trkpt>
      <trkpt lat="46.86817" lon="5.74264">
        <ele>484.16</ele>
        <time>2014-08-04T11:46:29Z</time>
      </trkpt>
      <trkpt lat="46.86896" lon="5.74378">
        <ele>484.64</ele>
        <time>2014-08-04T11:46:46Z</time>
      </trkpt>
      <trkpt lat="46.86952" lon="5.74454">
        <ele>486.56</ele>
        <time>2014-08-04T11:47:00Z</time>
      </trkpt>
      <trkpt lat="46.87012" lon="5.7454">
        <ele>488.49</ele>
        <time>2014-08-04T11:47:18Z</time>
      </trkpt>
      <trkpt lat="46.8707" lon="5.74626">
        <ele>489.45</ele>
        <time>2014-08-04T11:47:35Z</time>
      </trkpt>
      <trkpt lat="46.87126" lon="5.74731">
        <ele>486.56</ele>
        <time>2014-08-04T11:47:49Z</time>
      </trkpt>
      <trkpt lat="46.87155" lon="5.74779">
        <ele>484.16</ele>
        <time>2014-08-04T11:47:54Z</time>
      </trkpt>
      <trkpt lat="46.8724" lon="5.74862">
        <ele>483.2</ele>
        <time>2014-08-04T11:48:06Z</time>
      </trkpt>
      <trkpt lat="46.87282" lon="5.74895">
        <ele>483.68</ele>
        <time>2014-08-04T11:48:13Z</time>
      </trkpt>
      <trkpt lat="46.87306" lon="5.74938">
        <ele>481.28</ele>
        <time>2014-08-04T11:48:18Z</time>
      </trkpt>
      <trkpt lat="46.87314" lon="5.74963">
        <ele>479.35</ele>
        <time>2014-08-04T11:48:20Z</time>
      </trkpt>
      <trkpt lat="46.87323" lon="5.75004">
        <ele>477.91</ele>
        <time>2014-08-04T11:48:23Z</time>
      </trkpt>
      <trkpt lat="46.87349" lon="5.75093">
        <ele>478.39</ele>
        <time>2014-08-04T11:48:31Z</time>
      </trkpt>
      <trkpt lat="46.87375" lon="5.75139">
        <ele>481.28</ele>
        <time>2014-08-04T11:48:41Z</time>
      </trkpt>
      <trkpt lat="46.874" lon="5.75167">
        <ele>483.2</ele>
        <time>2014-08-04T11:48:54Z</time>
      </trkpt>
      <trkpt lat="46.87407" lon="5.75174">
        <ele>484.16</ele>
        <time>2014-08-04T11:48:59Z</time>
      </trkpt>
      <trkpt lat="46.8741" lon="5.7518">
        <ele>484.64</ele>
        <time>2014-08-04T11:49:02Z</time>
      </trkpt>
      <trkpt lat="46.87417" lon="5.75196">
        <ele>487.05</ele>
        <time>2014-08-04T11:49:14Z</time>
      </trkpt>
      <trkpt lat="46.87438" lon="5.75215">
        <ele>490.41</ele>
        <time>2014-08-04T11:49:29Z</time>
      </trkpt>
      <trkpt lat="46.87447" lon="5.75222">
        <ele>491.37</ele>
        <time>2014-08-04T11:49:37Z</time>
      </trkpt>
      <trkpt lat="46.87453" lon="5.75229">
        <ele>492.33</ele>
        <time>2014-08-04T11:49:42Z</time>
      </trkpt>
      <trkpt lat="46.87484" lon="5.75249">
        <ele>495.22</ele>
        <time>2014-08-04T11:49:55Z</time>
      </trkpt>
      <trkpt lat="46.87508" lon="5.75262">
        <ele>498.1</ele>
        <time>2014-08-04T11:50:09Z</time>
      </trkpt>
      <trkpt lat="46.87544" lon="5.75273">
        <ele>500.02</ele>
        <time>2014-08-04T11:50:23Z</time>
      </trkpt>
      <trkpt lat="46.87569" lon="5.75281">
        <ele>499.54</ele>
        <time>2014-08-04T11:50:30Z</time>
      </trkpt>
      <trkpt lat="46.87592" lon="5.7529">
        <ele>499.06</ele>
        <time>2014-08-04T11:50:35Z</time>
      </trkpt>
      <trkpt lat="46.87677" lon="5.75357">
        <ele>496.18</ele>
        <time>2014-08-04T11:50:51Z</time>
      </trkpt>
      <trkpt lat="46.87748" lon="5.75412">
        <ele>492.81</ele>
        <time>2014-08-04T11:51:01Z</time>
      </trkpt>
      <trkpt lat="46.87808" lon="5.75456">
        <ele>488.97</ele>
        <time>2014-08-04T11:51:08Z</time>
      </trkpt>
      <trkpt lat="46.87827" lon="5.75469">
        <ele>488.49</ele>
        <time>2014-08-04T11:51:10Z</time>
      </trkpt>
      <trkpt lat="46.87909" lon="5.7553">
        <ele>484.64</ele>
        <time>2014-08-04T11:51:19Z</time>
      </trkpt>
      <trkpt lat="46.87957" lon="5.75569">
        <ele>481.76</ele>
        <time>2014-08-04T11:51:24Z</time>
      </trkpt>
      <trkpt lat="46.87976" lon="5.75583">
        <ele>480.8</ele>
        <time>2014-08-04T11:51:26Z</time>
      </trkpt>
      <trkpt lat="46.88031" lon="5.75635">
        <ele>479.84</ele>
        <time>2014-08-04T11:51:33Z</time>
      </trkpt>
      <trkpt lat="46.88103" lon="5.75702">
        <ele>475.99</ele>
        <time>2014-08-04T11:51:43Z</time>
      </trkpt>
      <trkpt lat="46.88136" lon="5.75736">
        <ele>472.14</ele>
        <time>2014-08-04T11:51:47Z</time>
      </trkpt>
      <trkpt lat="46.88159" lon="5.75763">
        <ele>469.74</ele>
        <time>2014-08-04T11:51:50Z</time>
      </trkpt>
      <trkpt lat="46.88209" lon="5.75834">
        <ele>465.9</ele>
        <time>2014-08-04T11:51:58Z</time>
      </trkpt>
      <trkpt lat="46.88262" lon="5.75917">
        <ele>462.53</ele>
        <time>2014-08-04T11:52:07Z</time>
      </trkpt>
      <trkpt lat="46.88316" lon="5.75992">
        <ele>460.61</ele>
        <time>2014-08-04T11:52:16Z</time>
      </trkpt>
      <trkpt lat="46.88377" lon="5.76033">
        <ele>457.72</ele>
        <time>2014-08-04T11:52:24Z</time>
      </trkpt>
      <trkpt lat="46.88449" lon="5.76063">
        <ele>454.36</ele>
        <time>2014-08-04T11:52:35Z</time>
      </trkpt>
      <trkpt lat="46.88451" lon="5.76062">
        <ele>454.36</ele>
        <time>2014-08-04T11:52:45Z</time>
      </trkpt>
      <trkpt lat="46.88451" lon="5.76062">
        <ele>454.36</ele>
        <time>2014-08-04T11:53:10Z</time>
      </trkpt>
      <trkpt lat="46.88461" lon="5.76064">
        <ele>453.88</ele>
        <time>2014-08-04T11:53:21Z</time>
      </trkpt>
      <trkpt lat="46.88474" lon="5.76067">
        <ele>453.4</ele>
        <time>2014-08-04T11:53:24Z</time>
      </trkpt>
      <trkpt lat="46.88485" lon="5.76072">
        <ele>452.92</ele>
        <time>2014-08-04T11:53:26Z</time>
      </trkpt>
      <trkpt lat="46.88515" lon="5.76097">
        <ele>451</ele>
        <time>2014-08-04T11:53:31Z</time>
      </trkpt>
      <trkpt lat="46.88556" lon="5.76149">
        <ele>446.19</ele>
        <time>2014-08-04T11:53:37Z</time>
      </trkpt>
      <trkpt lat="46.88591" lon="5.76184">
        <ele>442.82</ele>
        <time>2014-08-04T11:53:41Z</time>
      </trkpt>
      <trkpt lat="46.8864" lon="5.76227">
        <ele>439.94</ele>
        <time>2014-08-04T11:53:46Z</time>
      </trkpt>
      <trkpt lat="46.8866" lon="5.76245">
        <ele>438.5</ele>
        <time>2014-08-04T11:53:48Z</time>
      </trkpt>
      <trkpt lat="46.88716" lon="5.7631">
        <ele>434.17</ele>
        <time>2014-08-04T11:53:54Z</time>
      </trkpt>
      <trkpt lat="46.88747" lon="5.76339">
        <ele>431.77</ele>
        <time>2014-08-04T11:53:57Z</time>
      </trkpt>
      <trkpt lat="46.88794" lon="5.76365">
        <ele>426.96</ele>
        <time>2014-08-04T11:54:01Z</time>
      </trkpt>
      <trkpt lat="46.88831" lon="5.76383">
        <ele>424.56</ele>
        <time>2014-08-04T11:54:04Z</time>
      </trkpt>
      <trkpt lat="46.88883" lon="5.76386">
        <ele>420.23</ele>
        <time>2014-08-04T11:54:08Z</time>
      </trkpt>
      <trkpt lat="46.88922" lon="5.76383">
        <ele>417.83</ele>
        <time>2014-08-04T11:54:11Z</time>
      </trkpt>
      <trkpt lat="46.88971" lon="5.76406">
        <ele>413.98</ele>
        <time>2014-08-04T11:54:15Z</time>
      </trkpt>
      <trkpt lat="46.88994" lon="5.76425">
        <ele>411.58</ele>
        <time>2014-08-04T11:54:17Z</time>
      </trkpt>
      <trkpt lat="46.89032" lon="5.76477">
        <ele>408.22</ele>
        <time>2014-08-04T11:54:21Z</time>
      </trkpt>
      <trkpt lat="46.89075" lon="5.76512">
        <ele>403.89</ele>
        <time>2014-08-04T11:54:25Z</time>
      </trkpt>
      <trkpt lat="46.8911" lon="5.76508">
        <ele>400.05</ele>
        <time>2014-08-04T11:54:28Z</time>
      </trkpt>
      <trkpt lat="46.89149" lon="5.76519">
        <ele>396.68</ele>
        <time>2014-08-04T11:54:32Z</time>
      </trkpt>
      <trkpt lat="46.8917" lon="5.76553">
        <ele>394.28</ele>
        <time>2014-08-04T11:54:35Z</time>
      </trkpt>
      <trkpt lat="46.89231" lon="5.76604">
        <ele>388.99</ele>
        <time>2014-08-04T11:54:42Z</time>
      </trkpt>
      <trkpt lat="46.89267" lon="5.7658">
        <ele>386.11</ele>
        <time>2014-08-04T11:54:46Z</time>
      </trkpt>
      <trkpt lat="46.89297" lon="5.7657">
        <ele>383.7</ele>
        <time>2014-08-04T11:54:49Z</time>
      </trkpt>
      <trkpt lat="46.89349" lon="5.76563">
        <ele>378.42</ele>
        <time>2014-08-04T11:54:54Z</time>
      </trkpt>
      <trkpt lat="46.89396" lon="5.76567">
        <ele>375.05</ele>
        <time>2014-08-04T11:54:59Z</time>
      </trkpt>
      <trkpt lat="46.89405" lon="5.76568">
        <ele>374.57</ele>
        <time>2014-08-04T11:55:00Z</time>
      </trkpt>
      <trkpt lat="46.89449" lon="5.76596">
        <ele>370.73</ele>
        <time>2014-08-04T11:55:05Z</time>
      </trkpt>
      <trkpt lat="46.89483" lon="5.76608">
        <ele>367.84</ele>
        <time>2014-08-04T11:55:09Z</time>
      </trkpt>
      <trkpt lat="46.89498" lon="5.76605">
        <ele>365.44</ele>
        <time>2014-08-04T11:55:16Z</time>
      </trkpt>
      <trkpt lat="46.89498" lon="5.76605">
        <ele>365.44</ele>
        <time>2014-08-04T11:55:42Z</time>
      </trkpt>
      <trkpt lat="46.89516" lon="5.76593">
        <ele>364.48</ele>
        <time>2014-08-04T11:55:51Z</time>
      </trkpt>
      <trkpt lat="46.89545" lon="5.76565">
        <ele>362.07</ele>
        <time>2014-08-04T11:55:56Z</time>
      </trkpt>
      <trkpt lat="46.89565" lon="5.76528">
        <ele>360.15</ele>
        <time>2014-08-04T11:56:00Z</time>
      </trkpt>
      <trkpt lat="46.89593" lon="5.76496">
        <ele>356.79</ele>
        <time>2014-08-04T11:56:06Z</time>
      </trkpt>
      <trkpt lat="46.89596" lon="5.76526">
        <ele>354.86</ele>
        <time>2014-08-04T11:56:09Z</time>
      </trkpt>
      <trkpt lat="46.89582" lon="5.76594">
        <ele>351.5</ele>
        <time>2014-08-04T11:56:15Z</time>
      </trkpt>
      <trkpt lat="46.89572" lon="5.76663">
        <ele>348.13</ele>
        <time>2014-08-04T11:56:20Z</time>
      </trkpt>
      <trkpt lat="46.89562" lon="5.76706">
        <ele>345.73</ele>
        <time>2014-08-04T11:56:23Z</time>
      </trkpt>
      <trkpt lat="46.89544" lon="5.76764">
        <ele>342.37</ele>
        <time>2014-08-04T11:56:27Z</time>
      </trkpt>
      <trkpt lat="46.89535" lon="5.76793">
        <ele>340.92</ele>
        <time>2014-08-04T11:56:29Z</time>
      </trkpt>
      <trkpt lat="46.89502" lon="5.76829">
        <ele>336.6</ele>
        <time>2014-08-04T11:56:33Z</time>
      </trkpt>
      <trkpt lat="46.89492" lon="5.76832">
        <ele>336.12</ele>
        <time>2014-08-04T11:56:34Z</time>
      </trkpt>
      <trkpt lat="46.89449" lon="5.76841">
        <ele>333.23</ele>
        <time>2014-08-04T11:56:38Z</time>
      </trkpt>
      <trkpt lat="46.89415" lon="5.76889">
        <ele>329.39</ele>
        <time>2014-08-04T11:56:43Z</time>
      </trkpt>
      <trkpt lat="46.89429" lon="5.7693">
        <ele>326.99</ele>
        <time>2014-08-04T11:56:47Z</time>
      </trkpt>
      <trkpt lat="46.89435" lon="5.76935">
        <ele>326.02</ele>
        <time>2014-08-04T11:56:48Z</time>
      </trkpt>
      <trkpt lat="46.895" lon="5.76981">
        <ele>322.18</ele>
        <time>2014-08-04T11:56:56Z</time>
      </trkpt>
      <trkpt lat="46.89569" lon="5.77036">
        <ele>318.81</ele>
        <time>2014-08-04T11:57:05Z</time>
      </trkpt>
      <trkpt lat="46.89577" lon="5.77042">
        <ele>318.33</ele>
        <time>2014-08-04T11:57:06Z</time>
      </trkpt>
      <trkpt lat="46.89662" lon="5.77098">
        <ele>315.45</ele>
        <time>2014-08-04T11:57:17Z</time>
      </trkpt>
      <trkpt lat="46.89739" lon="5.77131">
        <ele>312.57</ele>
        <time>2014-08-04T11:57:27Z</time>
      </trkpt>
      <trkpt lat="46.89836" lon="5.77199">
        <ele>309.68</ele>
        <time>2014-08-04T11:57:41Z</time>
      </trkpt>
      <trkpt lat="46.8992" lon="5.77224">
        <ele>308.24</ele>
        <time>2014-08-04T11:57:53Z</time>
      </trkpt>
      <trkpt lat="46.89971" lon="5.77227">
        <ele>306.8</ele>
        <time>2014-08-04T11:58:01Z</time>
      </trkpt>
      <trkpt lat="46.8999" lon="5.77247">
        <ele>306.32</ele>
        <time>2014-08-04T11:58:05Z</time>
      </trkpt>
      <trkpt lat="46.90004" lon="5.77274">
        <ele>305.84</ele>
        <time>2014-08-04T11:58:09Z</time>
      </trkpt>
      <trkpt lat="46.90016" lon="5.77301">
        <ele>305.36</ele>
        <time>2014-08-04T11:58:13Z</time>
      </trkpt>
      <trkpt lat="46.90031" lon="5.77323">
        <ele>304.39</ele>
        <time>2014-08-04T11:58:20Z</time>
      </trkpt>
      <trkpt lat="46.9005" lon="5.77312">
        <ele>303.91</ele>
        <time>2014-08-04T11:58:30Z</time>
      </trkpt>
      <trkpt lat="46.90094" lon="5.77272">
        <ele>302.47</ele>
        <time>2014-08-04T11:58:42Z</time>
      </trkpt>
      <trkpt lat="46.90142" lon="5.77228">
        <ele>301.99</ele>
        <time>2014-08-04T11:58:57Z</time>
      </trkpt>
      <trkpt lat="46.90169" lon="5.77204">
        <ele>302.47</ele>
        <time>2014-08-04T11:59:09Z</time>
      </trkpt>
      <trkpt lat="46.90199" lon="5.77182">
        <ele>302.95</ele>
        <time>2014-08-04T11:59:20Z</time>
      </trkpt>
      <trkpt lat="46.90203" lon="5.77182">
        <ele>302.95</ele>
        <time>2014-08-04T11:59:21Z</time>
      </trkpt>
      <trkpt lat="46.90229" lon="5.77203">
        <ele>302.47</ele>
        <time>2014-08-04T11:59:31Z</time>
      </trkpt>
      <trkpt lat="46.90246" lon="5.77219">
        <ele>301.99</ele>
        <time>2014-08-04T11:59:41Z</time>
      </trkpt>
      <trkpt lat="46.90248" lon="5.77218">
        <ele>301.99</ele>
        <time>2014-08-04T11:59:42Z</time>
      </trkpt>
      <trkpt lat="46.90247" lon="5.77215">
        <ele>301.99</ele>
        <time>2014-08-04T11:59:44Z</time>
      </trkpt>
      <trkpt lat="46.90243" lon="5.77211">
        <ele>302.47</ele>
        <time>2014-08-04T11:59:59Z</time>
      </trkpt>
      <trkpt lat="46.90243" lon="5.77211">
        <ele>302.47</ele>
        <time>2014-08-04T12:00:23Z</time>
      </trkpt>
      <trkpt lat="46.90242" lon="5.77215">
        <ele>302.47</ele>
        <time>2014-08-04T12:00:35Z</time>
      </trkpt>
      <trkpt lat="46.90243" lon="5.77216">
        <ele>302.47</ele>
        <time>2014-08-04T12:00:36Z</time>
      </trkpt>
      <trkpt lat="46.90247" lon="5.77222">
        <ele>302.47</ele>
        <time>2014-08-04T12:00:39Z</time>
      </trkpt>
      <trkpt lat="46.90256" lon="5.77238">
        <ele>302.47</ele>
        <time>2014-08-04T12:00:44Z</time>
      </trkpt>
      <trkpt lat="46.90261" lon="5.77242">
        <ele>302.47</ele>
        <time>2014-08-04T12:00:46Z</time>
      </trkpt>
      <trkpt lat="46.90285" lon="5.77267">
        <ele>302.95</ele>
        <time>2014-08-04T12:00:56Z</time>
      </trkpt>
      <trkpt lat="46.90308" lon="5.77296">
        <ele>303.43</ele>
        <time>2014-08-04T12:01:09Z</time>
      </trkpt>
      <trkpt lat="46.90314" lon="5.77307">
        <ele>303.91</ele>
        <time>2014-08-04T12:01:13Z</time>
      </trkpt>
      <trkpt lat="46.90321" lon="5.77308">
        <ele>303.91</ele>
        <time>2014-08-04T12:01:16Z</time>
      </trkpt>
      <trkpt lat="46.90323" lon="5.77288">
        <ele>303.43</ele>
        <time>2014-08-04T12:01:22Z</time>
      </trkpt>
      <trkpt lat="46.90318" lon="5.77283">
        <ele>303.43</ele>
        <time>2014-08-04T12:01:24Z</time>
      </trkpt>
      <trkpt lat="46.90317" lon="5.77281">
        <ele>303.43</ele>
        <time>2014-08-04T12:01:25Z</time>
      </trkpt>
      <trkpt lat="46.9032" lon="5.77263">
        <ele>303.43</ele>
        <time>2014-08-04T12:01:38Z</time>
      </trkpt>
      <trkpt lat="46.9032" lon="5.77263">
        <ele>303.43</ele>
        <time>2014-08-04T12:01:54Z</time>
      </trkpt>
      <trkpt lat="46.90321" lon="5.77263">
        <ele>303.43</ele>
        <time>2014-08-04T12:02:18Z</time>
      </trkpt>
      <trkpt lat="46.90323" lon="5.77266">
        <ele>303.43</ele>
        <time>2014-08-04T12:02:38Z</time>
      </trkpt>
      <trkpt lat="46.90324" lon="5.77268">
        <ele>303.43</ele>
        <time>2014-08-04T12:02:39Z</time>
      </trkpt>
      <trkpt lat="46.90331" lon="5.77272">
        <ele>303.43</ele>
        <time>2014-08-04T12:02:43Z</time>
      </trkpt>
      <trkpt lat="46.90332" lon="5.77279">
        <ele>302.95</ele>
        <time>2014-08-04T12:02:45Z</time>
      </trkpt>
      <trkpt lat="46.90329" lon="5.77281">
        <ele>302.95</ele>
        <time>2014-08-04T12:02:47Z</time>
      </trkpt>
      <trkpt lat="46.90314" lon="5.77283">
        <ele>303.91</ele>
        <time>2014-08-04T12:02:56Z</time>
      </trkpt>
      <trkpt lat="46.90312" lon="5.77283">
        <ele>303.91</ele>
        <time>2014-08-04T12:03:10Z</time>
      </trkpt>
      <trkpt lat="46.90296" lon="5.77271">
        <ele>303.43</ele>
        <time>2014-08-04T12:03:20Z</time>
      </trkpt>
      <trkpt lat="46.90272" lon="5.77249">
        <ele>302.95</ele>
        <time>2014-08-04T12:03:31Z</time>
      </trkpt>
      <trkpt lat="46.90255" lon="5.77245">
        <ele>302.47</ele>
        <time>2014-08-04T12:03:42Z</time>
      </trkpt>
      <trkpt lat="46.90235" lon="5.77253">
        <ele>302.47</ele>
        <time>2014-08-04T12:03:51Z</time>
      </trkpt>
      <trkpt lat="46.90224" lon="5.77265">
        <ele>301.99</ele>
        <time>2014-08-04T12:03:56Z</time>
      </trkpt>
      <trkpt lat="46.90221" lon="5.77268">
        <ele>302.47</ele>
        <time>2014-08-04T12:03:57Z</time>
      </trkpt>
      <trkpt lat="46.90209" lon="5.77272">
        <ele>302.47</ele>
        <time>2014-08-04T12:04:04Z</time>
      </trkpt>
      <trkpt lat="46.90209" lon="5.77275">
        <ele>302.47</ele>
        <time>2014-08-04T12:04:06Z</time>
      </trkpt>
      <trkpt lat="46.90208" lon="5.77278">
        <ele>302.47</ele>
        <time>2014-08-04T12:04:09Z</time>
      </trkpt>
      <trkpt lat="46.90182" lon="5.7726">
        <ele>302.47</ele>
        <time>2014-08-04T12:04:19Z</time>
      </trkpt>
      <trkpt lat="46.90178" lon="5.77258">
        <ele>302.95</ele>
        <time>2014-08-04T12:04:37Z</time>
      </trkpt>
      <trkpt lat="46.90171" lon="5.7725">
        <ele>302.95</ele>
        <time>2014-08-04T12:04:58Z</time>
      </trkpt>
      <trkpt lat="46.90171" lon="5.7725">
        <ele>302.95</ele>
        <time>2014-08-04T12:05:19Z</time>
      </trkpt>
      <trkpt lat="46.9017" lon="5.77248">
        <ele>302.95</ele>
        <time>2014-08-04T12:05:23Z</time>
      </trkpt>
      <trkpt lat="46.90153" lon="5.77232">
        <ele>303.43</ele>
        <time>2014-08-04T12:05:34Z</time>
      </trkpt>
      <trkpt lat="46.90154" lon="5.77233">
        <ele>302.95</ele>
        <time>2014-08-04T12:05:37Z</time>
      </trkpt>
      <trkpt lat="46.90157" lon="5.77232">
        <ele>303.43</ele>
        <time>2014-08-04T12:05:51Z</time>
      </trkpt>
      <trkpt lat="46.90157" lon="5.77232">
        <ele>302.95</ele>
        <time>2014-08-04T12:06:14Z</time>
      </trkpt>
      <trkpt lat="46.90155" lon="5.77231">
        <ele>303.43</ele>
        <time>2014-08-04T12:06:19Z</time>
      </trkpt>
      <trkpt lat="46.90151" lon="5.77232">
        <ele>303.43</ele>
        <time>2014-08-04T12:06:23Z</time>
      </trkpt>
      <trkpt lat="46.90145" lon="5.77234">
        <ele>303.43</ele>
        <time>2014-08-04T12:06:35Z</time>
      </trkpt>
      <trkpt lat="46.90146" lon="5.77232">
        <ele>303.43</ele>
        <time>2014-08-04T12:06:49Z</time>
      </trkpt>
      <trkpt lat="46.90133" lon="5.77241">
        <ele>302.95</ele>
        <time>2014-08-04T12:07:03Z</time>
      </trkpt>
      <trkpt lat="46.90108" lon="5.77264">
        <ele>303.43</ele>
        <time>2014-08-04T12:07:14Z</time>
      </trkpt>
      <trkpt lat="46.90102" lon="5.77272">
        <ele>303.43</ele>
        <time>2014-08-04T12:07:18Z</time>
      </trkpt>
      <trkpt lat="46.90114" lon="5.77296">
        <ele>302.47</ele>
        <time>2014-08-04T12:07:29Z</time>
      </trkpt>
      <trkpt lat="46.90135" lon="5.77326">
        <ele>301.03</ele>
        <time>2014-08-04T12:07:37Z</time>
      </trkpt>
      <trkpt lat="46.90133" lon="5.7734">
        <ele>301.99</ele>
        <time>2014-08-04T12:07:47Z</time>
      </trkpt>
      <trkpt lat="46.90136" lon="5.77346">
        <ele>301.99</ele>
        <time>2014-08-04T12:08:04Z</time>
      </trkpt>
      <trkpt lat="46.90137" lon="5.77349">
        <ele>301.99</ele>
        <time>2014-08-04T12:08:05Z</time>
      </trkpt>
      <trkpt lat="46.90137" lon="5.7738">
        <ele>301.03</ele>
        <time>2014-08-04T12:08:11Z</time>
      </trkpt>
      <trkpt lat="46.90154" lon="5.77414">
        <ele>302.47</ele>
        <time>2014-08-04T12:08:21Z</time>
      </trkpt>
      <trkpt lat="46.90176" lon="5.77442">
        <ele>303.91</ele>
        <time>2014-08-04T12:08:32Z</time>
      </trkpt>
      <trkpt lat="46.90182" lon="5.77448">
        <ele>304.39</ele>
        <time>2014-08-04T12:08:35Z</time>
      </trkpt>
      <trkpt lat="46.90187" lon="5.77444">
        <ele>304.88</ele>
        <time>2014-08-04T12:08:39Z</time>
      </trkpt>
      <trkpt lat="46.90204" lon="5.7738">
        <ele>304.88</ele>
        <time>2014-08-04T12:08:54Z</time>
      </trkpt>
      <trkpt lat="46.90207" lon="5.77364">
        <ele>304.39</ele>
        <time>2014-08-04T12:08:57Z</time>
      </trkpt>
      <trkpt lat="46.90211" lon="5.77298">
        <ele>301.99</ele>
        <time>2014-08-04T12:09:09Z</time>
      </trkpt>
      <trkpt lat="46.90214" lon="5.77279">
        <ele>301.03</ele>
        <time>2014-08-04T12:09:14Z</time>
      </trkpt>
      <trkpt lat="46.90222" lon="5.7726">
        <ele>301.03</ele>
        <time>2014-08-04T12:09:22Z</time>
      </trkpt>
      <trkpt lat="46.90196" lon="5.77258">
        <ele>301.51</ele>
        <time>2014-08-04T12:09:33Z</time>
      </trkpt>
      <trkpt lat="46.90193" lon="5.77258">
        <ele>301.03</ele>
        <time>2014-08-04T12:09:44Z</time>
      </trkpt>
      <trkpt lat="46.90193" lon="5.77258">
        <ele>301.51</ele>
        <time>2014-08-04T12:09:49Z</time>
      </trkpt>
      <trkpt lat="46.90182" lon="5.77249">
        <ele>301.51</ele>
        <time>2014-08-04T12:09:53Z</time>
      </trkpt>
      <trkpt lat="46.90177" lon="5.77244">
        <ele>301.51</ele>
        <time>2014-08-04T12:10:03Z</time>
      </trkpt>
      <trkpt lat="46.90177" lon="5.77244">
        <ele>301.51</ele>
        <time>2014-08-04T12:10:24Z</time>
      </trkpt>
      <trkpt lat="46.90178" lon="5.77247">
        <ele>301.03</ele>
        <time>2014-08-04T12:10:40Z</time>
      </trkpt>
      <trkpt lat="46.90179" lon="5.77248">
        <ele>300.55</ele>
        <time>2014-08-04T12:10:47Z</time>
      </trkpt>
      <trkpt lat="46.90184" lon="5.77254">
        <ele>300.07</ele>
        <time>2014-08-04T12:10:53Z</time>
      </trkpt>
      <trkpt lat="46.90187" lon="5.77256">
        <ele>300.07</ele>
        <time>2014-08-04T12:10:55Z</time>
      </trkpt>
      <trkpt lat="46.90189" lon="5.77257">
        <ele>299.59</ele>
        <time>2014-08-04T12:10:56Z</time>
      </trkpt>
      <trkpt lat="46.90193" lon="5.7726">
        <ele>299.59</ele>
        <time>2014-08-04T12:10:58Z</time>
      </trkpt>
      <trkpt lat="46.90218" lon="5.77259">
        <ele>300.07</ele>
        <time>2014-08-04T12:11:11Z</time>
      </trkpt>
      <trkpt lat="46.90241" lon="5.77247">
        <ele>300.55</ele>
        <time>2014-08-04T12:11:21Z</time>
      </trkpt>
      <trkpt lat="46.90242" lon="5.77244">
        <ele>300.55</ele>
        <time>2014-08-04T12:11:22Z</time>
      </trkpt>
      <trkpt lat="46.90244" lon="5.77244">
        <ele>301.03</ele>
        <time>2014-08-04T12:11:23Z</time>
      </trkpt>
      <trkpt lat="46.90247" lon="5.77244">
        <ele>301.03</ele>
        <time>2014-08-04T12:11:24Z</time>
      </trkpt>
      <trkpt lat="46.90302" lon="5.77279">
        <ele>301.51</ele>
        <time>2014-08-04T12:11:41Z</time>
      </trkpt>
      <trkpt lat="46.90313" lon="5.77296">
        <ele>301.99</ele>
        <time>2014-08-04T12:11:48Z</time>
      </trkpt>
      <trkpt lat="46.90315" lon="5.773">
        <ele>301.99</ele>
        <time>2014-08-04T12:11:50Z</time>
      </trkpt>
      <trkpt lat="46.90314" lon="5.77332">
        <ele>302.47</ele>
        <time>2014-08-04T12:12:03Z</time>
      </trkpt>
      <trkpt lat="46.9032" lon="5.77334">
        <ele>302.47</ele>
        <time>2014-08-04T12:12:16Z</time>
      </trkpt>
      <trkpt lat="46.9032" lon="5.77331">
        <ele>302.47</ele>
        <time>2014-08-04T12:12:21Z</time>
      </trkpt>
      <trkpt lat="46.90314" lon="5.77326">
        <ele>302.47</ele>
        <time>2014-08-04T12:12:26Z</time>
      </trkpt>
      <trkpt lat="46.90312" lon="5.77315">
        <ele>301.99</ele>
        <time>2014-08-04T12:12:39Z</time>
      </trkpt>
      <trkpt lat="46.90311" lon="5.77313">
        <ele>301.51</ele>
        <time>2014-08-04T12:12:55Z</time>
      </trkpt>
      <trkpt lat="46.90311" lon="5.77313">
        <ele>301.51</ele>
        <time>2014-08-04T12:13:01Z</time>
      </trkpt>
      <trkpt lat="46.90309" lon="5.77302">
        <ele>301.03</ele>
        <time>2014-08-04T12:24:22Z</time>
      </trkpt>
      <trkpt lat="46.90309" lon="5.77304">
        <ele>300.55</ele>
        <time>2014-08-04T12:24:23Z</time>
      </trkpt>
      <trkpt lat="46.90321" lon="5.77292">
        <ele>300.55</ele>
        <time>2014-08-04T12:24:48Z</time>
      </trkpt>
      <trkpt lat="46.90323" lon="5.77284">
        <ele>300.55</ele>
        <time>2014-08-04T12:25:08Z</time>
      </trkpt>
      <trkpt lat="46.90324" lon="5.77283">
        <ele>304.88</ele>
        <time>2014-08-04T12:25:10Z</time>
      </trkpt>
      <trkpt lat="46.90322" lon="5.77284">
        <ele>308.72</ele>
        <time>2014-08-04T12:25:12Z</time>
      </trkpt>
      <trkpt lat="46.90317" lon="5.77285">
        <ele>314.01</ele>
        <time>2014-08-04T12:25:15Z</time>
      </trkpt>
      <trkpt lat="46.90314" lon="5.77289">
        <ele>316.89</ele>
        <time>2014-08-04T12:25:17Z</time>
      </trkpt>
      <trkpt lat="46.9031" lon="5.7731">
        <ele>321.7</ele>
        <time>2014-08-04T12:25:21Z</time>
      </trkpt>
      <trkpt lat="46.90314" lon="5.77316">
        <ele>322.66</ele>
        <time>2014-08-04T12:25:23Z</time>
      </trkpt>
      <trkpt lat="46.90323" lon="5.77325">
        <ele>325.54</ele>
        <time>2014-08-04T12:25:28Z</time>
      </trkpt>
      <trkpt lat="46.90341" lon="5.77343">
        <ele>329.39</ele>
        <time>2014-08-04T12:25:35Z</time>
      </trkpt>
      <trkpt lat="46.90354" lon="5.7736">
        <ele>332.75</ele>
        <time>2014-08-04T12:25:41Z</time>
      </trkpt>
      <trkpt lat="46.90366" lon="5.77374">
        <ele>334.68</ele>
        <time>2014-08-04T12:25:47Z</time>
      </trkpt>
      <trkpt lat="46.90389" lon="5.77397">
        <ele>335.16</ele>
        <time>2014-08-04T12:25:59Z</time>
      </trkpt>
      <trkpt lat="46.90389" lon="5.77401">
        <ele>335.64</ele>
        <time>2014-08-04T12:26:03Z</time>
      </trkpt>
      <trkpt lat="46.90385" lon="5.77398">
        <ele>337.56</ele>
        <time>2014-08-04T12:26:11Z</time>
      </trkpt>
      <trkpt lat="46.90385" lon="5.77396">
        <ele>337.08</ele>
        <time>2014-08-04T12:26:13Z</time>
      </trkpt>
      <trkpt lat="46.90389" lon="5.77391">
        <ele>337.08</ele>
        <time>2014-08-04T12:26:17Z</time>
      </trkpt>
      <trkpt lat="46.90391" lon="5.77377">
        <ele>337.08</ele>
        <time>2014-08-04T12:26:22Z</time>
      </trkpt>
      <trkpt lat="46.90385" lon="5.77376">
        <ele>337.08</ele>
        <time>2014-08-04T12:26:30Z</time>
      </trkpt>
      <trkpt lat="46.9039" lon="5.77376">
        <ele>337.08</ele>
        <time>2014-08-04T12:26:37Z</time>
      </trkpt>
      <trkpt lat="46.90394" lon="5.77369">
        <ele>336.6</ele>
        <time>2014-08-04T12:26:41Z</time>
      </trkpt>
      <trkpt lat="46.90401" lon="5.77357">
        <ele>336.12</ele>
        <time>2014-08-04T12:26:44Z</time>
      </trkpt>
      <trkpt lat="46.90413" lon="5.77335">
        <ele>334.2</ele>
        <time>2014-08-04T12:26:49Z</time>
      </trkpt>
      <trkpt lat="46.90443" lon="5.77278">
        <ele>332.75</ele>
        <time>2014-08-04T12:27:00Z</time>
      </trkpt>
      <trkpt lat="46.90451" lon="5.77257">
        <ele>332.27</ele>
        <time>2014-08-04T12:27:03Z</time>
      </trkpt>
      <trkpt lat="46.90453" lon="5.7725">
        <ele>331.79</ele>
        <time>2014-08-04T12:27:04Z</time>
      </trkpt>
      <trkpt lat="46.90456" lon="5.77237">
        <ele>331.79</ele>
        <time>2014-08-04T12:27:06Z</time>
      </trkpt>
      <trkpt lat="46.90453" lon="5.77213">
        <ele>331.31</ele>
        <time>2014-08-04T12:27:10Z</time>
      </trkpt>
      <trkpt lat="46.9043" lon="5.77159">
        <ele>329.87</ele>
        <time>2014-08-04T12:27:20Z</time>
      </trkpt>
      <trkpt lat="46.90433" lon="5.77139">
        <ele>329.39</ele>
        <time>2014-08-04T12:27:24Z</time>
      </trkpt>
      <trkpt lat="46.90453" lon="5.77118">
        <ele>328.43</ele>
        <time>2014-08-04T12:27:29Z</time>
      </trkpt>
      <trkpt lat="46.90461" lon="5.77111">
        <ele>328.43</ele>
        <time>2014-08-04T12:27:31Z</time>
      </trkpt>
      <trkpt lat="46.90511" lon="5.77068">
        <ele>325.06</ele>
        <time>2014-08-04T12:27:43Z</time>
      </trkpt>
      <trkpt lat="46.90529" lon="5.77049">
        <ele>324.1</ele>
        <time>2014-08-04T12:27:47Z</time>
      </trkpt>
      <trkpt lat="46.90538" lon="5.77038">
        <ele>323.62</ele>
        <time>2014-08-04T12:27:49Z</time>
      </trkpt>
      <trkpt lat="46.90604" lon="5.76987">
        <ele>320.74</ele>
        <time>2014-08-04T12:28:04Z</time>
      </trkpt>
      <trkpt lat="46.90658" lon="5.76967">
        <ele>319.78</ele>
        <time>2014-08-04T12:28:16Z</time>
      </trkpt>
      <trkpt lat="46.90667" lon="5.76969">
        <ele>319.78</ele>
        <time>2014-08-04T12:28:27Z</time>
      </trkpt>
      <trkpt lat="46.90668" lon="5.7697">
        <ele>319.78</ele>
        <time>2014-08-04T12:28:43Z</time>
      </trkpt>
      <trkpt lat="46.90668" lon="5.7697">
        <ele>319.78</ele>
        <time>2014-08-04T12:29:12Z</time>
      </trkpt>
      <trkpt lat="46.90668" lon="5.7697">
        <ele>319.78</ele>
        <time>2014-08-04T12:29:37Z</time>
      </trkpt>
      <trkpt lat="46.90669" lon="5.76969">
        <ele>319.78</ele>
        <time>2014-08-04T12:29:42Z</time>
      </trkpt>
      <trkpt lat="46.90672" lon="5.76961">
        <ele>319.78</ele>
        <time>2014-08-04T12:29:53Z</time>
      </trkpt>
      <trkpt lat="46.90672" lon="5.76961">
        <ele>319.78</ele>
        <time>2014-08-04T12:29:55Z</time>
      </trkpt>
      <trkpt lat="46.90666" lon="5.76964">
        <ele>319.78</ele>
        <time>2014-08-04T12:30:03Z</time>
      </trkpt>
      <trkpt lat="46.90633" lon="5.76972">
        <ele>319.3</ele>
        <time>2014-08-04T12:30:17Z</time>
      </trkpt>
      <trkpt lat="46.90607" lon="5.76986">
        <ele>319.3</ele>
        <time>2014-08-04T12:30:27Z</time>
      </trkpt>
      <trkpt lat="46.90581" lon="5.77">
        <ele>320.26</ele>
        <time>2014-08-04T12:30:37Z</time>
      </trkpt>
      <trkpt lat="46.90576" lon="5.77004">
        <ele>320.74</ele>
        <time>2014-08-04T12:30:39Z</time>
      </trkpt>
      <trkpt lat="46.90567" lon="5.77009">
        <ele>321.22</ele>
        <time>2014-08-04T12:30:43Z</time>
      </trkpt>
      <trkpt lat="46.9056" lon="5.77014">
        <ele>321.7</ele>
        <time>2014-08-04T12:30:46Z</time>
      </trkpt>
      <trkpt lat="46.90531" lon="5.77045">
        <ele>323.14</ele>
        <time>2014-08-04T12:31:00Z</time>
      </trkpt>
      <trkpt lat="46.90502" lon="5.77076">
        <ele>324.58</ele>
        <time>2014-08-04T12:31:14Z</time>
      </trkpt>
      <trkpt lat="46.90492" lon="5.77086">
        <ele>324.58</ele>
        <time>2014-08-04T12:31:18Z</time>
      </trkpt>
      <trkpt lat="46.90454" lon="5.77111">
        <ele>326.99</ele>
        <time>2014-08-04T12:31:34Z</time>
      </trkpt>
      <trkpt lat="46.90429" lon="5.77135">
        <ele>327.95</ele>
        <time>2014-08-04T12:31:46Z</time>
      </trkpt>
      <trkpt lat="46.90407" lon="5.77181">
        <ele>328.91</ele>
        <time>2014-08-04T12:32:01Z</time>
      </trkpt>
      <trkpt lat="46.90384" lon="5.77233">
        <ele>330.35</ele>
        <time>2014-08-04T12:32:17Z</time>
      </trkpt>
      <trkpt lat="46.90361" lon="5.77275">
        <ele>331.79</ele>
        <time>2014-08-04T12:32:31Z</time>
      </trkpt>
      <trkpt lat="46.90339" lon="5.77287">
        <ele>332.75</ele>
        <time>2014-08-04T12:32:40Z</time>
      </trkpt>
      <trkpt lat="46.90314" lon="5.77289">
        <ele>332.75</ele>
        <time>2014-08-04T12:32:50Z</time>
      </trkpt>
      <trkpt lat="46.90311" lon="5.77288">
        <ele>333.23</ele>
        <time>2014-08-04T12:32:51Z</time>
      </trkpt>
      <trkpt lat="46.90301" lon="5.77275">
        <ele>333.23</ele>
        <time>2014-08-04T12:32:56Z</time>
      </trkpt>
      <trkpt lat="46.90275" lon="5.77241">
        <ele>332.27</ele>
        <time>2014-08-04T12:33:09Z</time>
      </trkpt>
      <trkpt lat="46.90251" lon="5.77214">
        <ele>331.79</ele>
        <time>2014-08-04T12:33:21Z</time>
      </trkpt>
      <trkpt lat="46.90247" lon="5.77211">
        <ele>331.31</ele>
        <time>2014-08-04T12:33:27Z</time>
      </trkpt>
      <trkpt lat="46.9025" lon="5.77226">
        <ele>331.31</ele>
        <time>2014-08-04T12:33:37Z</time>
      </trkpt>
      <trkpt lat="46.90251" lon="5.77227">
        <ele>331.31</ele>
        <time>2014-08-04T12:33:39Z</time>
      </trkpt>
      <trkpt lat="46.9026" lon="5.77217">
        <ele>330.35</ele>
        <time>2014-08-04T12:33:52Z</time>
      </trkpt>
      <trkpt lat="46.90259" lon="5.7722">
        <ele>330.35</ele>
        <time>2014-08-04T12:34:11Z</time>
      </trkpt>
      <trkpt lat="46.90259" lon="5.7722">
        <ele>328.91</ele>
        <time>2014-08-04T12:34:37Z</time>
      </trkpt>
      <trkpt lat="46.90258" lon="5.77222">
        <ele>328.91</ele>
        <time>2014-08-04T12:34:53Z</time>
      </trkpt>
      <trkpt lat="46.90253" lon="5.77229">
        <ele>329.39</ele>
        <time>2014-08-04T12:35:00Z</time>
      </trkpt>
      <trkpt lat="46.90257" lon="5.7723">
        <ele>329.39</ele>
        <time>2014-08-04T12:35:03Z</time>
      </trkpt>
      <trkpt lat="46.90272" lon="5.77247">
        <ele>329.87</ele>
        <time>2014-08-04T12:35:13Z</time>
      </trkpt>
      <trkpt lat="46.90311" lon="5.77283">
        <ele>329.87</ele>
        <time>2014-08-04T12:35:31Z</time>
      </trkpt>
      <trkpt lat="46.90314" lon="5.77317">
        <ele>330.35</ele>
        <time>2014-08-04T12:35:42Z</time>
      </trkpt>
      <trkpt lat="46.90314" lon="5.77318">
        <ele>330.35</ele>
        <time>2014-08-04T12:35:57Z</time>
      </trkpt>
      <trkpt lat="46.90313" lon="5.77318">
        <ele>329.87</ele>
        <time>2014-08-04T12:36:25Z</time>
      </trkpt>
      <trkpt lat="46.90313" lon="5.77318">
        <ele>329.39</ele>
        <time>2014-08-04T12:36:52Z</time>
      </trkpt>
      <trkpt lat="46.90315" lon="5.77318">
        <ele>329.39</ele>
        <time>2014-08-04T12:37:05Z</time>
      </trkpt>
      <trkpt lat="46.90317" lon="5.77321">
        <ele>328.91</ele>
        <time>2014-08-04T12:37:07Z</time>
      </trkpt>
      <trkpt lat="46.90328" lon="5.77301">
        <ele>328.43</ele>
        <time>2014-08-04T12:37:15Z</time>
      </trkpt>
      <trkpt lat="46.90306" lon="5.77282">
        <ele>328.43</ele>
        <time>2014-08-04T12:37:23Z</time>
      </trkpt>
      <trkpt lat="46.90282" lon="5.77255">
        <ele>327.47</ele>
        <time>2014-08-04T12:37:31Z</time>
      </trkpt>
      <trkpt lat="46.90272" lon="5.77244">
        <ele>327.47</ele>
        <time>2014-08-04T12:37:34Z</time>
      </trkpt>
      <trkpt lat="46.90266" lon="5.77235">
        <ele>326.99</ele>
        <time>2014-08-04T12:37:36Z</time>
      </trkpt>
      <trkpt lat="46.90255" lon="5.77224">
        <ele>326.99</ele>
        <time>2014-08-04T12:37:39Z</time>
      </trkpt>
      <trkpt lat="46.90243" lon="5.77209">
        <ele>326.5</ele>
        <time>2014-08-04T12:37:43Z</time>
      </trkpt>
      <trkpt lat="46.90203" lon="5.77174">
        <ele>326.99</ele>
        <time>2014-08-04T12:37:56Z</time>
      </trkpt>
      <trkpt lat="46.90197" lon="5.77169">
        <ele>326.5</ele>
        <time>2014-08-04T12:38:06Z</time>
      </trkpt>
      <trkpt lat="46.90197" lon="5.77169">
        <ele>326.5</ele>
        <time>2014-08-04T12:38:30Z</time>
      </trkpt>
      <trkpt lat="46.90197" lon="5.77169">
        <ele>326.5</ele>
        <time>2014-08-04T12:38:31Z</time>
      </trkpt>
      <trkpt lat="46.90202" lon="5.77179">
        <ele>326.5</ele>
        <time>2014-08-04T12:38:37Z</time>
      </trkpt>
      <trkpt lat="46.90213" lon="5.77192">
        <ele>326.02</ele>
        <time>2014-08-04T12:38:41Z</time>
      </trkpt>
      <trkpt lat="46.90252" lon="5.77236">
        <ele>325.54</ele>
        <time>2014-08-04T12:38:51Z</time>
      </trkpt>
      <trkpt lat="46.90266" lon="5.77249">
        <ele>325.54</ele>
        <time>2014-08-04T12:38:55Z</time>
      </trkpt>
      <trkpt lat="46.90284" lon="5.77263">
        <ele>326.02</ele>
        <time>2014-08-04T12:39:00Z</time>
      </trkpt>
      <trkpt lat="46.90308" lon="5.77289">
        <ele>326.5</ele>
        <time>2014-08-04T12:39:08Z</time>
      </trkpt>
      <trkpt lat="46.90316" lon="5.7731">
        <ele>326.99</ele>
        <time>2014-08-04T12:39:12Z</time>
      </trkpt>
      <trkpt lat="46.90305" lon="5.77364">
        <ele>327.47</ele>
        <time>2014-08-04T12:39:24Z</time>
      </trkpt>
      <trkpt lat="46.90274" lon="5.77446">
        <ele>328.91</ele>
        <time>2014-08-04T12:39:41Z</time>
      </trkpt>
      <trkpt lat="46.90246" lon="5.77523">
        <ele>329.87</ele>
        <time>2014-08-04T12:39:58Z</time>
      </trkpt>
      <trkpt lat="46.90241" lon="5.77568">
        <ele>330.35</ele>
        <time>2014-08-04T12:40:11Z</time>
      </trkpt>
      <trkpt lat="46.90243" lon="5.77573">
        <ele>330.83</ele>
        <time>2014-08-04T12:40:24Z</time>
      </trkpt>
      <trkpt lat="46.90243" lon="5.77575">
        <ele>330.83</ele>
        <time>2014-08-04T12:40:41Z</time>
      </trkpt>
      <trkpt lat="46.90244" lon="5.77576">
        <ele>330.83</ele>
        <time>2014-08-04T12:41:02Z</time>
      </trkpt>
      <trkpt lat="46.90246" lon="5.77583">
        <ele>331.79</ele>
        <time>2014-08-04T12:41:06Z</time>
      </trkpt>
      <trkpt lat="46.90249" lon="5.77612">
        <ele>333.23</ele>
        <time>2014-08-04T12:41:15Z</time>
      </trkpt>
      <trkpt lat="46.90249" lon="5.77653">
        <ele>335.16</ele>
        <time>2014-08-04T12:41:27Z</time>
      </trkpt>
      <trkpt lat="46.90242" lon="5.77705">
        <ele>337.56</ele>
        <time>2014-08-04T12:41:41Z</time>
      </trkpt>
      <trkpt lat="46.90237" lon="5.77757">
        <ele>339.48</ele>
        <time>2014-08-04T12:41:56Z</time>
      </trkpt>
      <trkpt lat="46.90231" lon="5.778">
        <ele>340.92</ele>
        <time>2014-08-04T12:42:07Z</time>
      </trkpt>
      <trkpt lat="46.90229" lon="5.77811">
        <ele>340.92</ele>
        <time>2014-08-04T12:42:09Z</time>
      </trkpt>
      <trkpt lat="46.90224" lon="5.77896">
        <ele>340.44</ele>
        <time>2014-08-04T12:42:24Z</time>
      </trkpt>
      <trkpt lat="46.90224" lon="5.77914">
        <ele>340.44</ele>
        <time>2014-08-04T12:42:27Z</time>
      </trkpt>
      <trkpt lat="46.90224" lon="5.77941">
        <ele>339.96</ele>
        <time>2014-08-04T12:42:31Z</time>
      </trkpt>
      <trkpt lat="46.90223" lon="5.78068">
        <ele>338.04</ele>
        <time>2014-08-04T12:42:47Z</time>
      </trkpt>
      <trkpt lat="46.90225" lon="5.782">
        <ele>337.08</ele>
        <time>2014-08-04T12:43:01Z</time>
      </trkpt>
      <trkpt lat="46.90227" lon="5.78333">
        <ele>337.08</ele>
        <time>2014-08-04T12:43:17Z</time>
      </trkpt>
      <trkpt lat="46.90226" lon="5.78444">
        <ele>337.56</ele>
        <time>2014-08-04T12:43:32Z</time>
      </trkpt>
      <trkpt lat="46.90226" lon="5.7858">
        <ele>338.52</ele>
        <time>2014-08-04T12:43:50Z</time>
      </trkpt>
      <trkpt lat="46.90228" lon="5.78705">
        <ele>338.52</ele>
        <time>2014-08-04T12:44:07Z</time>
      </trkpt>
      <trkpt lat="46.90228" lon="5.7882">
        <ele>339</ele>
        <time>2014-08-04T12:44:23Z</time>
      </trkpt>
      <trkpt lat="46.90229" lon="5.78863">
        <ele>339</ele>
        <time>2014-08-04T12:44:29Z</time>
      </trkpt>
      <trkpt lat="46.90238" lon="5.78928">
        <ele>339</ele>
        <time>2014-08-04T12:44:38Z</time>
      </trkpt>
      <trkpt lat="46.90247" lon="5.78988">
        <ele>338.52</ele>
        <time>2014-08-04T12:44:46Z</time>
      </trkpt>
      <trkpt lat="46.90248" lon="5.79012">
        <ele>339</ele>
        <time>2014-08-04T12:44:49Z</time>
      </trkpt>
      <trkpt lat="46.90246" lon="5.79048">
        <ele>339.96</ele>
        <time>2014-08-04T12:44:54Z</time>
      </trkpt>
      <trkpt lat="46.90242" lon="5.79067">
        <ele>340.44</ele>
        <time>2014-08-04T12:44:57Z</time>
      </trkpt>
      <trkpt lat="46.90231" lon="5.79102">
        <ele>340.92</ele>
        <time>2014-08-04T12:45:03Z</time>
      </trkpt>
      <trkpt lat="46.90209" lon="5.79162">
        <ele>341.89</ele>
        <time>2014-08-04T12:45:14Z</time>
      </trkpt>
      <trkpt lat="46.90206" lon="5.79173">
        <ele>341.89</ele>
        <time>2014-08-04T12:45:16Z</time>
      </trkpt>
      <trkpt lat="46.90193" lon="5.79243">
        <ele>344.77</ele>
        <time>2014-08-04T12:45:32Z</time>
      </trkpt>
      <trkpt lat="46.90184" lon="5.79289">
        <ele>347.65</ele>
        <time>2014-08-04T12:45:45Z</time>
      </trkpt>
      <trkpt lat="46.9017" lon="5.79315">
        <ele>347.65</ele>
        <time>2014-08-04T12:45:52Z</time>
      </trkpt>
      <trkpt lat="46.90154" lon="5.79362">
        <ele>347.17</ele>
        <time>2014-08-04T12:46:04Z</time>
      </trkpt>
      <trkpt lat="46.90154" lon="5.79362">
        <ele>346.69</ele>
        <time>2014-08-04T12:46:20Z</time>
      </trkpt>
      <trkpt lat="46.90154" lon="5.79362">
        <ele>346.69</ele>
        <time>2014-08-04T12:46:49Z</time>
      </trkpt>
      <trkpt lat="46.90154" lon="5.79362">
        <ele>346.21</ele>
        <time>2014-08-04T12:47:16Z</time>
      </trkpt>
      <trkpt lat="46.90154" lon="5.79362">
        <ele>346.21</ele>
        <time>2014-08-04T12:47:24Z</time>
      </trkpt>
      <trkpt lat="46.90148" lon="5.79394">
        <ele>346.69</ele>
        <time>2014-08-04T12:47:37Z</time>
      </trkpt>
      <trkpt lat="46.90152" lon="5.79452">
        <ele>348.62</ele>
        <time>2014-08-04T12:47:54Z</time>
      </trkpt>
      <trkpt lat="46.90166" lon="5.795">
        <ele>349.58</ele>
        <time>2014-08-04T12:48:08Z</time>
      </trkpt>
      <trkpt lat="46.90188" lon="5.79551">
        <ele>350.54</ele>
        <time>2014-08-04T12:48:23Z</time>
      </trkpt>
      <trkpt lat="46.90195" lon="5.79632">
        <ele>351.02</ele>
        <time>2014-08-04T12:48:39Z</time>
      </trkpt>
      <trkpt lat="46.90189" lon="5.79701">
        <ele>351.02</ele>
        <time>2014-08-04T12:48:51Z</time>
      </trkpt>
      <trkpt lat="46.90184" lon="5.79769">
        <ele>352.46</ele>
        <time>2014-08-04T12:49:04Z</time>
      </trkpt>
      <trkpt lat="46.90179" lon="5.79831">
        <ele>353.42</ele>
        <time>2014-08-04T12:49:17Z</time>
      </trkpt>
      <trkpt lat="46.90183" lon="5.79873">
        <ele>354.86</ele>
        <time>2014-08-04T12:49:27Z</time>
      </trkpt>
      <trkpt lat="46.90191" lon="5.79921">
        <ele>355.83</ele>
        <time>2014-08-04T12:49:40Z</time>
      </trkpt>
      <trkpt lat="46.90197" lon="5.79961">
        <ele>357.27</ele>
        <time>2014-08-04T12:49:52Z</time>
      </trkpt>
      <trkpt lat="46.90206" lon="5.80016">
        <ele>359.19</ele>
        <time>2014-08-04T12:50:07Z</time>
      </trkpt>
      <trkpt lat="46.90215" lon="5.80072">
        <ele>362.07</ele>
        <time>2014-08-04T12:50:25Z</time>
      </trkpt>
      <trkpt lat="46.90221" lon="5.80111">
        <ele>363.52</ele>
        <time>2014-08-04T12:50:40Z</time>
      </trkpt>
      <trkpt lat="46.90228" lon="5.80153">
        <ele>365.44</ele>
        <time>2014-08-04T12:50:56Z</time>
      </trkpt>
      <trkpt lat="46.90233" lon="5.80189">
        <ele>367.84</ele>
        <time>2014-08-04T12:51:10Z</time>
      </trkpt>
      <trkpt lat="46.90235" lon="5.80237">
        <ele>370.73</ele>
        <time>2014-08-04T12:51:29Z</time>
      </trkpt>
      <trkpt lat="46.90217" lon="5.80267">
        <ele>372.65</ele>
        <time>2014-08-04T12:51:43Z</time>
      </trkpt>
      <trkpt lat="46.90187" lon="5.80281">
        <ele>375.05</ele>
        <time>2014-08-04T12:51:59Z</time>
      </trkpt>
      <trkpt lat="46.90158" lon="5.80296">
        <ele>377.45</ele>
        <time>2014-08-04T12:52:16Z</time>
      </trkpt>
      <trkpt lat="46.90127" lon="5.8031">
        <ele>379.86</ele>
        <time>2014-08-04T12:52:34Z</time>
      </trkpt>
      <trkpt lat="46.90102" lon="5.80325">
        <ele>382.26</ele>
        <time>2014-08-04T12:52:50Z</time>
      </trkpt>
      <trkpt lat="46.90075" lon="5.80349">
        <ele>384.66</ele>
        <time>2014-08-04T12:53:08Z</time>
      </trkpt>
      <trkpt lat="46.90051" lon="5.80376">
        <ele>387.07</ele>
        <time>2014-08-04T12:53:25Z</time>
      </trkpt>
      <trkpt lat="46.90034" lon="5.80396">
        <ele>388.99</ele>
        <time>2014-08-04T12:53:39Z</time>
      </trkpt>
      <trkpt lat="46.90008" lon="5.80413">
        <ele>391.39</ele>
        <time>2014-08-04T12:53:55Z</time>
      </trkpt>
      <trkpt lat="46.89979" lon="5.80437">
        <ele>394.28</ele>
        <time>2014-08-04T12:54:13Z</time>
      </trkpt>
      <trkpt lat="46.89955" lon="5.80456">
        <ele>396.68</ele>
        <time>2014-08-04T12:54:29Z</time>
      </trkpt>
      <trkpt lat="46.89932" lon="5.80469">
        <ele>398.6</ele>
        <time>2014-08-04T12:54:44Z</time>
      </trkpt>
      <trkpt lat="46.89908" lon="5.80474">
        <ele>401.01</ele>
        <time>2014-08-04T12:54:59Z</time>
      </trkpt>
      <trkpt lat="46.89888" lon="5.80481">
        <ele>402.93</ele>
        <time>2014-08-04T12:55:11Z</time>
      </trkpt>
      <trkpt lat="46.89864" lon="5.80489">
        <ele>404.85</ele>
        <time>2014-08-04T12:55:25Z</time>
      </trkpt>
      <trkpt lat="46.8984" lon="5.80489">
        <ele>406.77</ele>
        <time>2014-08-04T12:55:39Z</time>
      </trkpt>
      <trkpt lat="46.89816" lon="5.80491">
        <ele>408.7</ele>
        <time>2014-08-04T12:55:53Z</time>
      </trkpt>
      <trkpt lat="46.8979" lon="5.80497">
        <ele>411.1</ele>
        <time>2014-08-04T12:56:09Z</time>
      </trkpt>
      <trkpt lat="46.89761" lon="5.80504">
        <ele>413.02</ele>
        <time>2014-08-04T12:56:26Z</time>
      </trkpt>
      <trkpt lat="46.89739" lon="5.80509">
        <ele>414.47</ele>
        <time>2014-08-04T12:56:39Z</time>
      </trkpt>
      <trkpt lat="46.89717" lon="5.80517">
        <ele>416.87</ele>
        <time>2014-08-04T12:56:53Z</time>
      </trkpt>
      <trkpt lat="46.89695" lon="5.80522">
        <ele>418.31</ele>
        <time>2014-08-04T12:57:07Z</time>
      </trkpt>
      <trkpt lat="46.89692" lon="5.80524">
        <ele>418.31</ele>
        <time>2014-08-04T12:57:09Z</time>
      </trkpt>
      <trkpt lat="46.89672" lon="5.80537">
        <ele>421.19</ele>
        <time>2014-08-04T12:57:24Z</time>
      </trkpt>
      <trkpt lat="46.8967" lon="5.80537">
        <ele>419.75</ele>
        <time>2014-08-04T12:57:25Z</time>
      </trkpt>
      <trkpt lat="46.89663" lon="5.80543">
        <ele>420.71</ele>
        <time>2014-08-04T12:57:30Z</time>
      </trkpt>
      <trkpt lat="46.8964" lon="5.8056">
        <ele>422.64</ele>
        <time>2014-08-04T12:57:45Z</time>
      </trkpt>
      <trkpt lat="46.89617" lon="5.80574">
        <ele>424.08</ele>
        <time>2014-08-04T12:57:59Z</time>
      </trkpt>
      <trkpt lat="46.89597" lon="5.8059">
        <ele>426.48</ele>
        <time>2014-08-04T12:58:14Z</time>
      </trkpt>
      <trkpt lat="46.89571" lon="5.80607">
        <ele>428.4</ele>
        <time>2014-08-04T12:58:31Z</time>
      </trkpt>
      <trkpt lat="46.89551" lon="5.8062">
        <ele>430.33</ele>
        <time>2014-08-04T12:58:46Z</time>
      </trkpt>
      <trkpt lat="46.89541" lon="5.80627">
        <ele>431.77</ele>
        <time>2014-08-04T12:58:55Z</time>
      </trkpt>
      <trkpt lat="46.8954" lon="5.80628">
        <ele>432.25</ele>
        <time>2014-08-04T12:58:57Z</time>
      </trkpt>
      <trkpt lat="46.89521" lon="5.80643">
        <ele>434.65</ele>
        <time>2014-08-04T12:59:13Z</time>
      </trkpt>
      <trkpt lat="46.89515" lon="5.80676">
        <ele>437.06</ele>
        <time>2014-08-04T12:59:27Z</time>
      </trkpt>
      <trkpt lat="46.89522" lon="5.80699">
        <ele>439.46</ele>
        <time>2014-08-04T12:59:39Z</time>
      </trkpt>
      <trkpt lat="46.89538" lon="5.80722">
        <ele>441.86</ele>
        <time>2014-08-04T12:59:54Z</time>
      </trkpt>
      <trkpt lat="46.89557" lon="5.80732">
        <ele>444.27</ele>
        <time>2014-08-04T13:00:09Z</time>
      </trkpt>
      <trkpt lat="46.8958" lon="5.80731">
        <ele>446.19</ele>
        <time>2014-08-04T13:00:22Z</time>
      </trkpt>
      <trkpt lat="46.89589" lon="5.80734">
        <ele>446.67</ele>
        <time>2014-08-04T13:00:27Z</time>
      </trkpt>
      <trkpt lat="46.89626" lon="5.80748">
        <ele>449.07</ele>
        <time>2014-08-04T13:00:47Z</time>
      </trkpt>
      <trkpt lat="46.89658" lon="5.80758">
        <ele>451.96</ele>
        <time>2014-08-04T13:01:05Z</time>
      </trkpt>
      <trkpt lat="46.89681" lon="5.80764">
        <ele>453.88</ele>
        <time>2014-08-04T13:01:19Z</time>
      </trkpt>
      <trkpt lat="46.89711" lon="5.80777">
        <ele>456.28</ele>
        <time>2014-08-04T13:01:37Z</time>
      </trkpt>
      <trkpt lat="46.89735" lon="5.80786">
        <ele>459.17</ele>
        <time>2014-08-04T13:01:53Z</time>
      </trkpt>
      <trkpt lat="46.8974" lon="5.80788">
        <ele>456.76</ele>
        <time>2014-08-04T13:01:56Z</time>
      </trkpt>
      <trkpt lat="46.89742" lon="5.8079">
        <ele>460.13</ele>
        <time>2014-08-04T13:01:58Z</time>
      </trkpt>
      <trkpt lat="46.89743" lon="5.8079">
        <ele>459.17</ele>
        <time>2014-08-04T13:01:59Z</time>
      </trkpt>
      <trkpt lat="46.89763" lon="5.80799">
        <ele>460.61</ele>
        <time>2014-08-04T13:02:12Z</time>
      </trkpt>
      <trkpt lat="46.89787" lon="5.80803">
        <ele>462.53</ele>
        <time>2014-08-04T13:02:26Z</time>
      </trkpt>
      <trkpt lat="46.89814" lon="5.80812">
        <ele>464.93</ele>
        <time>2014-08-04T13:02:42Z</time>
      </trkpt>
      <trkpt lat="46.89844" lon="5.80821">
        <ele>467.82</ele>
        <time>2014-08-04T13:02:59Z</time>
      </trkpt>
      <trkpt lat="46.89875" lon="5.80832">
        <ele>469.26</ele>
        <time>2014-08-04T13:03:16Z</time>
      </trkpt>
      <trkpt lat="46.89904" lon="5.80841">
        <ele>470.22</ele>
        <time>2014-08-04T13:03:31Z</time>
      </trkpt>
      <trkpt lat="46.8991" lon="5.80843">
        <ele>470.7</ele>
        <time>2014-08-04T13:03:34Z</time>
      </trkpt>
      <trkpt lat="46.89939" lon="5.80852">
        <ele>472.14</ele>
        <time>2014-08-04T13:03:49Z</time>
      </trkpt>
      <trkpt lat="46.89965" lon="5.8086">
        <ele>474.07</ele>
        <time>2014-08-04T13:04:03Z</time>
      </trkpt>
      <trkpt lat="46.89991" lon="5.80869">
        <ele>476.47</ele>
        <time>2014-08-04T13:04:18Z</time>
      </trkpt>
      <trkpt lat="46.90014" lon="5.8088">
        <ele>477.91</ele>
        <time>2014-08-04T13:04:32Z</time>
      </trkpt>
      <trkpt lat="46.9003" lon="5.809">
        <ele>480.32</ele>
        <time>2014-08-04T13:04:43Z</time>
      </trkpt>
      <trkpt lat="46.90048" lon="5.80941">
        <ele>481.76</ele>
        <time>2014-08-04T13:05:00Z</time>
      </trkpt>
      <trkpt lat="46.90054" lon="5.80964">
        <ele>483.68</ele>
        <time>2014-08-04T13:05:09Z</time>
      </trkpt>
      <trkpt lat="46.90058" lon="5.80976">
        <ele>483.2</ele>
        <time>2014-08-04T13:05:14Z</time>
      </trkpt>
      <trkpt lat="46.9007" lon="5.81006">
        <ele>485.6</ele>
        <time>2014-08-04T13:05:27Z</time>
      </trkpt>
      <trkpt lat="46.90078" lon="5.8103">
        <ele>485.6</ele>
        <time>2014-08-04T13:05:38Z</time>
      </trkpt>
      <trkpt lat="46.90093" lon="5.81064">
        <ele>488.01</ele>
        <time>2014-08-04T13:05:53Z</time>
      </trkpt>
      <trkpt lat="46.90107" lon="5.81091">
        <ele>489.93</ele>
        <time>2014-08-04T13:06:06Z</time>
      </trkpt>
      <trkpt lat="46.90117" lon="5.81116">
        <ele>491.85</ele>
        <time>2014-08-04T13:06:20Z</time>
      </trkpt>
      <trkpt lat="46.90131" lon="5.8114">
        <ele>493.77</ele>
        <time>2014-08-04T13:06:33Z</time>
      </trkpt>
      <trkpt lat="46.90144" lon="5.81165">
        <ele>495.7</ele>
        <time>2014-08-04T13:06:44Z</time>
      </trkpt>
      <trkpt lat="46.90149" lon="5.81174">
        <ele>496.18</ele>
        <time>2014-08-04T13:06:47Z</time>
      </trkpt>
      <trkpt lat="46.90182" lon="5.81206">
        <ele>497.62</ele>
        <time>2014-08-04T13:07:03Z</time>
      </trkpt>
      <trkpt lat="46.90209" lon="5.81225">
        <ele>499.06</ele>
        <time>2014-08-04T13:07:17Z</time>
      </trkpt>
      <trkpt lat="46.90239" lon="5.81244">
        <ele>500.98</ele>
        <time>2014-08-04T13:07:32Z</time>
      </trkpt>
      <trkpt lat="46.90267" lon="5.81261">
        <ele>502.91</ele>
        <time>2014-08-04T13:07:45Z</time>
      </trkpt>
      <trkpt lat="46.90297" lon="5.81269">
        <ele>503.39</ele>
        <time>2014-08-04T13:07:56Z</time>
      </trkpt>
      <trkpt lat="46.90327" lon="5.81268">
        <ele>503.87</ele>
        <time>2014-08-04T13:08:08Z</time>
      </trkpt>
      <trkpt lat="46.90357" lon="5.81266">
        <ele>504.83</ele>
        <time>2014-08-04T13:08:20Z</time>
      </trkpt>
      <trkpt lat="46.90383" lon="5.81256">
        <ele>505.31</ele>
        <time>2014-08-04T13:08:30Z</time>
      </trkpt>
      <trkpt lat="46.90419" lon="5.81249">
        <ele>506.27</ele>
        <time>2014-08-04T13:08:43Z</time>
      </trkpt>
      <trkpt lat="46.90453" lon="5.81241">
        <ele>507.71</ele>
        <time>2014-08-04T13:08:54Z</time>
      </trkpt>
      <trkpt lat="46.90481" lon="5.81237">
        <ele>509.64</ele>
        <time>2014-08-04T13:09:06Z</time>
      </trkpt>
      <trkpt lat="46.90514" lon="5.81232">
        <ele>511.56</ele>
        <time>2014-08-04T13:09:19Z</time>
      </trkpt>
      <trkpt lat="46.90542" lon="5.81255">
        <ele>513.48</ele>
        <time>2014-08-04T13:09:32Z</time>
      </trkpt>
      <trkpt lat="46.90575" lon="5.81265">
        <ele>513.96</ele>
        <time>2014-08-04T13:09:45Z</time>
      </trkpt>
      <trkpt lat="46.90603" lon="5.81278">
        <ele>515.4</ele>
        <time>2014-08-04T13:09:59Z</time>
      </trkpt>
      <trkpt lat="46.90619" lon="5.81295">
        <ele>516.85</ele>
        <time>2014-08-04T13:10:11Z</time>
      </trkpt>
      <trkpt lat="46.90634" lon="5.81301">
        <ele>518.77</ele>
        <time>2014-08-04T13:10:22Z</time>
      </trkpt>
      <trkpt lat="46.9066" lon="5.81312">
        <ele>520.69</ele>
        <time>2014-08-04T13:10:36Z</time>
      </trkpt>
      <trkpt lat="46.9069" lon="5.81323">
        <ele>522.61</ele>
        <time>2014-08-04T13:10:51Z</time>
      </trkpt>
      <trkpt lat="46.90714" lon="5.81329">
        <ele>524.54</ele>
        <time>2014-08-04T13:11:04Z</time>
      </trkpt>
      <trkpt lat="46.90748" lon="5.81345">
        <ele>526.94</ele>
        <time>2014-08-04T13:11:21Z</time>
      </trkpt>
      <trkpt lat="46.90774" lon="5.81354">
        <ele>529.34</ele>
        <time>2014-08-04T13:11:35Z</time>
      </trkpt>
      <trkpt lat="46.90797" lon="5.81374">
        <ele>531.27</ele>
        <time>2014-08-04T13:11:48Z</time>
      </trkpt>
      <trkpt lat="46.90821" lon="5.81395">
        <ele>533.19</ele>
        <time>2014-08-04T13:12:02Z</time>
      </trkpt>
      <trkpt lat="46.9085" lon="5.81415">
        <ele>535.59</ele>
        <time>2014-08-04T13:12:19Z</time>
      </trkpt>
      <trkpt lat="46.90871" lon="5.81427">
        <ele>537.51</ele>
        <time>2014-08-04T13:12:31Z</time>
      </trkpt>
      <trkpt lat="46.90891" lon="5.81439">
        <ele>539.44</ele>
        <time>2014-08-04T13:12:44Z</time>
      </trkpt>
      <trkpt lat="46.909" lon="5.81442">
        <ele>540.88</ele>
        <time>2014-08-04T13:12:51Z</time>
      </trkpt>
      <trkpt lat="46.90923" lon="5.81461">
        <ele>542.32</ele>
        <time>2014-08-04T13:13:05Z</time>
      </trkpt>
      <trkpt lat="46.90945" lon="5.81476">
        <ele>543.76</ele>
        <time>2014-08-04T13:13:17Z</time>
      </trkpt>
      <trkpt lat="46.90969" lon="5.81496">
        <ele>545.2</ele>
        <time>2014-08-04T13:13:31Z</time>
      </trkpt>
      <trkpt lat="46.91001" lon="5.81533">
        <ele>546.65</ele>
        <time>2014-08-04T13:13:49Z</time>
      </trkpt>
      <trkpt lat="46.91029" lon="5.81572">
        <ele>548.09</ele>
        <time>2014-08-04T13:14:07Z</time>
      </trkpt>
      <trkpt lat="46.91054" lon="5.81605">
        <ele>550.49</ele>
        <time>2014-08-04T13:14:23Z</time>
      </trkpt>
      <trkpt lat="46.91079" lon="5.8164">
        <ele>552.41</ele>
        <time>2014-08-04T13:14:40Z</time>
      </trkpt>
      <trkpt lat="46.91103" lon="5.81677">
        <ele>553.86</ele>
        <time>2014-08-04T13:14:52Z</time>
      </trkpt>
      <trkpt lat="46.91123" lon="5.81709">
        <ele>555.3</ele>
        <time>2014-08-04T13:15:04Z</time>
      </trkpt>
      <trkpt lat="46.91146" lon="5.81743">
        <ele>554.82</ele>
        <time>2014-08-04T13:15:18Z</time>
      </trkpt>
      <trkpt lat="46.91169" lon="5.81781">
        <ele>555.3</ele>
        <time>2014-08-04T13:15:32Z</time>
      </trkpt>
      <trkpt lat="46.91198" lon="5.81836">
        <ele>555.78</ele>
        <time>2014-08-04T13:15:49Z</time>
      </trkpt>
      <trkpt lat="46.91211" lon="5.81853">
        <ele>556.26</ele>
        <time>2014-08-04T13:15:58Z</time>
      </trkpt>
      <trkpt lat="46.91211" lon="5.81862">
        <ele>556.26</ele>
        <time>2014-08-04T13:16:12Z</time>
      </trkpt>
      <trkpt lat="46.91211" lon="5.81862">
        <ele>556.26</ele>
        <time>2014-08-04T13:16:34Z</time>
      </trkpt>
      <trkpt lat="46.91211" lon="5.81862">
        <ele>556.26</ele>
        <time>2014-08-04T13:17:03Z</time>
      </trkpt>
      <trkpt lat="46.9121" lon="5.81868">
        <ele>556.26</ele>
        <time>2014-08-04T13:17:06Z</time>
      </trkpt>
      <trkpt lat="46.91214" lon="5.81892">
        <ele>556.74</ele>
        <time>2014-08-04T13:17:14Z</time>
      </trkpt>
      <trkpt lat="46.91212" lon="5.81931">
        <ele>557.22</ele>
        <time>2014-08-04T13:17:24Z</time>
      </trkpt>
      <trkpt lat="46.91206" lon="5.81967">
        <ele>558.18</ele>
        <time>2014-08-04T13:17:34Z</time>
      </trkpt>
      <trkpt lat="46.91197" lon="5.82026">
        <ele>558.66</ele>
        <time>2014-08-04T13:17:48Z</time>
      </trkpt>
      <trkpt lat="46.91177" lon="5.82091">
        <ele>557.7</ele>
        <time>2014-08-04T13:18:00Z</time>
      </trkpt>
      <trkpt lat="46.91176" lon="5.82105">
        <ele>557.7</ele>
        <time>2014-08-04T13:18:02Z</time>
      </trkpt>
      <trkpt lat="46.91195" lon="5.82151">
        <ele>558.18</ele>
        <time>2014-08-04T13:18:14Z</time>
      </trkpt>
      <trkpt lat="46.91196" lon="5.82156">
        <ele>558.18</ele>
        <time>2014-08-04T13:18:26Z</time>
      </trkpt>
      <trkpt lat="46.912" lon="5.82172">
        <ele>558.18</ele>
        <time>2014-08-04T13:18:45Z</time>
      </trkpt>
      <trkpt lat="46.91202" lon="5.82181">
        <ele>558.18</ele>
        <time>2014-08-04T13:18:47Z</time>
      </trkpt>
      <trkpt lat="46.91208" lon="5.82235">
        <ele>557.7</ele>
        <time>2014-08-04T13:18:57Z</time>
      </trkpt>
      <trkpt lat="46.9122" lon="5.8229">
        <ele>557.22</ele>
        <time>2014-08-04T13:19:07Z</time>
      </trkpt>
      <trkpt lat="46.9122" lon="5.8229">
        <ele>557.22</ele>
        <time>2014-08-04T13:19:20Z</time>
      </trkpt>
      <trkpt lat="46.9122" lon="5.82293">
        <ele>557.22</ele>
        <time>2014-08-04T13:19:23Z</time>
      </trkpt>
      <trkpt lat="46.91224" lon="5.82352">
        <ele>557.22</ele>
        <time>2014-08-04T13:19:34Z</time>
      </trkpt>
      <trkpt lat="46.91239" lon="5.82448">
        <ele>558.66</ele>
        <time>2014-08-04T13:19:50Z</time>
      </trkpt>
      <trkpt lat="46.91242" lon="5.8246">
        <ele>558.66</ele>
        <time>2014-08-04T13:19:52Z</time>
      </trkpt>
      <trkpt lat="46.91245" lon="5.82549">
        <ele>560.59</ele>
        <time>2014-08-04T13:20:07Z</time>
      </trkpt>
      <trkpt lat="46.91246" lon="5.82559">
        <ele>561.07</ele>
        <time>2014-08-04T13:20:09Z</time>
      </trkpt>
      <trkpt lat="46.91248" lon="5.82616">
        <ele>562.99</ele>
        <time>2014-08-04T13:20:20Z</time>
      </trkpt>
      <trkpt lat="46.91254" lon="5.82682">
        <ele>564.43</ele>
        <time>2014-08-04T13:20:33Z</time>
      </trkpt>
      <trkpt lat="46.91258" lon="5.82744">
        <ele>564.91</ele>
        <time>2014-08-04T13:20:44Z</time>
      </trkpt>
      <trkpt lat="46.91263" lon="5.82822">
        <ele>566.35</ele>
        <time>2014-08-04T13:20:57Z</time>
      </trkpt>
      <trkpt lat="46.91272" lon="5.82879">
        <ele>567.32</ele>
        <time>2014-08-04T13:21:07Z</time>
      </trkpt>
      <trkpt lat="46.91281" lon="5.82915">
        <ele>567.32</ele>
        <time>2014-08-04T13:21:13Z</time>
      </trkpt>
      <trkpt lat="46.91284" lon="5.82928">
        <ele>567.32</ele>
        <time>2014-08-04T13:21:15Z</time>
      </trkpt>
      <trkpt lat="46.91297" lon="5.82998">
        <ele>568.76</ele>
        <time>2014-08-04T13:21:26Z</time>
      </trkpt>
      <trkpt lat="46.913" lon="5.8301">
        <ele>569.24</ele>
        <time>2014-08-04T13:21:28Z</time>
      </trkpt>
      <trkpt lat="46.91303" lon="5.83029">
        <ele>569.72</ele>
        <time>2014-08-04T13:21:31Z</time>
      </trkpt>
      <trkpt lat="46.91309" lon="5.83062">
        <ele>570.2</ele>
        <time>2014-08-04T13:21:36Z</time>
      </trkpt>
      <trkpt lat="46.91324" lon="5.83121">
        <ele>571.64</ele>
        <time>2014-08-04T13:21:47Z</time>
      </trkpt>
      <trkpt lat="46.91333" lon="5.83141">
        <ele>571.64</ele>
        <time>2014-08-04T13:21:51Z</time>
      </trkpt>
      <trkpt lat="46.91361" lon="5.83182">
        <ele>571.64</ele>
        <time>2014-08-04T13:22:00Z</time>
      </trkpt>
      <trkpt lat="46.91373" lon="5.832">
        <ele>571.64</ele>
        <time>2014-08-04T13:22:04Z</time>
      </trkpt>
      <trkpt lat="46.91405" lon="5.83262">
        <ele>572.6</ele>
        <time>2014-08-04T13:22:17Z</time>
      </trkpt>
      <trkpt lat="46.91431" lon="5.83341">
        <ele>573.56</ele>
        <time>2014-08-04T13:22:32Z</time>
      </trkpt>
      <trkpt lat="46.91453" lon="5.83404">
        <ele>575.01</ele>
        <time>2014-08-04T13:22:46Z</time>
      </trkpt>
      <trkpt lat="46.91471" lon="5.83453">
        <ele>575.49</ele>
        <time>2014-08-04T13:22:57Z</time>
      </trkpt>
      <trkpt lat="46.91492" lon="5.83524">
        <ele>576.45</ele>
        <time>2014-08-04T13:23:11Z</time>
      </trkpt>
      <trkpt lat="46.91517" lon="5.83602">
        <ele>577.89</ele>
        <time>2014-08-04T13:23:28Z</time>
      </trkpt>
      <trkpt lat="46.91538" lon="5.83669">
        <ele>579.81</ele>
        <time>2014-08-04T13:23:43Z</time>
      </trkpt>
      <trkpt lat="46.91556" lon="5.83735">
        <ele>582.22</ele>
        <time>2014-08-04T13:24:00Z</time>
      </trkpt>
      <trkpt lat="46.91573" lon="5.83794">
        <ele>584.62</ele>
        <time>2014-08-04T13:24:16Z</time>
      </trkpt>
      <trkpt lat="46.91592" lon="5.83858">
        <ele>585.58</ele>
        <time>2014-08-04T13:24:32Z</time>
      </trkpt>
      <trkpt lat="46.91603" lon="5.83893">
        <ele>586.06</ele>
        <time>2014-08-04T13:24:41Z</time>
      </trkpt>
      <trkpt lat="46.91608" lon="5.83888">
        <ele>586.06</ele>
        <time>2014-08-04T13:24:48Z</time>
      </trkpt>
      <trkpt lat="46.91608" lon="5.83888">
        <ele>586.06</ele>
        <time>2014-08-04T13:25:14Z</time>
      </trkpt>
      <trkpt lat="46.91607" lon="5.83887">
        <ele>586.06</ele>
        <time>2014-08-04T13:25:33Z</time>
      </trkpt>
      <trkpt lat="46.91606" lon="5.83906">
        <ele>586.06</ele>
        <time>2014-08-04T13:25:40Z</time>
      </trkpt>
      <trkpt lat="46.91633" lon="5.83985">
        <ele>588.46</ele>
        <time>2014-08-04T13:25:57Z</time>
      </trkpt>
      <trkpt lat="46.91664" lon="5.84055">
        <ele>590.87</ele>
        <time>2014-08-04T13:26:14Z</time>
      </trkpt>
      <trkpt lat="46.9169" lon="5.84117">
        <ele>592.31</ele>
        <time>2014-08-04T13:26:28Z</time>
      </trkpt>
      <trkpt lat="46.91715" lon="5.84179">
        <ele>592.79</ele>
        <time>2014-08-04T13:26:41Z</time>
      </trkpt>
      <trkpt lat="46.91758" lon="5.84282">
        <ele>592.79</ele>
        <time>2014-08-04T13:27:00Z</time>
      </trkpt>
      <trkpt lat="46.91803" lon="5.84387">
        <ele>594.23</ele>
        <time>2014-08-04T13:27:20Z</time>
      </trkpt>
      <trkpt lat="46.91854" lon="5.84483">
        <ele>594.23</ele>
        <time>2014-08-04T13:27:38Z</time>
      </trkpt>
      <trkpt lat="46.91909" lon="5.84575">
        <ele>593.27</ele>
        <time>2014-08-04T13:27:53Z</time>
      </trkpt>
      <trkpt lat="46.91959" lon="5.8466">
        <ele>592.79</ele>
        <time>2014-08-04T13:28:07Z</time>
      </trkpt>
      <trkpt lat="46.91965" lon="5.84673">
        <ele>592.79</ele>
        <time>2014-08-04T13:28:09Z</time>
      </trkpt>
      <trkpt lat="46.91999" lon="5.84743">
        <ele>590.39</ele>
        <time>2014-08-04T13:28:19Z</time>
      </trkpt>
      <trkpt lat="46.9203" lon="5.84827">
        <ele>586.54</ele>
        <time>2014-08-04T13:28:28Z</time>
      </trkpt>
      <trkpt lat="46.92036" lon="5.84849">
        <ele>585.58</ele>
        <time>2014-08-04T13:28:30Z</time>
      </trkpt>
      <trkpt lat="46.92041" lon="5.84873">
        <ele>584.62</ele>
        <time>2014-08-04T13:28:32Z</time>
      </trkpt>
      <trkpt lat="46.92043" lon="5.84923">
        <ele>582.7</ele>
        <time>2014-08-04T13:28:36Z</time>
      </trkpt>
      <trkpt lat="46.92037" lon="5.84974">
        <ele>580.29</ele>
        <time>2014-08-04T13:28:40Z</time>
      </trkpt>
      <trkpt lat="46.9204" lon="5.85046">
        <ele>576.45</ele>
        <time>2014-08-04T13:28:46Z</time>
      </trkpt>
      <trkpt lat="46.92058" lon="5.85125">
        <ele>573.08</ele>
        <time>2014-08-04T13:28:53Z</time>
      </trkpt>
      <trkpt lat="46.92075" lon="5.85182">
        <ele>570.68</ele>
        <time>2014-08-04T13:28:59Z</time>
      </trkpt>
      <trkpt lat="46.92087" lon="5.8526">
        <ele>566.83</ele>
        <time>2014-08-04T13:29:07Z</time>
      </trkpt>
      <trkpt lat="46.92104" lon="5.85314">
        <ele>563.47</ele>
        <time>2014-08-04T13:29:12Z</time>
      </trkpt>
      <trkpt lat="46.92118" lon="5.85348">
        <ele>561.55</ele>
        <time>2014-08-04T13:29:15Z</time>
      </trkpt>
      <trkpt lat="46.92156" lon="5.85406">
        <ele>558.18</ele>
        <time>2014-08-04T13:29:21Z</time>
      </trkpt>
      <trkpt lat="46.922" lon="5.8544">
        <ele>554.82</ele>
        <time>2014-08-04T13:29:26Z</time>
      </trkpt>
      <trkpt lat="46.92255" lon="5.85467">
        <ele>550.97</ele>
        <time>2014-08-04T13:29:32Z</time>
      </trkpt>
      <trkpt lat="46.92271" lon="5.85476">
        <ele>549.05</ele>
        <time>2014-08-04T13:29:34Z</time>
      </trkpt>
      <trkpt lat="46.92309" lon="5.8553">
        <ele>545.2</ele>
        <time>2014-08-04T13:29:40Z</time>
      </trkpt>
      <trkpt lat="46.92335" lon="5.85601">
        <ele>541.84</ele>
        <time>2014-08-04T13:29:46Z</time>
      </trkpt>
      <trkpt lat="46.92342" lon="5.85626">
        <ele>540.88</ele>
        <time>2014-08-04T13:29:48Z</time>
      </trkpt>
      <trkpt lat="46.9234" lon="5.85694">
        <ele>537.03</ele>
        <time>2014-08-04T13:29:53Z</time>
      </trkpt>
      <trkpt lat="46.92323" lon="5.85754">
        <ele>532.71</ele>
        <time>2014-08-04T13:29:59Z</time>
      </trkpt>
      <trkpt lat="46.92321" lon="5.85804">
        <ele>530.79</ele>
        <time>2014-08-04T13:30:03Z</time>
      </trkpt>
      <trkpt lat="46.92322" lon="5.85817">
        <ele>529.82</ele>
        <time>2014-08-04T13:30:04Z</time>
      </trkpt>
      <trkpt lat="46.92327" lon="5.85856">
        <ele>528.38</ele>
        <time>2014-08-04T13:30:07Z</time>
      </trkpt>
      <trkpt lat="46.92351" lon="5.85916">
        <ele>524.54</ele>
        <time>2014-08-04T13:30:12Z</time>
      </trkpt>
      <trkpt lat="46.92357" lon="5.85929">
        <ele>523.58</ele>
        <time>2014-08-04T13:30:13Z</time>
      </trkpt>
      <trkpt lat="46.9238" lon="5.86016">
        <ele>519.25</ele>
        <time>2014-08-04T13:30:19Z</time>
      </trkpt>
      <trkpt lat="46.92406" lon="5.86086">
        <ele>514.44</ele>
        <time>2014-08-04T13:30:24Z</time>
      </trkpt>
      <trkpt lat="46.92411" lon="5.861">
        <ele>513.48</ele>
        <time>2014-08-04T13:30:25Z</time>
      </trkpt>
      <trkpt lat="46.92424" lon="5.86143">
        <ele>511.56</ele>
        <time>2014-08-04T13:30:28Z</time>
      </trkpt>
      <trkpt lat="46.92436" lon="5.86223">
        <ele>507.23</ele>
        <time>2014-08-04T13:30:33Z</time>
      </trkpt>
      <trkpt lat="46.9244" lon="5.86239">
        <ele>506.75</ele>
        <time>2014-08-04T13:30:34Z</time>
      </trkpt>
      <trkpt lat="46.92468" lon="5.86286">
        <ele>503.87</ele>
        <time>2014-08-04T13:30:38Z</time>
      </trkpt>
      <trkpt lat="46.92514" lon="5.86331">
        <ele>500.02</ele>
        <time>2014-08-04T13:30:43Z</time>
      </trkpt>
      <trkpt lat="46.92522" lon="5.86341">
        <ele>499.54</ele>
        <time>2014-08-04T13:30:44Z</time>
      </trkpt>
      <trkpt lat="46.92546" lon="5.86396">
        <ele>496.18</ele>
        <time>2014-08-04T13:30:48Z</time>
      </trkpt>
      <trkpt lat="46.92584" lon="5.86474">
        <ele>490.89</ele>
        <time>2014-08-04T13:30:54Z</time>
      </trkpt>
      <trkpt lat="46.92609" lon="5.86542">
        <ele>487.05</ele>
        <time>2014-08-04T13:30:59Z</time>
      </trkpt>
      <trkpt lat="46.92617" lon="5.86623">
        <ele>482.72</ele>
        <time>2014-08-04T13:31:04Z</time>
      </trkpt>
      <trkpt lat="46.92619" lon="5.86639">
        <ele>481.76</ele>
        <time>2014-08-04T13:31:05Z</time>
      </trkpt>
      <trkpt lat="46.92645" lon="5.86711">
        <ele>478.39</ele>
        <time>2014-08-04T13:31:10Z</time>
      </trkpt>
      <trkpt lat="46.92663" lon="5.86731">
        <ele>476.95</ele>
        <time>2014-08-04T13:31:12Z</time>
      </trkpt>
      <trkpt lat="46.92699" lon="5.86761">
        <ele>472.14</ele>
        <time>2014-08-04T13:31:16Z</time>
      </trkpt>
      <trkpt lat="46.92743" lon="5.86789">
        <ele>468.3</ele>
        <time>2014-08-04T13:31:22Z</time>
      </trkpt>
      <trkpt lat="46.92754" lon="5.86797">
        <ele>467.82</ele>
        <time>2014-08-04T13:31:24Z</time>
      </trkpt>
      <trkpt lat="46.92775" lon="5.86808">
        <ele>466.86</ele>
        <time>2014-08-04T13:31:28Z</time>
      </trkpt>
      <trkpt lat="46.92809" lon="5.86832">
        <ele>465.42</ele>
        <time>2014-08-04T13:31:34Z</time>
      </trkpt>
      <trkpt lat="46.92843" lon="5.86859">
        <ele>462.05</ele>
        <time>2014-08-04T13:31:39Z</time>
      </trkpt>
      <trkpt lat="46.92881" lon="5.86876">
        <ele>459.17</ele>
        <time>2014-08-04T13:31:44Z</time>
      </trkpt>
      <trkpt lat="46.92922" lon="5.86915">
        <ele>456.28</ele>
        <time>2014-08-04T13:31:52Z</time>
      </trkpt>
      <trkpt lat="46.92932" lon="5.86925">
        <ele>455.8</ele>
        <time>2014-08-04T13:31:54Z</time>
      </trkpt>
      <trkpt lat="46.9295" lon="5.86963">
        <ele>452.92</ele>
        <time>2014-08-04T13:32:01Z</time>
      </trkpt>
      <trkpt lat="46.92948" lon="5.86969">
        <ele>451.96</ele>
        <time>2014-08-04T13:32:03Z</time>
      </trkpt>
      <trkpt lat="46.92944" lon="5.86986">
        <ele>451</ele>
        <time>2014-08-04T13:32:12Z</time>
      </trkpt>
      <trkpt lat="46.92943" lon="5.86987">
        <ele>450.52</ele>
        <time>2014-08-04T13:32:38Z</time>
      </trkpt>
      <trkpt lat="46.92932" lon="5.87004">
        <ele>449.55</ele>
        <time>2014-08-04T13:32:43Z</time>
      </trkpt>
      <trkpt lat="46.92919" lon="5.87034">
        <ele>447.63</ele>
        <time>2014-08-04T13:32:47Z</time>
      </trkpt>
      <trkpt lat="46.92908" lon="5.8708">
        <ele>443.31</ele>
        <time>2014-08-04T13:32:53Z</time>
      </trkpt>
      <trkpt lat="46.92905" lon="5.8711">
        <ele>440.42</ele>
        <time>2014-08-04T13:32:56Z</time>
      </trkpt>
      <trkpt lat="46.92909" lon="5.87147">
        <ele>437.54</ele>
        <time>2014-08-04T13:33:00Z</time>
      </trkpt>
      <trkpt lat="46.92913" lon="5.87168">
        <ele>435.61</ele>
        <time>2014-08-04T13:33:03Z</time>
      </trkpt>
      <trkpt lat="46.92916" lon="5.87179">
        <ele>434.65</ele>
        <time>2014-08-04T13:33:05Z</time>
      </trkpt>
      <trkpt lat="46.92917" lon="5.87185">
        <ele>434.17</ele>
        <time>2014-08-04T13:33:06Z</time>
      </trkpt>
      <trkpt lat="46.92924" lon="5.8721">
        <ele>432.25</ele>
        <time>2014-08-04T13:33:10Z</time>
      </trkpt>
      <trkpt lat="46.92933" lon="5.87251">
        <ele>429.37</ele>
        <time>2014-08-04T13:33:15Z</time>
      </trkpt>
      <trkpt lat="46.9294" lon="5.87279">
        <ele>426</ele>
        <time>2014-08-04T13:33:19Z</time>
      </trkpt>
      <trkpt lat="46.92952" lon="5.87325">
        <ele>422.64</ele>
        <time>2014-08-04T13:33:24Z</time>
      </trkpt>
      <trkpt lat="46.92961" lon="5.87376">
        <ele>418.79</ele>
        <time>2014-08-04T13:33:28Z</time>
      </trkpt>
      <trkpt lat="46.9297" lon="5.87414">
        <ele>416.39</ele>
        <time>2014-08-04T13:33:31Z</time>
      </trkpt>
      <trkpt lat="46.92986" lon="5.87462">
        <ele>411.58</ele>
        <time>2014-08-04T13:33:36Z</time>
      </trkpt>
      <trkpt lat="46.93" lon="5.87505">
        <ele>408.7</ele>
        <time>2014-08-04T13:33:40Z</time>
      </trkpt>
      <trkpt lat="46.93008" lon="5.87536">
        <ele>404.37</ele>
        <time>2014-08-04T13:33:43Z</time>
      </trkpt>
      <trkpt lat="46.93009" lon="5.87545">
        <ele>403.41</ele>
        <time>2014-08-04T13:33:44Z</time>
      </trkpt>
      <trkpt lat="46.9301" lon="5.87553">
        <ele>402.93</ele>
        <time>2014-08-04T13:33:45Z</time>
      </trkpt>
      <trkpt lat="46.93018" lon="5.87604">
        <ele>399.08</ele>
        <time>2014-08-04T13:33:50Z</time>
      </trkpt>
      <trkpt lat="46.93024" lon="5.87645">
        <ele>395.72</ele>
        <time>2014-08-04T13:33:54Z</time>
      </trkpt>
      <trkpt lat="46.93034" lon="5.87686">
        <ele>392.84</ele>
        <time>2014-08-04T13:33:58Z</time>
      </trkpt>
      <trkpt lat="46.93045" lon="5.87728">
        <ele>388.99</ele>
        <time>2014-08-04T13:34:03Z</time>
      </trkpt>
      <trkpt lat="46.93047" lon="5.87735">
        <ele>388.51</ele>
        <time>2014-08-04T13:34:04Z</time>
      </trkpt>
      <trkpt lat="46.93058" lon="5.87774">
        <ele>385.15</ele>
        <time>2014-08-04T13:34:09Z</time>
      </trkpt>
      <trkpt lat="46.93069" lon="5.87814">
        <ele>381.78</ele>
        <time>2014-08-04T13:34:14Z</time>
      </trkpt>
      <trkpt lat="46.93071" lon="5.87821">
        <ele>381.3</ele>
        <time>2014-08-04T13:34:15Z</time>
      </trkpt>
      <trkpt lat="46.93082" lon="5.87881">
        <ele>377.94</ele>
        <time>2014-08-04T13:34:21Z</time>
      </trkpt>
      <trkpt lat="46.93084" lon="5.87959">
        <ele>375.05</ele>
        <time>2014-08-04T13:34:27Z</time>
      </trkpt>
      <trkpt lat="46.93083" lon="5.88012">
        <ele>371.69</ele>
        <time>2014-08-04T13:34:31Z</time>
      </trkpt>
      <trkpt lat="46.93083" lon="5.88047">
        <ele>367.84</ele>
        <time>2014-08-04T13:34:34Z</time>
      </trkpt>
      <trkpt lat="46.93084" lon="5.88064">
        <ele>366.4</ele>
        <time>2014-08-04T13:34:36Z</time>
      </trkpt>
      <trkpt lat="46.93087" lon="5.88069">
        <ele>365.44</ele>
        <time>2014-08-04T13:34:37Z</time>
      </trkpt>
      <trkpt lat="46.931" lon="5.88068">
        <ele>364</ele>
        <time>2014-08-04T13:34:40Z</time>
      </trkpt>
      <trkpt lat="46.93104" lon="5.88062">
        <ele>363.52</ele>
        <time>2014-08-04T13:34:41Z</time>
      </trkpt>
      <trkpt lat="46.93108" lon="5.88054">
        <ele>362.55</ele>
        <time>2014-08-04T13:34:42Z</time>
      </trkpt>
      <trkpt lat="46.93117" lon="5.88037">
        <ele>360.63</ele>
        <time>2014-08-04T13:34:44Z</time>
      </trkpt>
      <trkpt lat="46.93122" lon="5.88026">
        <ele>360.15</ele>
        <time>2014-08-04T13:34:45Z</time>
      </trkpt>
      <trkpt lat="46.93126" lon="5.88015">
        <ele>359.19</ele>
        <time>2014-08-04T13:34:46Z</time>
      </trkpt>
      <trkpt lat="46.93129" lon="5.88003">
        <ele>358.71</ele>
        <time>2014-08-04T13:34:47Z</time>
      </trkpt>
      <trkpt lat="46.93132" lon="5.8799">
        <ele>358.23</ele>
        <time>2014-08-04T13:34:48Z</time>
      </trkpt>
      <trkpt lat="46.93148" lon="5.87915">
        <ele>355.34</ele>
        <time>2014-08-04T13:34:54Z</time>
      </trkpt>
      <trkpt lat="46.93154" lon="5.87898">
        <ele>354.38</ele>
        <time>2014-08-04T13:34:56Z</time>
      </trkpt>
      <trkpt lat="46.93157" lon="5.8789">
        <ele>353.9</ele>
        <time>2014-08-04T13:34:57Z</time>
      </trkpt>
      <trkpt lat="46.93159" lon="5.87883">
        <ele>352.94</ele>
        <time>2014-08-04T13:34:58Z</time>
      </trkpt>
      <trkpt lat="46.93162" lon="5.87878">
        <ele>352.94</ele>
        <time>2014-08-04T13:34:59Z</time>
      </trkpt>
      <trkpt lat="46.93165" lon="5.87874">
        <ele>352.46</ele>
        <time>2014-08-04T13:35:00Z</time>
      </trkpt>
      <trkpt lat="46.93168" lon="5.87872">
        <ele>352.46</ele>
        <time>2014-08-04T13:35:01Z</time>
      </trkpt>
      <trkpt lat="46.93171" lon="5.87868">
        <ele>351.98</ele>
        <time>2014-08-04T13:35:02Z</time>
      </trkpt>
      <trkpt lat="46.93192" lon="5.87836">
        <ele>351.98</ele>
        <time>2014-08-04T13:35:17Z</time>
      </trkpt>
      <trkpt lat="46.93194" lon="5.87838">
        <ele>349.1</ele>
        <time>2014-08-04T13:35:23Z</time>
      </trkpt>
      <trkpt lat="46.93168" lon="5.87872">
        <ele>353.42</ele>
        <time>2014-08-04T13:44:02Z</time>
      </trkpt>
      <trkpt lat="46.93185" lon="5.87876">
        <ele>351.98</ele>
        <time>2014-08-04T13:44:11Z</time>
      </trkpt>
      <trkpt lat="46.9321" lon="5.87863">
        <ele>351.02</ele>
        <time>2014-08-04T13:44:14Z</time>
      </trkpt>
      <trkpt lat="46.93228" lon="5.87874">
        <ele>351.02</ele>
        <time>2014-08-04T13:44:17Z</time>
      </trkpt>
      <trkpt lat="46.93241" lon="5.87888">
        <ele>351.02</ele>
        <time>2014-08-04T13:44:20Z</time>
      </trkpt>
      <trkpt lat="46.93261" lon="5.87908">
        <ele>350.06</ele>
        <time>2014-08-04T13:44:29Z</time>
      </trkpt>
      <trkpt lat="46.93265" lon="5.87906">
        <ele>350.06</ele>
        <time>2014-08-04T13:44:32Z</time>
      </trkpt>
      <trkpt lat="46.93294" lon="5.8786">
        <ele>349.58</ele>
        <time>2014-08-04T13:44:44Z</time>
      </trkpt>
      <trkpt lat="46.93297" lon="5.87856">
        <ele>349.58</ele>
        <time>2014-08-04T13:44:45Z</time>
      </trkpt>
      <trkpt lat="46.93344" lon="5.87813">
        <ele>347.65</ele>
        <time>2014-08-04T13:44:55Z</time>
      </trkpt>
      <trkpt lat="46.93421" lon="5.87766">
        <ele>346.69</ele>
        <time>2014-08-04T13:45:10Z</time>
      </trkpt>
      <trkpt lat="46.93452" lon="5.87759">
        <ele>346.21</ele>
        <time>2014-08-04T13:45:16Z</time>
      </trkpt>
      <trkpt lat="46.93526" lon="5.87751">
        <ele>345.73</ele>
        <time>2014-08-04T13:45:30Z</time>
      </trkpt>
      <trkpt lat="46.93602" lon="5.87745">
        <ele>345.25</ele>
        <time>2014-08-04T13:45:44Z</time>
      </trkpt>
      <trkpt lat="46.93655" lon="5.87735">
        <ele>345.25</ele>
        <time>2014-08-04T13:45:54Z</time>
      </trkpt>
      <trkpt lat="46.93725" lon="5.87724">
        <ele>344.29</ele>
        <time>2014-08-04T13:46:08Z</time>
      </trkpt>
      <trkpt lat="46.93775" lon="5.87727">
        <ele>344.29</ele>
        <time>2014-08-04T13:46:18Z</time>
      </trkpt>
      <trkpt lat="46.93813" lon="5.8773">
        <ele>344.29</ele>
        <time>2014-08-04T13:46:25Z</time>
      </trkpt>
      <trkpt lat="46.93875" lon="5.87751">
        <ele>343.81</ele>
        <time>2014-08-04T13:46:37Z</time>
      </trkpt>
      <trkpt lat="46.93883" lon="5.87753">
        <ele>343.81</ele>
        <time>2014-08-04T13:46:39Z</time>
      </trkpt>
      <trkpt lat="46.93918" lon="5.87763">
        <ele>344.77</ele>
        <time>2014-08-04T13:46:46Z</time>
      </trkpt>
      <trkpt lat="46.93936" lon="5.87774">
        <ele>345.25</ele>
        <time>2014-08-04T13:46:51Z</time>
      </trkpt>
      <trkpt lat="46.93979" lon="5.87795">
        <ele>346.21</ele>
        <time>2014-08-04T13:47:03Z</time>
      </trkpt>
      <trkpt lat="46.94028" lon="5.87802">
        <ele>346.21</ele>
        <time>2014-08-04T13:47:14Z</time>
      </trkpt>
      <trkpt lat="46.94105" lon="5.87811">
        <ele>344.29</ele>
        <time>2014-08-04T13:47:29Z</time>
      </trkpt>
      <trkpt lat="46.94177" lon="5.87815">
        <ele>342.85</ele>
        <time>2014-08-04T13:47:42Z</time>
      </trkpt>
      <trkpt lat="46.94258" lon="5.87873">
        <ele>340.92</ele>
        <time>2014-08-04T13:47:57Z</time>
      </trkpt>
      <trkpt lat="46.94302" lon="5.87889">
        <ele>339.48</ele>
        <time>2014-08-04T13:48:04Z</time>
      </trkpt>
      <trkpt lat="46.94312" lon="5.87888">
        <ele>339.48</ele>
        <time>2014-08-04T13:48:06Z</time>
      </trkpt>
      <trkpt lat="46.94386" lon="5.87891">
        <ele>337.56</ele>
        <time>2014-08-04T13:48:18Z</time>
      </trkpt>
      <trkpt lat="46.94399" lon="5.87888">
        <ele>337.56</ele>
        <time>2014-08-04T13:48:20Z</time>
      </trkpt>
      <trkpt lat="46.94424" lon="5.87888">
        <ele>337.08</ele>
        <time>2014-08-04T13:48:24Z</time>
      </trkpt>
      <trkpt lat="46.9454" lon="5.87889">
        <ele>336.12</ele>
        <time>2014-08-04T13:48:42Z</time>
      </trkpt>
      <trkpt lat="46.94576" lon="5.87884">
        <ele>335.64</ele>
        <time>2014-08-04T13:48:48Z</time>
      </trkpt>
      <trkpt lat="46.94593" lon="5.87882">
        <ele>335.64</ele>
        <time>2014-08-04T13:48:51Z</time>
      </trkpt>
      <trkpt lat="46.94611" lon="5.87892">
        <ele>335.16</ele>
        <time>2014-08-04T13:48:55Z</time>
      </trkpt>
      <trkpt lat="46.94629" lon="5.87898">
        <ele>335.64</ele>
        <time>2014-08-04T13:48:59Z</time>
      </trkpt>
      <trkpt lat="46.94676" lon="5.87902">
        <ele>334.68</ele>
        <time>2014-08-04T13:49:08Z</time>
      </trkpt>
      <trkpt lat="46.94693" lon="5.87921">
        <ele>334.2</ele>
        <time>2014-08-04T13:49:16Z</time>
      </trkpt>
      <trkpt lat="46.94693" lon="5.87928">
        <ele>334.68</ele>
        <time>2014-08-04T13:49:29Z</time>
      </trkpt>
    </trkseg>
  </trk>
</gpx>